GFSSE_925_rhum_000.txt.gz
RH
75 81 87 83 77 74 75 89 70 74 78 83 81 84 84 77 78 79 82 77 74 74 73 79 82 88 96 95 97 93 82 73 73 65 58 60 73 93 86 79 79 70 79
64 84 88 88 89 82 86 92 76 70 75 78 75 74 75 72 74 76 78 75 72 69 74 78 78 73 84 93 94 90 90 71 72 70 66 60 57 75 90 80 79 77 93
64 86 85 86 78 89 98 95 76 74 76 74 72 70 74 71 77 78 78 73 75 70 76 80 79 72 82 84 89 89 88 76 76 68 65 64 67 67 84 84 68 66 84
61 83 84 77 73 93 96 80 76 81 82 76 73 68 67 66 66 70 70 66 68 71 74 72 81 73 75 75 83 80 72 78 76 71 62 65 64 71 74 85 89 84 82
58 72 75 76 78 88 87 76 72 84 84 76 67 69 70 73 77 78 63 63 67 70 74 67 72 84 86 70 68 66 79 84 75 70 68 72 67 68 84 84 84 85 84
61 70 76 82 79 83 82 71 74 88 86 82 68 70 74 76 76 78 77 63 66 72 69 70 79 88 90 92 93 90 86 82 81 66 66 61 70 69 69 79 87 86 85
69 70 78 75 71 82 70 70 76 88 90 78 79 74 76 72 70 77 73 69 70 71 70 74 87 85 86 91 94 96 95 93 86 78 69 61 59 65 79 74 73 79 84
71 80 77 70 70 75 71 73 71 76 88 81 80 81 81 69 65 76 82 83 78 84 78 88 89 92 90 88 90 93 90 89 86 80 72 69 62 63 78 75 79 77 78
70 82 82 80 74 70 71 71 69 73 78 78 75 70 67 68 62 66 83 87 84 76 77 78 72 69 71 71 69 64 65 64 66 67 70 72 72 67 83 81 80 78 80
72 75 78 81 78 69 72 69 71 78 77 79 80 77 68 55 61 67 70 75 73 76 66 57 66 71 75 74 71 68 68 68 68 69 69 68 68 68 86 86 82 79 77
79 69 68 70 80 63 70 69 77 76 75 78 76 72 65 53 61 75 76 73 68 68 70 74 76 77 78 77 76 75 75 74 74 75 74 73 72 72 89 85 80 80 78
79 74 66 64 62 64 67 67 75 73 75 73 72 73 69 66 67 70 71 72 73 76 77 78 79 80 76 74 72 75 75 73 77 74 70 77 78 83 90 85 81 81 83
60 67 69 66 70 74 73 76 74 78 74 74 74 73 74 72 72 74 75 75 76 79 82 83 79 75 75 74 71 66 61 62 65 66 66 67 64 66 87 87 84 85 85
59 62 65 68 72 78 80 82 80 79 80 76 77 74 75 75 76 79 81 81 81 84 82 80 69 54 54 53 49 46 44 47 50 65 69 63 49 52 79 70 69 72 77
49 58 64 68 73 79 78 80 81 78 79 73 73 74 75 77 82 84 85 83 74 68 60 51 52 47 43 42 41 38 42 44 43 44 41 41 43 45 48 73 78 78 79
36 54 63 68 76 77 77 79 80 76 75 75 75 77 79 81 83 86 66 54 49 48 45 44 42 40 39 37 33 33 37 37 38 32 41 38 36 37 40 58 59 69 78
44 54 64 70 74 78 82 83 83 74 72 72 74 73 78 75 76 59 53 45 44 43 42 40 37 32 25 27 27 24 24 27 26 38 37 27 39 31 30 31 47 47 53
50 61 65 70 78 82 88 86 85 75 74 75 72 69 68 65 61 56 35 36 38 38 37 32 24 18 27 19 21 22 17 26 34 28 17 31 28 34 25 34 28 23 30
48 54 60 70 81 85 90 86 81 79 75 70 65 53 48 42 34 29 30 26 26 28 24 19 18 20 28 20 23 23 16 35 34 16 18 34 18 32 24 24 17 19 26
47 48 56 76 86 87 87 78 70 65 56 52 47 43 35 29 26 22 22 22 23 20 18 20 17 15 29 28 30 20 22 37 31 20 24 16 34 29 25 25 19 16 29
58 59 67 86 85 82 67 53 46 40 38 33 28 27 24 22 23 23 21 21 22 19 21 23 19 20 26 29 39 31 25 22 32 20 30 17 30 16 24 22 27 25 28
67 68 85 77 71 72 66 58 49 37 32 28 26 22 23 24 23 22 20 20 20 17 16 20 22 24 29 29 40 52 61 41 29 23 30 24 29 27 31 24 28 32 25
74 79 78 69 68 69 60 49 37 32 30 27 24 25 23 23 22 21 20 19 19 18 18 21 20 22 26 23 32 40 60 62 42 34 25 32 26 35 26 36 31 34 31
72 73 73 68 66 60 51 41 33 37 36 32 28 27 25 24 21 20 19 18 18 19 19 19 18 19 20 27 27 30 29 40 56 52 35 33 34 33 36 37 33 36 32
64 66 67 63 56 50 45 36 31 36 38 36 29 26 25 24 21 18 16 17 18 18 18 18 17 18 20 23 26 28 30 34 34 57 47 44 35 34 38 34 34 35 30
58 56 57 54 51 47 40 35 36 38 37 35 29 25 24 23 20 18 17 17 17 17 17 17 18 19 21 23 24 26 31 42 41 44 46 45 39 36 35 35 35 31 34

GFSSE_925_rhum_003.txt.gz
RH
74 81 80 78 76 82 88 87 87 72 84 83 82 85 87 89 88 84 84 84 77 74 66 74 82 85 89 96 98 85 76 76 76 70 66 53 64 97 91 84 87 82 78
60 82 81 85 92 96 96 91 90 78 84 80 77 82 75 72 74 78 83 79 72 73 69 69 83 80 85 92 89 86 90 92 80 70 66 58 58 65 94 76 76 76 84
63 82 87 83 88 96 98 96 92 85 81 78 72 72 76 71 78 78 82 77 74 72 67 73 68 68 78 83 86 87 92 90 86 68 70 62 68 69 70 90 78 75 88
64 87 88 84 84 93 97 97 95 90 80 76 74 72 76 74 78 75 74 68 68 71 74 69 77 68 66 74 84 86 86 83 84 71 71 62 67 69 86 81 80 87 83
65 81 85 80 82 88 97 95 94 92 86 78 77 74 74 78 80 78 63 66 69 71 75 67 71 83 91 86 85 79 74 76 84 70 72 72 75 67 82 79 82 81 86
60 79 83 78 80 86 91 94 95 91 87 78 77 69 67 72 81 78 74 64 67 71 68 69 75 85 91 94 96 96 94 92 87 75 65 61 62 68 79 74 77 83 83
62 75 78 79 80 82 85 80 93 92 87 80 74 76 73 72 73 78 74 75 72 74 74 85 89 91 90 89 90 91 86 87 89 91 84 74 65 62 77 80 78 75 75
61 75 81 84 79 82 79 76 80 90 89 79 83 83 84 69 64 72 75 80 78 83 83 83 86 89 91 89 88 88 85 76 77 72 73 74 73 73 85 82 80 79 80
69 75 83 83 81 81 73 76 71 78 88 83 79 81 83 71 64 66 82 89 88 79 71 74 72 80 83 88 85 78 74 73 70 70 71 71 71 72 96 92 88 84 80
77 80 81 77 78 81 78 74 69 74 80 78 76 77 72 65 60 68 73 76 72 73 72 70 78 81 82 80 78 77 77 77 76 77 77 76 75 74 90 93 92 89 87
87 86 84 84 81 77 74 75 73 79 78 80 82 80 75 58 57 72 72 73 70 72 76 81 82 82 80 77 80 82 83 81 80 78 78 72 76 79 96 94 94 91 88
99 93 86 86 82 79 76 77 78 79 80 82 81 76 71 68 68 71 71 72 75 79 82 84 85 83 79 77 75 69 63 55 55 62 70 76 79 92 85 89 93 91 90
79 87 84 79 74 80 70 76 82 83 80 81 78 76 75 72 71 75 78 79 80 82 86 88 81 70 58 51 49 45 42 45 44 48 59 59 49 70 72 80 81 76 78
70 72 74 75 72 69 70 72 74 79 79 79 77 78 78 77 81 82 85 82 85 88 85 67 48 50 49 42 40 37 35 38 41 42 41 42 42 45 72 76 73 75 80
60 66 71 72 71 74 77 81 82 80 80 79 82 82 78 80 85 90 82 78 70 59 51 50 47 43 37 33 30 28 28 30 31 32 42 34 40 38 58 64 71 76 72
27 53 68 70 71 78 83 85 85 82 82 79 77 76 81 87 89 82 64 58 51 47 44 41 37 30 24 21 20 19 21 19 28 38 31 36 34 32 35 69 57 54 53
26 34 61 70 71 80 83 85 80 77 80 74 79 82 81 84 69 64 54 50 43 40 37 31 22 17 18 17 16 17 19 23 36 21 22 33 22 29 29 43 46 48 50
42 43 59 72 77 82 82 85 81 74 72 76 76 74 74 73 65 58 42 33 31 26 21 18 17 16 18 14 14 17 17 28 24 13 27 15 24 27 24 21 16 25 53
46 55 70 74 82 85 88 86 84 75 74 74 75 66 64 61 37 29 24 23 22 20 18 17 15 14 23 14 14 14 18 36 31 23 21 18 27 21 24 23 18 22 36
55 65 74 82 87 90 91 85 83 81 73 67 61 50 43 30 23 23 24 24 22 18 16 14 13 13 25 17 16 15 22 39 36 26 20 19 23 23 26 22 18 21 33
54 57 73 86 94 92 80 74 61 59 50 42 37 30 24 23 25 25 24 22 19 16 18 16 14 14 18 23 33 26 24 27 33 28 22 20 22 23 20 23 17 26 29
56 57 80 88 86 80 73 70 64 47 35 29 24 24 25 26 24 24 23 20 18 15 15 16 18 17 18 28 36 54 60 41 34 17 23 21 28 18 18 18 18 25 33
70 70 86 78 76 78 69 61 50 33 28 25 24 25 25 25 24 23 22 19 16 15 16 18 19 21 25 21 39 32 47 59 49 30 20 30 21 35 26 26 26 31 36
79 82 78 74 75 72 64 57 44 31 27 26 26 26 25 24 23 22 19 17 16 16 16 18 18 20 23 29 24 24 26 37 59 58 34 28 34 34 34 28 30 35 29
81 82 72 71 71 65 61 58 39 29 28 29 28 27 26 24 21 19 17 16 15 16 17 16 17 20 22 25 29 31 31 30 31 62 44 41 38 34 30 31 35 28 33
77 78 70 68 65 59 57 48 38 30 32 30 28 26 25 23 21 19 17 16 15 15 15 16 19 21 24 26 27 28 32 42 46 48 52 45 42 34 31 32 33 33 31

GFSSE_925_rhum_006.txt.gz
RH
71 78 86 70 77 76 90 88 86 78 75 82 83 87 90 96 94 91 86 84 81 74 61 76 87 87 96 96 98 88 79 80 79 72 66 57 59 86 91 90 77 87 79
60 75 80 73 79 93 94 91 88 84 84 81 80 82 82 82 83 82 85 82 77 78 70 67 81 82 85 90 82 85 87 95 90 75 69 64 58 67 94 91 82 73 83
59 72 79 86 84 96 96 94 89 82 88 78 77 82 75 73 79 79 82 79 78 78 66 73 78 74 77 85 88 89 93 91 90 87 73 65 68 72 87 86 78 74 84
58 74 81 89 92 97 98 97 91 88 83 79 74 74 73 72 83 66 73 70 71 72 78 73 70 64 62 63 68 84 84 83 84 85 76 73 68 67 78 86 75 77 85
67 81 83 84 92 91 97 95 96 92 82 78 77 74 76 78 81 76 64 68 69 74 75 66 64 71 81 83 91 91 88 84 79 70 58 65 71 70 74 75 71 79 74
75 84 86 85 86 84 94 95 98 94 88 80 81 74 71 75 82 79 71 67 69 72 66 67 71 81 87 89 95 95 94 89 85 80 75 68 64 52 62 84 81 71 76
78 84 82 81 76 85 87 92 95 93 89 82 79 75 71 76 74 78 81 73 74 75 76 83 91 93 94 95 92 92 94 87 89 84 74 72 73 72 82 82 81 75 74
67 81 82 81 78 85 86 83 86 94 90 82 76 82 83 69 67 76 82 78 78 83 91 90 96 96 95 94 95 95 81 76 75 73 74 74 75 75 97 94 88 84 80
65 78 83 84 82 82 87 78 77 86 92 80 85 87 87 70 65 71 85 87 88 86 76 81 94 92 87 85 83 82 83 83 84 82 80 79 80 80 99 97 95 92 88
73 74 83 89 87 83 88 78 74 75 80 77 78 78 74 66 67 65 73 80 72 70 75 82 83 83 85 84 84 85 84 84 84 81 80 81 81 91 97 96 96 96 93
86 80 86 95 85 87 85 80 75 71 80 85 79 81 76 65 56 67 70 71 72 77 82 84 88 89 84 80 81 78 73 63 56 58 65 71 77 92 91 90 94 95 94
99 99 93 99 89 89 86 83 79 78 84 84 85 82 71 60 64 74 76 75 77 80 84 87 85 81 76 68 61 52 46 45 45 45 54 65 64 80 77 74 83 88 84
85 100 100 99 94 90 88 86 83 82 84 84 87 81 74 70 72 75 78 81 83 84 80 84 75 55 49 46 42 38 34 35 38 40 40 44 45 64 73 74 76 76 87
73 84 87 92 89 91 89 83 81 85 85 85 82 77 79 78 80 83 86 81 86 80 84 51 49 46 40 34 30 26 25 25 25 31 41 39 49 67 68 70 77 81 74
58 61 74 85 86 83 89 79 82 84 82 82 82 80 81 81 85 92 79 75 64 53 50 46 40 34 28 23 19 18 20 19 26 38 34 41 38 42 73 66 64 62 61
34 37 51 69 80 78 78 78 78 82 85 86 86 86 80 78 85 83 67 55 49 45 41 32 23 19 18 18 17 18 21 24 32 23 33 29 30 32 58 58 57 56 62
26 28 31 53 73 78 79 83 88 88 88 84 73 80 86 86 80 65 54 45 37 29 22 18 18 17 18 16 16 16 17 25 16 25 23 22 22 23 26 42 52 55 61
27 33 35 54 70 79 86 92 93 87 88 76 78 84 83 75 64 53 42 27 22 21 20 19 17 16 16 13 14 14 16 33 22 19 23 20 20 22 22 19 19 35 53
31 41 49 69 76 84 94 91 86 86 83 80 82 78 68 65 49 34 23 24 24 23 20 16 14 13 18 12 13 13 18 33 31 23 18 21 20 21 20 19 16 13 23
44 49 65 82 84 90 92 88 86 79 76 73 66 60 57 39 24 24 27 26 23 20 16 13 12 12 17 18 15 13 23 40 37 31 23 23 20 23 21 18 16 13 19
59 68 82 89 94 90 89 83 75 74 71 66 57 46 33 24 26 28 28 25 20 17 15 13 12 12 17 23 23 18 21 26 27 32 15 21 22 19 16 17 15 13 14
63 74 90 94 94 89 84 80 80 70 56 48 36 26 25 26 27 28 27 23 18 15 14 13 14 15 18 27 25 47 55 30 19 15 19 19 14 20 16 18 16 12 22
67 71 93 95 87 82 79 70 66 48 36 29 27 26 26 26 27 27 23 20 17 14 14 16 17 18 23 21 35 29 40 48 57 28 20 24 24 28 25 26 20 22 21
70 69 84 88 79 80 70 68 63 40 30 27 26 26 26 25 25 23 21 18 16 15 14 16 18 21 23 28 24 24 26 33 51 58 31 25 33 31 32 28 27 25 24
76 79 79 78 77 72 68 67 52 39 27 26 27 26 25 24 22 21 19 17 15 14 14 15 18 21 24 27 29 31 32 32 43 55 45 43 38 36 35 33 30 31 30
86 80 76 74 71 65 63 59 60 41 27 27 28 27 25 23 22 20 18 17 15 14 14 16 20 23 26 27 28 31 34 40 46 48 60 47 47 40 42 38 34 34 36

GFSSE_925_rhum_009.txt.gz
RH
72 76 84 74 84 91 90 89 84 81 76 78 85 90 88 86 96 91 86 82 81 76 71 82 86 88 97 94 92 82 88 82 81 73 68 64 55 71 94 79 88 78 84
65 78 85 72 95 96 92 90 82 84 80 82 80 78 89 88 87 88 87 82 79 78 71 70 83 80 86 91 87 83 89 93 82 81 74 67 60 67 82 90 78 76 77
63 76 83 74 83 95 95 91 82 88 80 78 82 80 74 75 71 80 82 78 79 78 76 75 78 73 72 73 75 78 83 90 88 84 77 71 65 72 92 80 80 73 73
65 76 87 83 82 94 97 95 85 87 88 77 78 78 74 74 77 70 76 73 72 77 80 75 70 70 69 60 64 68 80 81 81 75 76 64 67 67 80 88 73 73 74
69 77 82 90 85 94 98 97 91 90 84 79 77 78 78 76 76 73 68 66 70 75 71 70 67 73 86 89 94 96 95 92 82 76 69 56 56 57 66 84 77 73 72
65 76 82 93 91 89 90 97 98 93 84 80 79 72 75 79 83 80 68 67 72 73 67 71 77 91 92 93 93 94 86 86 87 92 83 80 78 69 64 76 80 81 70
65 81 83 88 90 87 91 96 97 96 90 82 82 72 71 78 81 76 84 71 72 74 76 86 95 95 94 95 95 95 93 80 90 90 82 74 74 77 97 93 86 83 78
61 85 85 85 82 85 89 89 88 94 91 84 79 80 79 73 69 76 82 77 78 81 90 88 94 95 91 91 96 93 85 83 90 88 80 80 80 80 99 93 88 90 86
64 75 85 89 86 87 86 81 80 84 85 80 76 85 86 73 68 77 84 86 89 86 76 80 91 91 91 92 91 88 86 84 90 85 78 78 80 80 99 94 94 96 94
69 76 84 85 90 93 94 81 76 74 79 69 76 80 78 71 68 66 82 90 80 75 79 88 92 90 87 83 84 83 80 74 68 63 64 74 74 78 96 95 96 96 96
84 80 86 89 89 87 91 84 76 71 78 78 78 78 78 68 59 64 70 73 75 78 84 88 88 84 80 76 72 65 57 51 48 45 49 60 72 89 89 85 81 87 92
96 96 94 100 98 90 92 86 79 73 82 87 82 83 73 59 55 71 74 74 78 82 86 88 84 74 60 53 50 45 40 37 36 38 40 44 50 70 76 75 75 79 84
87 95 98 98 99 98 94 88 85 79 84 86 85 85 73 71 72 73 78 82 84 86 79 83 65 53 50 44 34 29 27 26 25 28 37 40 56 69 68 69 76 86 79
71 89 99 97 98 99 95 90 86 83 84 85 85 82 78 76 79 82 86 83 86 80 77 55 50 42 34 26 21 20 20 20 22 34 40 49 49 70 77 73 71 69 68
63 64 77 94 100 100 97 92 89 83 84 84 84 77 81 80 84 92 76 73 60 56 50 44 34 26 20 18 17 18 20 22 30 34 39 38 48 69 69 68 65 66 73
44 46 58 74 91 92 93 92 85 83 86 85 82 79 82 76 87 86 70 59 50 43 32 22 19 18 18 16 15 18 18 26 26 29 30 28 28 42 64 63 62 68 65
26 29 33 49 70 88 88 91 83 83 85 84 84 87 84 81 87 68 58 47 33 22 20 19 18 17 16 14 14 16 16 22 26 24 26 22 22 22 28 44 49 52 56
27 27 30 34 50 85 89 87 85 88 87 88 84 82 88 88 72 57 48 28 22 23 21 18 16 15 14 14 15 15 16 30 23 23 21 19 18 19 20 18 15 19 45
27 29 34 52 65 88 90 90 93 93 92 86 82 87 84 74 59 46 26 24 24 23 19 16 14 13 15 15 15 21 20 35 26 22 22 21 20 20 20 16 13 12 11
30 37 46 70 87 93 94 99 99 97 90 89 88 80 68 56 41 25 27 27 24 21 16 14 13 14 16 14 13 21 34 42 35 33 26 18 23 21 18 17 16 14 9
40 48 65 90 98 95 100 93 87 86 84 81 73 62 48 30 25 29 30 26 22 19 15 13 13 15 22 16 23 23 24 24 35 29 20 19 20 19 18 22 16 20 23
48 64 100 100 97 95 92 83 83 77 67 60 51 43 29 26 28 30 29 24 20 16 14 14 14 16 25 24 28 38 29 23 22 21 26 23 20 21 14 17 16 19 24
61 74 100 98 94 91 86 81 75 69 55 48 32 28 26 27 28 28 25 22 18 16 15 14 14 14 29 29 24 26 24 25 31 29 21 30 24 27 26 32 30 28 29
64 74 100 95 90 86 83 79 80 61 45 36 29 27 27 26 26 25 23 20 17 15 15 15 16 17 20 32 31 31 29 35 28 28 31 25 33 30 34 34 31 33 30
68 74 99 90 84 84 80 75 67 51 42 31 29 28 26 25 24 22 20 18 17 15 14 15 17 20 22 30 35 36 38 37 48 41 29 27 32 34 36 36 38 36 37
72 76 90 82 78 75 72 67 63 59 36 30 29 27 25 23 22 20 19 18 16 15 14 15 19 22 25 26 28 31 39 35 33 36 36 35 38 36 38 40 38 38 41

GFSSE_925_rhum_012.txt.gz
RH
63 82 91 79 92 95 93 88 84 82 78 81 87 93 90 96 94 89 83 83 81 74 70 79 86 90 97 95 97 96 90 84 85 74 64 54 50 79 93 83 88 76 76
61 77 85 82 96 95 92 89 81 79 79 80 84 88 93 90 92 81 83 82 80 77 74 74 84 84 89 94 95 92 93 90 88 82 66 64 62 68 87 78 76 76 66
62 74 89 80 91 95 94 91 85 86 80 82 76 76 67 77 73 80 81 77 76 78 77 78 79 74 69 65 68 71 78 85 86 76 59 63 62 62 87 81 80 74 68
63 74 75 79 83 94 96 93 89 92 80 83 81 69 74 72 73 70 76 78 77 80 79 80 85 87 83 76 80 75 77 78 69 62 56 53 59 61 69 85 78 83 76
65 72 75 81 83 93 98 95 91 90 83 78 74 73 77 79 74 78 72 73 76 71 66 75 77 87 91 93 95 90 87 88 84 77 70 70 70 59 57 83 82 80 84
64 72 90 84 85 88 93 97 95 89 83 81 80 72 76 79 84 75 70 70 71 72 69 78 90 94 96 96 95 92 79 81 80 70 73 74 82 78 82 91 79 82 84
65 73 92 88 84 89 91 96 96 91 85 81 78 71 76 82 82 78 83 71 71 75 78 89 96 97 97 94 97 96 92 73 80 74 77 79 80 78 96 93 90 88 84
68 75 78 95 92 89 91 93 94 95 90 82 81 78 85 76 70 76 85 75 80 84 85 82 93 95 93 93 93 91 86 82 79 76 78 79 84 81 97 88 82 83 92
69 74 75 86 92 84 89 89 86 87 88 80 75 78 85 76 67 86 88 86 92 86 73 85 91 91 90 86 81 80 79 76 79 74 76 71 80 77 96 92 94 94 96
70 73 74 74 80 93 97 88 83 80 70 67 74 79 77 73 68 66 86 93 88 74 82 90 90 86 84 80 77 75 68 61 57 57 56 68 64 79 93 92 90 86 89
71 74 75 72 77 85 83 91 83 78 75 65 72 71 71 71 73 73 78 71 74 80 86 88 86 82 73 62 57 53 51 49 47 46 45 48 52 78 80 79 77 77 82
64 70 81 77 82 82 83 87 83 79 83 80 80 83 75 73 64 72 78 71 77 83 85 87 79 63 51 48 45 42 39 35 32 34 38 37 42 69 71 72 74 87 85
56 64 77 90 95 91 85 86 81 75 80 81 82 83 72 70 72 73 73 77 84 89 72 64 54 46 43 37 33 29 30 27 27 33 48 42 52 67 68 83 78 75 77
56 63 72 87 100 99 87 87 78 74 79 80 82 83 74 70 77 74 74 85 78 73 62 50 44 37 30 26 24 25 26 27 30 35 50 52 83 79 76 75 72 76 77
52 62 71 85 99 99 96 90 81 76 77 77 84 80 71 73 78 79 68 68 59 49 44 40 34 26 22 22 21 24 25 27 28 34 46 50 68 74 74 72 77 73 71
42 49 66 79 94 100 98 92 82 76 75 81 80 77 78 76 83 73 73 64 47 39 32 26 25 25 22 21 20 22 24 27 28 34 35 50 39 54 62 60 60 61 62
28 35 46 64 82 100 100 94 81 78 81 84 79 81 82 86 81 81 65 50 37 29 26 26 25 26 23 21 21 22 24 25 28 33 31 33 33 25 25 29 40 45 47
27 28 31 46 68 93 96 91 82 81 82 81 81 89 88 78 84 67 49 37 29 29 28 26 24 24 24 23 23 22 24 29 26 27 28 27 31 29 28 17 13 10 11
28 27 33 41 51 68 77 92 90 84 96 92 91 88 84 85 74 55 38 30 30 28 27 23 24 25 25 24 21 19 28 32 28 26 27 29 32 33 30 29 20 19 16
30 30 33 45 53 67 84 96 98 95 92 91 86 88 86 73 57 39 32 30 29 28 24 24 24 27 27 25 24 23 36 38 32 32 30 26 27 29 29 28 25 23 27
33 36 41 53 66 76 96 92 92 84 92 89 88 86 73 59 39 32 32 30 29 26 25 24 26 26 27 26 20 21 24 30 39 38 20 22 26 26 24 23 24 24 23
33 41 49 60 72 79 88 90 92 82 75 74 82 65 56 35 28 32 33 30 28 28 28 28 29 26 27 28 23 25 21 19 21 25 24 24 21 22 23 24 27 25 26
36 43 56 71 75 79 90 82 76 67 66 63 51 41 34 28 31 32 30 29 29 30 31 30 29 26 25 29 27 22 20 20 20 20 23 23 22 22 24 29 28 27 29
37 47 68 82 76 83 84 71 66 67 64 51 49 37 30 30 33 30 29 30 29 30 31 27 28 28 27 26 27 26 25 24 21 23 21 22 24 25 28 29 30 29 30
35 58 81 80 79 83 78 71 71 65 60 45 43 31 31 34 32 29 30 29 29 29 29 29 30 29 29 28 29 28 27 27 29 30 29 23 25 27 29 31 31 31 30
39 66 82 79 80 78 77 73 68 60 48 43 38 34 33 33 32 31 30 30 29 30 31 32 34 34 32 32 32 32 31 29 27 29 29 28 30 29 29 31 32 31 33

GFSSE_925_rhum_015.txt.gz
RH
54 87 91 90 96 95 94 91 91 88 80 82 90 96 96 96 92 86 84 84 80 76 72 75 87 92 96 98 99 97 95 91 84 73 59 50 44 69 90 93 86 80 82
56 85 83 91 95 94 93 91 90 85 82 82 84 89 96 95 93 91 85 79 80 78 74 76 84 86 90 93 93 92 91 91 89 72 50 66 65 65 87 82 76 82 71
58 77 89 83 92 94 94 92 84 84 79 87 82 80 88 84 84 82 77 76 78 77 76 80 83 80 78 74 75 74 77 81 75 50 56 57 55 54 78 84 86 76 75
55 72 78 85 86 95 97 95 93 83 84 85 74 72 73 76 76 75 76 77 82 78 78 80 85 86 87 79 77 83 79 76 66 61 57 47 50 55 51 86 88 79 86
54 63 74 77 82 94 97 95 95 86 79 85 68 78 77 79 73 77 73 76 78 68 76 81 86 91 90 90 91 85 78 78 73 77 63 67 73 72 62 76 77 82 87
53 58 78 77 78 87 93 96 94 88 80 76 76 83 84 80 82 77 75 74 72 70 76 88 95 95 95 95 95 92 78 75 68 64 66 67 74 76 72 94 91 82 81
51 65 86 80 85 87 89 95 96 88 82 82 80 80 89 90 81 84 82 72 74 78 84 92 96 93 94 92 92 89 80 75 83 69 67 70 72 79 86 92 92 86 90
51 60 83 87 83 88 88 90 95 90 85 82 82 83 91 75 72 78 85 76 84 91 86 92 92 93 93 92 89 86 80 76 75 68 68 69 74 76 93 88 92 95 96
51 57 75 89 89 88 85 88 86 95 88 81 83 84 87 73 73 93 90 90 93 84 76 87 90 89 83 79 76 73 69 65 64 61 61 59 72 67 93 85 94 92 89
50 55 58 71 85 90 97 88 84 85 80 71 74 78 74 70 66 76 80 89 88 71 82 88 84 82 78 73 66 60 57 54 51 48 45 57 46 79 88 86 82 79 79
52 55 54 57 64 80 84 91 85 81 69 68 71 68 63 68 70 69 87 74 70 77 82 83 81 72 59 52 48 47 44 41 38 37 36 44 36 69 73 76 77 79 88
51 54 56 56 60 75 81 89 82 81 80 73 74 70 65 60 59 64 78 67 72 79 83 80 74 54 47 46 41 34 30 29 28 29 41 42 52 65 64 82 86 81 87
44 51 57 60 60 69 70 83 71 67 72 69 69 71 60 58 62 70 74 73 80 82 69 61 52 46 42 34 28 26 27 26 26 28 46 38 75 71 83 81 79 88 83
40 46 56 64 71 71 74 76 72 61 64 67 68 69 63 61 66 63 62 69 75 67 60 53 47 38 29 23 22 22 23 22 26 27 54 66 83 82 80 79 84 79 78
36 44 52 63 85 79 74 76 67 60 64 65 67 70 63 60 66 62 66 63 58 51 46 42 35 26 23 22 20 20 22 23 24 30 48 60 73 75 73 72 71 70 70
32 40 48 59 70 86 83 79 73 63 62 63 69 70 60 62 65 68 63 57 49 42 34 27 25 26 24 22 20 19 22 23 26 30 35 42 45 49 50 58 55 53 52
24 32 40 52 63 75 89 87 76 67 61 67 76 69 64 66 74 67 60 56 41 32 27 28 25 25 24 22 21 21 21 24 26 31 31 34 37 30 20 17 18 19 23
22 23 30 42 56 69 92 90 82 69 64 73 77 71 73 75 69 62 54 42 34 30 30 27 25 24 25 24 24 20 23 25 24 26 27 27 31 28 29 27 17 15 18
23 24 25 29 43 58 88 89 82 72 72 77 76 78 82 72 75 71 48 38 32 30 29 23 26 27 27 25 21 18 29 28 26 24 26 29 31 32 33 30 25 23 24
22 24 24 29 34 45 67 79 83 80 81 85 87 85 77 77 77 54 39 32 32 30 27 26 27 28 29 26 23 21 30 34 28 28 28 27 26 28 28 27 25 25 26
22 24 27 27 37 41 54 83 87 87 89 86 80 78 78 76 51 40 35 32 30 29 28 27 28 29 30 27 23 24 24 28 36 34 32 22 24 23 24 24 25 28 26
25 28 28 32 38 47 63 87 91 87 83 76 70 77 76 64 45 36 34 32 32 31 32 33 32 29 30 29 25 26 28 22 23 22 22 23 21 22 24 25 29 28 28
27 28 29 34 44 54 78 88 90 84 73 66 62 69 62 51 36 35 35 34 34 35 36 34 33 30 30 30 28 25 28 28 23 18 23 22 24 23 24 27 29 29 29
27 30 31 38 48 57 73 81 83 74 69 64 60 58 42 33 33 35 35 35 35 35 35 31 31 31 29 29 28 25 26 24 26 28 20 23 22 24 25 27 29 30 30
22 31 38 44 56 62 74 76 75 67 69 60 51 41 32 33 34 33 34 34 34 34 32 34 34 31 30 28 30 30 28 27 28 29 36 28 27 26 28 28 29 30 30
24 32 44 53 60 63 74 72 66 66 58 52 44 38 35 35 34 34 34 34 34 35 36 35 34 35 33 32 32 32 32 32 29 31 35 33 32 31 29 30 28 30 29

GFSSE_925_rhum_018.txt.gz
RH
88 87 84 97 96 96 95 93 89 80 80 91 96 97 97 95 90 88 88 84 80 77 74 84 90 91 99 97 95 97 95 85 82 67 47 61 56 79 88 93 83 83 87
85 94 92 95 95 95 93 93 77 70 77 83 89 96 98 96 91 89 82 81 78 76 77 82 86 88 89 91 90 88 78 76 59 35 46 67 63 51 87 88 76 78 78
86 94 94 89 91 93 94 92 87 78 88 86 89 94 94 92 90 80 77 77 76 76 80 84 86 86 86 87 79 74 65 48 40 51 54 61 66 56 52 80 88 76 81
85 90 91 82 85 94 95 90 83 82 87 81 74 79 78 77 78 77 78 82 76 78 79 84 87 84 80 64 62 69 82 75 63 67 63 59 63 62 60 58 85 83 85
76 82 88 83 84 94 92 93 86 84 88 80 78 80 81 77 76 76 79 85 73 78 86 90 92 89 79 66 69 83 84 71 69 69 66 68 69 81 70 78 66 73 82
67 75 75 82 85 90 90 95 95 80 85 80 86 86 80 81 79 79 82 74 74 77 91 95 96 96 80 80 91 82 63 63 69 68 68 69 74 76 74 92 89 92 76
63 75 71 76 80 86 85 93 93 83 80 82 82 92 94 89 80 77 80 73 76 82 92 95 90 91 85 91 90 80 74 70 72 64 67 70 67 77 81 88 96 96 97
69 79 76 77 82 83 82 86 87 86 83 85 84 87 82 71 75 91 82 76 84 82 72 84 85 88 90 83 76 73 69 64 68 68 64 69 74 79 92 83 94 94 93
67 82 82 80 81 78 80 82 80 84 81 83 83 83 76 68 88 97 89 88 92 73 77 87 84 80 78 74 69 63 58 54 53 51 54 59 58 63 88 86 87 84 82
54 77 86 86 86 85 87 81 75 78 74 74 78 76 74 68 82 88 84 88 85 68 78 81 78 74 65 52 50 49 48 48 42 41 40 44 44 64 73 80 81 79 89
52 60 76 82 82 80 91 86 76 68 73 69 72 72 68 67 70 75 92 80 66 69 76 81 76 61 50 51 44 33 33 31 29 30 33 38 38 65 66 78 86 88 91
50 54 58 77 84 78 89 84 81 74 61 62 64 62 54 68 70 80 77 65 65 75 80 69 56 47 46 42 34 27 28 28 27 30 38 39 32 62 90 85 92 90 87
49 52 54 55 63 70 84 78 88 83 76 65 68 64 67 62 60 73 60 61 77 79 66 58 48 45 37 26 23 23 23 23 26 31 38 38 84 82 82 92 88 85 86
45 50 54 56 58 69 78 72 78 77 76 72 71 71 61 58 56 65 68 77 75 69 61 52 45 33 24 23 21 20 22 22 25 34 43 50 86 84 87 84 80 79 78
40 46 53 59 62 69 67 71 70 67 69 68 68 69 64 62 66 63 70 70 63 52 47 40 32 26 24 22 20 19 21 22 25 33 42 45 73 75 74 70 66 63 60
29 40 51 59 66 71 75 70 72 65 63 66 68 68 67 61 65 67 63 59 51 45 37 28 25 25 25 22 20 20 21 22 25 33 40 37 38 36 36 49 52 52 51
23 35 44 56 67 72 76 76 72 66 64 64 63 66 65 62 66 67 63 52 44 34 28 27 25 24 23 23 23 22 21 23 25 31 32 34 33 30 28 25 21 39 45
22 26 39 50 63 78 82 81 74 71 66 65 65 70 63 64 66 67 64 44 38 34 28 25 21 24 25 24 22 18 20 24 25 27 28 29 31 31 32 31 27 35 37
22 22 31 44 57 67 79 82 78 77 68 64 66 72 67 71 71 68 50 41 36 28 26 22 24 23 23 22 21 19 27 28 26 25 27 29 30 29 28 29 26 27 33
20 22 23 32 51 60 75 82 84 78 69 66 72 75 77 74 68 59 45 37 33 28 26 26 28 28 25 21 23 24 28 33 28 26 28 30 27 27 26 25 24 24 29
19 19 24 26 29 49 83 87 91 83 76 77 82 82 80 73 72 50 39 34 29 27 27 28 29 29 28 20 22 23 26 25 36 34 34 29 23 22 23 24 24 27 28
24 21 23 26 29 33 66 81 90 88 86 84 87 84 78 74 53 45 38 31 30 29 30 30 30 29 30 23 24 30 41 31 26 23 27 23 24 21 23 24 25 28 28
26 26 26 26 31 35 40 73 90 92 87 83 80 77 70 53 45 40 34 31 30 32 33 32 29 29 30 29 22 26 39 42 32 22 22 24 22 24 23 25 27 28 28
28 26 28 29 29 36 54 87 89 85 79 73 72 67 54 45 39 36 33 32 33 34 33 32 30 28 29 29 28 26 24 25 39 43 25 23 25 27 27 28 28 28 29
18 28 27 29 33 45 73 88 88 83 78 70 66 68 45 38 36 35 34 34 34 35 30 30 31 28 26 28 28 29 29 28 28 38 51 38 29 28 30 31 30 30 29
19 18 33 31 36 53 76 89 86 79 73 62 62 51 38 35 34 34 34 34 34 34 33 31 29 29 28 29 29 31 32 34 36 38 50 44 42 37 36 35 30 29 27

GFSSE_925_rhum_021.txt.gz
RH
91 86 91 94 88 90 94 89 82 85 96 95 96 97 96 94 92 90 86 83 79 77 83 88 93 99 96 96 97 95 74 64 59 38 48 60 60 80 88 83 86 78 77
86 90 89 94 96 96 96 83 66 66 78 95 96 96 95 92 91 85 82 79 78 78 82 87 90 90 92 90 88 72 62 47 31 51 66 67 66 74 85 84 75 76 79
86 93 91 91 91 91 80 67 67 72 79 88 92 97 97 92 83 80 78 75 76 81 84 89 90 91 92 86 72 60 45 41 55 61 65 67 68 70 65 68 84 80 83
83 92 87 88 84 84 73 69 69 94 86 88 93 93 88 86 81 78 80 76 79 81 85 86 86 85 70 68 67 78 64 66 69 71 65 64 73 76 71 62 84 88 90
85 89 85 86 80 84 89 78 83 90 83 77 81 81 80 78 79 82 88 81 84 88 92 94 92 81 70 70 75 79 65 68 70 69 70 72 69 80 76 83 67 61 73
83 86 84 84 82 82 88 81 86 89 82 83 84 83 79 79 79 83 83 74 74 89 96 96 93 76 73 77 76 66 63 66 71 69 68 70 77 78 82 88 90 96 93
87 79 79 82 83 81 86 85 76 88 84 89 92 87 87 84 83 86 78 74 73 82 87 94 89 83 85 84 78 72 68 68 72 72 72 71 79 78 85 80 93 94 94
81 76 74 78 81 82 82 84 72 81 84 89 92 92 86 82 88 94 81 82 87 70 80 81 84 88 83 75 70 64 60 64 59 60 68 72 71 81 88 75 88 92 87
77 75 82 84 81 82 80 79 64 68 83 84 80 79 72 69 85 97 82 83 78 60 78 84 80 77 72 65 58 55 55 53 50 54 59 56 52 70 81 87 85 82 93
77 76 78 83 83 85 84 80 67 67 77 81 78 74 70 86 90 90 86 84 74 60 76 76 73 67 52 48 38 39 39 34 33 40 41 41 44 64 70 76 82 92 96
81 74 75 81 86 87 84 86 76 68 68 75 74 73 71 71 88 88 82 80 65 66 75 78 69 50 51 50 36 30 30 30 28 32 34 37 36 62 89 90 93 93 91
86 82 75 76 84 86 84 87 82 73 68 70 71 70 68 70 74 74 86 71 62 75 78 67 50 47 46 38 30 26 25 25 26 35 37 38 65 89 90 94 92 90 91
60 79 82 79 80 81 80 82 80 72 62 63 61 63 59 73 82 76 74 64 71 76 62 53 47 43 30 23 22 21 23 23 27 34 40 52 88 78 87 87 88 88 85
50 57 72 79 79 81 77 78 73 70 60 56 58 56 66 69 71 74 63 69 77 74 60 50 39 27 23 23 21 20 21 22 28 41 44 48 85 88 84 80 76 72 70
52 52 55 69 78 78 72 68 75 75 69 62 71 72 69 62 59 59 72 80 75 66 52 46 36 28 24 22 20 20 20 23 28 41 43 48 68 74 71 66 63 61 59
46 51 54 59 62 69 66 68 71 77 73 72 72 74 65 60 61 68 78 72 56 50 45 38 28 25 24 21 21 21 21 24 26 40 37 36 37 30 45 52 51 51 52
32 48 52 56 62 67 64 64 65 71 72 72 72 70 69 62 65 68 66 57 53 48 40 30 25 23 21 22 22 22 22 23 27 35 36 34 32 30 30 41 43 45 46
24 38 51 56 60 67 71 67 67 69 70 65 66 65 68 62 67 68 64 55 48 38 34 26 20 21 21 19 19 18 20 24 26 30 30 31 30 29 30 31 27 38 41
22 23 49 57 58 64 68 74 70 71 70 66 62 62 66 62 68 65 66 56 45 38 27 22 21 22 21 19 20 21 27 26 26 27 27 28 29 29 25 26 23 22 23
20 21 24 58 56 62 66 71 75 74 73 70 62 63 66 64 64 69 64 52 42 31 24 25 27 28 22 20 22 24 27 32 27 26 27 30 28 27 24 23 23 23 24
18 20 22 43 66 71 82 88 81 74 78 76 64 65 68 67 64 68 57 43 37 28 26 28 29 30 24 20 20 25 28 31 33 30 31 32 24 23 22 22 23 24 26
23 20 20 24 60 75 75 84 83 83 86 72 67 66 73 69 70 64 54 43 32 27 28 30 31 31 29 21 22 36 39 30 27 27 31 24 24 22 22 24 26 28 28
21 22 23 25 41 72 76 89 84 95 94 87 80 74 76 74 69 63 50 41 30 29 32 32 31 31 30 26 20 24 35 39 35 24 25 26 24 26 27 28 28 29 30
19 20 24 25 28 52 76 89 85 92 92 85 83 80 82 77 62 47 41 35 30 32 35 34 31 31 30 28 27 24 22 24 35 33 26 24 27 28 26 25 28 31 31
19 17 18 27 27 36 67 76 82 92 91 84 82 82 77 58 43 40 37 32 32 34 34 34 32 30 28 27 26 26 27 29 30 38 48 38 28 26 28 31 30 29 31
25 24 20 21 30 32 50 72 84 90 87 80 76 67 57 42 38 37 34 32 34 35 34 34 32 30 27 26 26 27 28 32 37 38 52 50 45 38 38 32 32 34 32

GFSSE_925_rhum_024.txt.gz
RH
92 88 89 96 96 96 96 96 96 92 93 96 97 97 96 95 93 89 87 82 80 85 86 95 98 97 95 95 96 91 67 59 43 41 59 65 80 84 85 86 79 82 81
86 88 91 96 96 96 94 89 85 87 86 94 97 97 94 92 90 85 83 80 79 82 84 92 95 99 96 92 89 67 51 31 52 63 65 62 70 84 90 82 78 78 76
87 89 91 93 95 97 81 64 63 76 90 92 97 96 94 91 88 81 76 78 82 84 87 92 94 95 93 86 73 48 36 52 62 64 61 63 68 79 80 66 75 80 83
82 88 92 94 94 86 73 67 64 80 89 91 96 96 94 86 81 76 76 78 82 84 88 90 92 87 80 74 54 55 64 68 73 72 66 68 72 82 74 56 86 90 89
87 85 90 89 83 79 80 79 95 91 95 95 96 93 90 84 81 83 78 83 86 89 91 91 86 68 62 60 72 64 69 72 73 72 73 74 77 86 86 85 77 67 71
89 82 86 83 78 74 76 83 93 84 84 87 84 83 83 82 84 90 85 85 89 96 95 92 74 64 66 73 71 62 64 71 77 70 71 76 81 81 86 86 89 92 91
87 79 87 86 82 77 77 85 90 86 86 88 86 82 81 80 85 93 81 79 94 97 97 96 81 80 80 77 71 69 70 72 72 73 77 81 82 82 89 81 89 97 95
79 79 82 85 83 78 77 77 87 83 90 91 90 88 85 85 88 96 78 81 91 95 96 96 95 88 79 71 65 61 61 63 60 66 77 77 75 84 88 81 88 86 94
75 76 84 83 84 78 82 70 80 85 91 90 89 92 89 88 86 96 90 96 89 93 92 91 88 78 70 58 51 54 55 52 50 61 62 56 56 68 79 85 84 92 96
86 76 79 82 85 83 82 78 71 83 87 80 82 74 72 72 88 89 87 91 75 85 84 79 76 63 50 40 38 40 37 34 42 45 42 42 55 65 73 80 93 96 97
94 86 84 86 86 84 81 82 70 76 84 76 75 75 73 85 92 88 85 83 68 72 78 77 67 53 52 43 32 31 31 30 29 34 36 37 40 86 92 97 94 96 94
98 96 88 84 85 85 84 84 76 74 79 80 76 76 73 91 91 88 82 77 60 72 79 74 51 48 45 39 29 25 25 25 29 36 42 64 87 92 88 87 85 94 89
86 88 88 84 82 85 86 86 84 73 69 74 74 73 74 74 84 82 87 75 64 78 69 52 48 43 30 24 22 21 23 23 30 37 45 68 79 78 79 80 87 88 83
88 82 81 81 82 85 84 83 78 74 66 61 68 71 72 75 82 82 84 69 69 73 62 56 45 32 24 23 21 20 21 24 34 46 52 56 91 84 82 77 72 68 65
74 84 79 80 80 84 85 82 79 72 66 54 52 61 64 68 73 79 74 65 80 74 60 49 36 28 25 22 20 20 21 25 39 46 51 60 74 76 71 67 63 61 60
57 68 78 80 78 82 80 80 80 72 67 55 51 60 62 70 66 74 70 81 80 72 54 42 35 27 24 21 21 21 22 25 36 45 43 48 48 49 56 54 54 54 54
29 52 61 72 79 81 81 77 79 73 72 67 61 72 72 67 63 61 71 82 62 47 45 40 32 24 21 21 22 22 22 25 33 40 36 33 30 29 38 48 47 48 50
26 33 63 66 78 81 84 79 76 71 70 73 72 72 74 66 61 65 74 76 52 47 44 37 25 22 20 18 19 19 23 25 30 37 34 31 30 28 29 28 28 31 42
23 24 35 70 75 66 74 77 75 68 68 73 74 74 74 67 64 67 69 57 51 48 42 29 21 21 21 19 18 20 28 26 29 31 30 29 30 29 26 23 22 22 22
21 23 25 40 75 72 70 68 76 70 68 72 73 75 69 69 64 68 65 58 51 46 37 23 23 25 23 21 23 25 31 31 27 28 28 30 30 27 24 23 22 23 24
23 22 25 27 54 77 73 79 87 76 70 74 76 69 62 65 65 68 65 57 53 49 36 25 29 28 23 22 25 30 28 34 29 29 31 31 28 25 24 24 24 27 28
22 22 22 27 32 68 75 71 79 81 73 72 78 72 62 63 66 66 65 63 54 40 26 28 31 31 27 21 25 34 38 31 31 35 34 29 25 24 25 27 29 29 31
23 22 22 26 31 58 81 77 62 84 88 89 88 76 64 65 68 66 67 64 51 38 28 30 33 33 31 24 21 26 43 40 35 26 29 27 26 26 28 27 26 30 32
21 20 20 20 27 62 77 87 75 73 90 88 83 80 70 69 70 68 65 58 50 35 29 32 34 34 33 29 26 21 21 23 32 28 26 29 28 28 26 24 28 27 31
21 21 21 21 21 38 79 86 82 76 76 79 88 83 79 74 70 66 59 55 41 31 31 34 34 35 33 31 29 26 26 28 29 37 40 36 30 27 26 28 29 29 34
27 27 26 24 23 35 64 86 81 82 83 86 90 86 80 73 64 61 55 50 39 31 34 34 34 33 32 30 26 25 24 30 38 40 50 50 46 35 33 30 31 35 33

GFSSE_925_rhum_027.txt.gz
RH
89 86 84 96 98 99 99 96 96 92 89 95 99 100 98 94 88 80 72 76 87 87 92 97 94 94 88 93 94 74 66 56 42 50 56 63 82 84 89 88 81 85 83
84 86 84 96 100 100 98 94 89 87 89 95 97 96 95 90 90 88 83 82 84 85 87 91 93 97 97 92 86 71 53 42 60 62 58 60 71 86 90 82 78 81 74
85 85 88 95 97 98 98 97 92 88 89 95 97 96 94 91 88 82 79 81 83 83 88 94 96 95 93 88 79 72 62 58 62 58 60 63 75 82 75 70 76 83 80
82 88 89 93 98 99 97 94 96 96 90 92 97 96 94 90 82 77 78 83 86 87 95 96 97 95 90 77 70 75 74 74 76 69 69 69 79 84 76 61 87 90 85
90 88 88 89 97 97 88 90 91 93 93 92 96 97 91 86 79 78 80 84 88 89 90 91 75 62 56 66 70 73 76 73 75 74 74 75 82 90 91 87 78 68 68
92 89 87 89 94 86 76 93 94 96 95 93 94 96 90 86 84 80 84 87 88 96 94 82 64 58 60 66 65 68 69 75 75 73 73 78 81 87 87 85 94 91 93
93 87 89 84 87 84 75 90 90 91 94 94 92 91 88 86 90 87 72 72 85 96 96 89 81 81 81 79 76 75 75 75 72 73 78 85 86 86 85 84 91 92 95
88 86 89 79 78 75 73 88 86 85 91 90 86 84 83 85 92 93 77 75 89 94 91 95 91 87 79 73 66 62 65 66 67 79 84 83 77 82 87 86 86 92 96
86 82 88 80 78 74 72 83 86 85 91 90 84 84 83 86 91 96 82 82 92 92 89 86 87 81 73 58 55 56 58 55 56 61 64 57 58 69 78 85 85 96 96
86 78 80 81 79 78 79 73 85 86 88 86 84 86 87 86 87 90 78 89 77 86 88 85 82 69 51 39 43 44 39 42 50 49 44 41 50 66 76 85 94 97 95
95 81 85 85 82 78 79 74 74 84 86 86 84 81 81 82 89 90 83 89 70 84 82 81 74 55 51 40 32 32 31 31 32 35 36 36 74 93 98 97 98 96 93
99 95 94 87 86 83 80 82 69 82 86 81 80 79 74 80 88 91 87 89 74 76 82 77 56 50 47 43 33 27 26 26 31 38 51 75 90 93 84 82 85 92 83
99 100 100 92 86 86 83 81 72 71 83 82 77 76 74 91 96 93 91 90 77 84 85 71 51 47 39 27 22 22 22 25 34 45 64 86 83 77 76 78 87 84 79
98 92 94 85 88 86 85 83 76 69 74 80 80 77 76 87 96 94 88 86 70 81 76 54 48 38 27 23 22 20 21 26 40 51 58 86 86 82 80 75 71 68 67
100 99 89 88 87 86 88 84 82 75 67 63 70 78 78 74 78 85 84 87 70 81 66 59 47 32 26 23 21 20 21 29 47 50 53 77 82 77 72 67 63 62 63
89 92 91 88 85 85 87 85 84 79 70 60 57 69 76 75 73 82 84 82 72 80 70 54 39 33 27 23 20 20 22 30 43 49 51 60 62 61 59 57 58 56 59
60 71 88 90 89 88 85 85 84 81 75 64 54 52 63 69 67 72 80 76 80 80 67 42 36 30 24 21 22 22 23 28 39 44 40 34 32 36 48 50 53 53 54
30 38 58 77 80 86 88 90 87 82 78 72 66 49 54 61 67 70 76 75 85 74 52 39 36 26 21 20 21 22 24 26 38 40 35 32 30 28 30 27 27 33 47
26 26 29 59 80 89 94 89 88 83 81 77 69 59 59 70 72 69 69 73 85 52 42 41 34 23 21 19 19 19 24 26 34 38 34 30 30 29 26 24 22 22 24
27 26 27 36 62 78 86 91 93 90 84 82 74 70 70 74 76 66 66 75 74 49 43 38 27 22 23 21 22 29 31 29 34 36 33 30 31 29 26 24 23 24 26
28 28 28 31 46 77 96 100 100 94 90 84 77 72 74 74 76 67 69 74 59 49 47 40 25 26 24 24 28 32 33 34 30 30 31 32 32 29 26 25 25 27 28
26 25 26 29 32 66 88 86 88 82 90 77 80 74 75 76 74 68 68 64 57 47 44 37 26 29 26 23 25 35 42 34 37 37 36 34 31 27 25 27 28 28 28
25 24 23 23 26 49 69 93 92 84 88 91 89 85 82 77 70 67 67 64 63 58 52 40 28 32 30 24 24 28 46 42 38 28 33 31 27 26 28 28 27 28 27
23 21 22 24 24 30 62 94 90 76 86 82 75 81 82 80 74 66 66 67 63 58 52 43 30 33 34 28 24 22 24 26 34 29 31 30 30 29 29 27 29 28 28
24 23 22 21 23 26 49 83 80 81 73 69 77 81 86 84 78 70 69 68 63 55 50 39 31 34 35 34 31 26 26 26 26 33 34 35 32 31 30 29 30 30 33
22 22 22 21 20 22 29 77 87 90 81 82 89 91 89 86 78 73 71 68 62 54 46 38 32 34 35 35 33 29 28 30 35 37 47 46 44 31 30 29 33 33 34

GFSSE_925_rhum_030.txt.gz
RH
81 82 80 81 87 87 90 91 90 90 93 87 90 94 98 97 91 86 86 88 89 91 94 92 93 90 89 94 95 77 64 57 50 55 55 72 85 91 91 88 85 83 83
78 81 83 80 84 88 91 87 84 86 87 88 90 91 98 95 92 87 84 85 87 89 90 96 95 96 87 92 82 66 50 55 59 58 59 62 73 87 91 80 80 79 85
82 81 82 87 83 86 92 84 84 86 88 92 97 96 90 92 89 82 81 82 83 84 84 98 98 95 91 88 81 75 79 61 58 58 61 70 77 81 72 66 80 83 73
80 83 84 92 93 96 96 88 81 84 86 92 96 97 94 91 82 79 83 84 83 83 82 90 98 96 93 90 89 92 87 73 70 71 68 74 82 89 76 64 84 82 80
85 85 88 94 96 98 96 87 85 86 86 90 95 97 93 86 78 81 84 88 90 93 92 96 81 73 74 92 94 89 79 75 74 74 75 79 87 96 92 91 86 76 66
89 89 89 93 95 97 94 85 90 93 89 91 90 96 91 85 80 83 87 92 95 94 92 85 68 66 70 84 82 76 72 76 75 73 74 80 89 96 88 86 94 94 93
91 91 89 90 95 90 81 90 91 84 92 89 95 95 91 88 83 85 79 81 95 96 95 81 80 83 90 91 81 74 73 75 72 74 78 84 87 87 82 93 90 96 97
91 92 89 90 84 70 76 88 88 87 92 97 96 95 92 89 92 83 68 76 92 94 92 95 90 85 81 74 66 63 68 68 78 82 85 82 78 82 86 87 87 97 97
92 91 91 84 67 68 72 89 79 85 89 92 88 88 87 89 95 94 73 76 85 88 86 84 92 80 71 57 55 57 58 58 64 66 64 57 62 70 78 76 96 98 96
91 84 83 76 71 68 69 77 78 80 86 88 86 84 84 85 88 84 81 83 81 85 86 89 79 68 47 40 44 42 42 50 52 48 43 38 54 69 81 95 97 95 93
97 85 86 79 74 69 69 70 74 77 83 84 84 86 86 88 88 90 78 87 70 89 87 79 76 56 47 38 33 33 32 32 33 33 33 50 90 95 98 98 96 93 89
99 98 94 86 79 80 77 72 74 76 81 85 84 87 86 87 91 91 86 88 73 86 83 83 68 56 52 46 36 28 26 26 30 36 48 84 92 92 88 89 91 89 81
98 99 99 100 88 84 84 81 69 69 77 78 82 84 80 76 81 95 94 92 85 83 87 80 55 48 44 34 24 22 22 26 36 62 82 79 75 75 75 72 80 77 74
98 99 99 99 99 86 86 83 77 66 73 75 75 76 79 84 94 97 96 92 88 76 86 77 54 45 33 25 22 21 21 28 41 43 88 83 82 80 78 74 72 70 71
97 98 99 99 99 99 92 86 81 74 68 67 71 74 75 79 94 98 95 91 86 78 85 61 51 40 29 26 22 20 21 33 51 48 68 85 81 79 73 68 65 64 67
89 97 100 100 100 100 94 93 86 80 69 63 65 73 76 76 77 88 90 87 90 74 80 64 56 36 31 26 21 20 23 37 48 49 61 73 69 66 62 61 59 60 61
64 79 82 88 97 100 98 94 88 85 80 73 65 64 73 77 77 75 82 86 84 74 78 63 45 36 31 23 21 21 24 32 43 48 49 52 48 46 55 57 55 53 60
30 60 68 81 93 94 92 85 90 87 84 82 75 64 60 70 75 75 78 83 81 80 82 60 43 35 27 22 21 22 24 31 42 44 37 34 32 32 35 39 36 46 48
28 27 44 68 71 80 96 94 88 89 86 84 80 73 63 58 65 71 69 77 82 83 83 60 41 34 25 20 21 22 25 28 41 43 36 32 31 31 30 25 21 22 29
27 29 28 36 59 66 86 99 100 100 94 90 85 81 76 61 54 63 71 75 80 86 68 44 39 32 22 21 22 26 31 28 38 42 38 33 32 31 29 24 23 24 25
26 30 30 29 29 63 100 100 100 100 100 97 90 84 81 70 56 70 76 75 79 83 64 46 36 28 24 24 28 34 37 32 36 42 40 34 33 31 28 24 24 25 26
26 26 28 30 29 47 86 93 100 100 100 85 84 84 82 80 69 77 79 70 70 78 53 42 38 28 26 26 27 35 43 39 36 34 33 33 34 31 27 26 27 27 26
28 25 27 28 28 38 74 87 100 97 97 100 99 88 87 84 78 77 77 69 70 70 61 54 45 33 28 28 25 30 49 46 42 35 37 37 34 30 27 28 28 27 25
30 29 25 26 28 29 61 95 100 96 97 97 82 71 82 86 85 82 78 74 69 66 60 56 50 37 30 28 26 28 27 28 41 34 33 33 31 29 29 29 29 28 27
30 28 29 24 23 25 27 78 91 98 92 83 86 83 85 88 85 86 83 79 69 65 61 58 50 36 31 32 28 27 26 25 24 32 36 37 34 32 32 32 31 30 31
32 31 33 30 26 22 25 32 82 92 94 85 83 91 96 96 91 88 83 79 72 69 62 61 51 38 33 35 31 30 28 30 34 33 42 42 39 32 33 32 33 33 34

GFSSE_925_rhum_033.txt.gz
RH
79 80 76 77 82 77 80 83 84 89 87 88 89 96 94 98 95 91 90 90 91 93 91 90 92 87 86 88 90 76 66 66 65 58 66 83 91 92 92 91 76 77 85
77 80 77 78 78 81 83 85 88 87 87 85 84 92 97 96 92 88 87 87 86 93 95 93 92 94 93 85 75 74 76 64 59 58 60 59 75 90 89 81 78 81 84
81 84 78 80 80 80 79 81 85 87 86 81 86 84 95 94 88 83 83 85 86 93 98 99 98 93 89 80 76 84 76 59 57 59 68 79 79 77 78 71 86 82 84
84 89 82 82 82 80 81 78 76 76 74 79 92 94 96 91 82 82 83 82 83 85 91 94 97 96 82 87 91 94 71 70 70 67 73 80 90 92 82 78 75 74 82
83 82 84 83 84 88 83 80 77 81 78 80 94 96 95 86 80 85 87 88 83 78 82 96 90 90 90 95 96 93 73 73 73 73 77 83 92 94 90 95 93 81 72
88 87 90 86 86 94 86 82 79 76 85 76 84 96 91 83 82 86 90 93 90 88 90 82 70 68 81 94 93 77 73 75 73 72 76 84 90 92 86 94 95 92 92
88 89 91 86 89 97 84 82 87 84 82 83 89 96 91 84 86 90 93 93 95 93 89 90 94 89 88 89 76 72 74 74 72 73 78 83 87 86 90 89 95 97 99
89 92 90 87 93 90 74 72 75 72 71 88 91 96 93 88 87 91 91 95 96 94 96 94 89 88 79 70 64 66 70 73 76 79 81 74 77 81 83 83 97 97 95
91 96 92 93 94 78 75 84 85 86 82 88 92 91 88 89 92 89 93 95 94 88 89 89 93 78 64 57 55 60 62 65 68 70 64 56 65 73 76 92 97 94 91
91 89 90 90 92 84 92 78 71 77 83 83 89 87 86 86 84 87 70 83 89 86 85 93 79 66 43 44 46 46 51 55 53 48 42 40 66 77 94 96 94 95 92
99 93 90 88 80 73 74 84 69 75 83 83 84 85 88 90 89 82 80 75 81 89 93 84 74 54 43 36 34 34 35 34 34 34 34 74 94 97 97 95 93 90 87
100 99 98 88 80 81 76 78 77 75 79 85 85 84 86 86 87 90 81 83 73 94 83 85 70 56 54 43 35 29 26 26 31 35 61 84 95 94 93 92 90 86 83
96 99 99 100 96 87 84 76 77 73 74 78 72 78 85 89 92 95 93 91 77 86 83 81 62 51 46 38 25 22 23 27 41 62 86 82 80 79 81 79 80 77 77
93 98 98 98 98 94 90 82 76 76 75 78 78 75 81 82 80 90 97 90 86 74 81 79 59 48 39 29 24 22 22 29 40 79 89 80 78 80 75 74 73 73 75
94 94 96 97 98 97 96 90 85 77 73 72 77 79 81 78 79 89 98 94 89 75 80 81 58 46 35 30 25 21 22 34 48 73 89 82 80 79 73 69 67 69 69
95 96 98 98 98 97 99 98 89 84 76 69 69 76 77 77 78 93 97 96 91 80 77 78 55 46 35 32 24 20 25 40 49 54 75 80 76 68 66 64 63 63 67
53 78 92 99 98 99 98 98 98 87 82 76 68 69 76 76 76 86 95 95 87 86 78 76 63 44 35 31 22 21 28 40 49 54 62 64 63 56 61 62 57 62 58
28 36 60 85 97 99 98 97 100 93 85 82 77 71 71 74 78 78 82 85 82 88 77 76 60 41 35 29 22 22 27 36 46 50 49 47 44 45 53 50 50 50 54
29 28 31 62 81 96 100 99 99 100 93 87 83 81 75 70 71 80 77 76 84 90 81 79 53 40 36 27 22 23 24 34 45 48 39 35 34 33 34 26 22 22 33
28 29 28 30 47 65 99 100 100 98 100 97 88 85 82 77 69 73 79 76 81 91 85 82 53 38 34 24 22 25 26 28 42 48 39 34 33 31 30 24 22 22 23
28 28 27 29 29 67 98 99 100 100 99 100 97 90 86 83 78 68 69 76 75 89 82 84 48 38 30 23 27 37 37 32 40 48 43 37 34 32 30 26 24 24 24
29 28 27 29 31 34 75 91 96 98 99 100 100 93 88 86 81 78 65 67 73 87 86 76 49 38 30 25 34 41 38 41 38 44 45 41 34 34 31 27 25 25 26
30 29 28 27 28 33 54 86 100 97 98 100 99 100 82 87 86 82 71 64 75 82 79 74 56 47 35 28 26 34 42 37 41 38 37 36 36 35 32 28 27 27 26
36 33 29 28 28 30 36 86 95 91 92 97 100 100 99 93 94 88 81 69 80 79 75 68 66 49 42 33 30 29 30 33 37 35 39 40 37 36 32 30 29 29 28
42 37 38 30 28 30 34 77 96 96 90 91 97 98 100 100 100 96 86 77 83 85 72 70 64 48 44 38 31 31 31 30 27 31 35 37 40 35 32 32 32 31 30
46 44 39 40 35 29 30 40 97 99 96 97 99 99 99 99 100 100 96 88 83 84 77 70 66 57 46 38 32 29 27 33 35 34 36 36 35 42 36 35 36 34 32

GFSSE_925_rhum_036.txt.gz
RH
71 78 75 76 72 72 78 86 85 88 85 86 87 88 94 90 95 93 87 75 81 86 88 90 88 82 85 90 84 84 88 81 62 68 79 86 92 91 93 72 67 67 84
68 75 75 76 77 77 76 85 84 86 85 83 83 91 91 96 93 90 87 68 92 85 92 91 93 94 87 80 80 84 85 64 60 62 58 53 75 89 87 69 75 80 81
69 69 75 77 79 75 74 85 84 86 86 80 79 79 90 94 90 85 84 85 94 97 92 97 96 91 84 80 84 87 77 59 58 62 66 61 68 76 77 83 84 84 93
69 68 70 76 77 73 78 82 84 81 82 79 80 86 95 90 84 83 83 85 98 99 99 98 89 84 85 88 93 91 72 69 63 66 62 67 68 88 89 77 65 69 76
71 68 71 79 80 77 76 76 76 76 76 76 85 96 93 83 83 86 84 84 96 96 89 87 84 95 91 95 96 81 73 72 70 69 73 78 75 82 90 98 93 92 73
69 67 80 81 81 82 81 77 78 80 75 78 85 95 89 82 85 89 93 85 81 81 78 82 71 73 85 94 87 73 75 73 73 68 73 82 80 85 94 92 96 94 92
67 67 80 84 82 85 85 79 79 76 83 81 83 93 87 83 87 92 93 83 85 84 87 86 90 93 82 81 74 69 72 71 71 71 73 74 76 88 89 92 98 98 99
70 72 76 84 84 90 87 81 78 76 88 86 79 92 90 86 90 93 96 96 94 94 96 95 90 83 74 70 67 70 72 74 74 75 74 67 76 81 79 94 96 92 94
73 72 76 87 87 90 84 68 68 70 82 86 79 89 90 85 90 92 95 92 90 90 90 94 88 73 63 57 57 62 66 69 64 64 58 54 64 74 77 98 96 94 93
76 73 68 71 76 79 83 84 81 84 70 89 83 86 87 85 81 78 82 84 85 78 84 95 78 62 45 48 49 52 55 54 54 53 46 48 65 79 94 97 96 93 88
82 76 72 68 69 70 73 82 85 84 83 85 88 88 86 76 83 86 78 74 83 79 93 85 72 49 39 36 37 38 40 43 41 41 43 73 97 97 97 95 91 88 88
91 87 78 72 70 72 76 78 72 73 78 80 80 82 71 68 70 72 81 69 83 93 91 82 68 52 47 40 39 33 37 40 43 46 55 86 93 93 93 92 89 86 83
90 95 95 81 75 76 75 76 73 68 71 74 72 70 68 71 81 82 78 85 82 95 86 80 68 50 43 38 36 34 39 45 47 53 72 88 89 87 86 83 82 80 79
89 92 96 97 88 85 76 76 72 71 72 72 72 71 73 77 84 79 80 78 74 78 76 70 54 44 39 32 31 34 39 44 48 58 81 84 84 80 74 74 76 77 78
86 88 93 95 92 97 97 79 74 76 78 71 75 75 73 76 80 78 82 85 83 74 71 68 55 42 34 30 31 34 39 44 48 57 68 79 78 78 72 71 72 72 72
73 81 90 94 95 96 98 97 82 79 73 73 71 74 78 75 77 78 81 89 88 81 72 66 54 42 35 32 30 34 41 48 50 56 61 79 78 71 69 66 66 67 70
50 62 72 82 90 96 98 99 99 87 80 76 75 74 75 75 75 77 81 94 91 84 77 67 52 42 36 33 31 34 42 47 52 53 55 58 69 61 66 64 61 68 62
27 34 49 67 81 90 97 99 100 98 93 86 80 76 77 74 73 74 76 90 85 84 80 67 55 46 40 35 32 31 40 49 50 50 53 53 51 49 62 55 59 55 57
26 26 30 47 66 75 90 98 99 100 98 90 84 85 79 78 76 71 73 76 80 83 79 67 56 49 42 37 33 30 35 43 50 49 47 48 48 45 44 44 33 32 44
29 29 28 30 44 62 76 97 100 100 100 98 90 86 84 81 81 78 71 75 77 85 79 68 57 48 43 39 27 30 34 37 46 47 41 42 42 44 45 45 30 36 23
29 31 32 32 33 40 62 91 100 100 100 100 99 94 87 88 85 83 76 75 77 81 79 70 59 49 43 37 36 36 37 36 40 45 42 39 41 40 41 36 33 33 30
27 30 31 31 32 34 42 61 76 91 98 99 100 98 96 92 91 89 84 79 76 79 78 74 60 52 45 40 37 35 36 35 35 43 45 41 38 38 37 36 35 35 37
35 35 32 31 32 34 37 51 66 80 86 89 97 98 97 94 92 90 90 86 79 78 77 75 64 58 49 43 38 36 38 37 34 38 44 44 40 39 36 37 36 36 36
45 47 43 38 35 34 38 44 58 71 75 73 72 85 98 99 95 92 92 90 88 82 76 76 71 68 55 48 44 40 39 38 36 39 38 40 39 37 37 39 37 38 37
51 56 50 45 38 35 36 46 57 66 63 62 66 78 87 98 98 99 97 95 92 85 75 76 72 64 56 52 48 42 40 38 37 33 36 38 39 38 37 37 37 38 40
51 53 53 46 42 45 39 39 49 62 66 63 70 79 83 92 100 100 99 98 95 91 82 77 79 67 58 53 51 44 36 38 36 34 33 34 36 38 39 38 39 39 40

GFSSE_925_rhum_039.txt.gz
RH
61 79 74 74 75 78 81 88 83 80 80 86 88 88 94 84 92 92 86 91 90 89 90 87 89 89 88 84 85 88 78 57 51 52 63 81 92 91 80 64 69 73 87
60 75 76 70 66 72 77 84 84 86 86 87 83 95 85 89 92 89 78 85 83 90 88 91 93 87 82 84 85 86 83 57 53 55 62 55 75 83 78 63 72 81 87
58 68 78 75 70 75 73 84 83 84 85 81 72 77 80 94 88 84 82 94 94 90 92 96 92 85 82 81 85 86 67 55 55 60 58 62 72 81 82 75 73 88 88
56 64 70 75 75 78 74 84 81 81 81 76 75 83 89 90 84 82 83 94 99 98 99 97 85 85 86 92 93 91 68 60 61 61 56 57 68 87 96 92 61 64 74
54 57 70 77 76 75 80 83 79 82 78 76 75 83 89 85 84 82 87 97 96 95 95 84 83 88 92 96 94 81 70 65 65 62 65 71 75 82 96 91 94 96 78
53 55 77 76 72 75 76 74 79 79 76 77 80 87 84 84 87 88 94 91 88 87 78 73 66 72 81 90 78 74 72 67 68 63 67 77 75 93 89 95 96 93 99
51 57 78 79 77 80 76 75 75 83 78 79 80 89 86 86 90 94 87 83 83 82 70 67 85 82 80 78 70 70 71 69 67 64 64 66 83 87 87 97 98 93 96
52 60 75 81 80 78 78 78 78 80 82 78 76 90 86 88 92 92 78 82 81 71 73 94 90 77 72 68 67 68 69 71 63 65 65 65 74 79 82 94 93 92 91
56 58 73 82 81 84 85 82 79 75 84 83 79 82 85 86 77 76 89 84 89 92 93 91 78 68 60 56 56 61 65 66 57 58 48 52 57 74 89 97 96 92 82
59 57 66 72 75 77 83 73 76 76 84 89 80 76 85 80 79 77 71 80 83 81 85 89 71 58 48 48 51 54 53 48 48 47 41 52 56 80 95 97 94 91 90
60 58 56 57 61 63 64 78 76 77 67 85 84 75 78 76 81 71 81 76 83 78 92 88 68 47 38 39 40 40 40 40 37 37 47 78 95 99 96 93 87 90 90
62 59 57 54 56 57 60 75 75 76 82 82 81 89 75 64 67 66 79 73 83 82 94 85 68 48 43 42 42 34 35 36 38 40 67 90 96 96 94 91 89 87 84
79 74 62 60 57 57 60 64 62 60 67 68 68 71 69 60 66 69 78 77 89 93 96 87 71 57 46 39 39 33 34 38 40 45 72 88 92 92 88 85 84 82 81
79 85 87 70 64 62 62 63 60 59 61 63 63 62 60 60 65 67 64 69 66 78 71 74 62 47 44 39 33 33 35 39 42 54 84 91 90 86 79 78 80 80 80
69 81 88 89 78 70 67 62 62 62 61 61 61 62 59 62 69 70 66 69 66 62 62 64 56 44 40 34 32 34 35 38 40 51 77 85 81 78 75 73 76 76 76
57 69 82 87 86 74 84 80 67 64 65 64 60 62 61 61 65 72 68 79 80 67 63 61 55 45 38 34 32 34 36 39 41 48 68 83 80 74 71 69 70 71 72
46 54 63 72 80 82 81 95 90 72 67 65 63 64 65 64 63 64 63 73 84 78 66 62 55 45 38 35 34 34 37 40 43 47 54 68 76 70 64 67 67 71 67
28 33 47 58 68 73 76 81 95 94 75 67 66 65 65 65 64 63 63 75 80 84 75 66 59 46 41 39 36 34 38 41 42 44 47 52 58 58 65 63 67 62 61
25 26 27 34 49 62 69 79 91 98 97 78 70 69 67 68 66 64 63 65 74 82 76 70 62 50 46 41 38 33 35 40 42 43 46 48 47 46 57 54 58 53 57
22 22 23 24 28 40 54 63 81 92 98 99 84 70 70 71 71 68 65 64 66 71 71 72 63 54 49 44 38 33 33 35 40 43 42 43 42 45 44 49 40 31 31
25 25 26 27 26 28 37 49 85 94 93 99 98 86 71 75 72 74 72 65 65 66 73 72 66 56 51 45 36 34 36 34 37 44 42 39 39 42 43 48 40 35 30
23 24 26 27 29 29 30 34 50 80 89 95 99 99 88 80 78 77 78 73 67 69 70 73 67 59 52 44 41 44 48 39 35 37 42 39 37 39 40 40 36 34 33
36 36 33 30 29 29 30 31 35 54 73 85 95 97 100 98 85 81 82 81 74 71 73 74 70 62 56 48 46 46 54 53 39 35 41 44 39 39 38 38 36 35 36
41 49 44 39 36 32 31 32 34 44 58 67 68 76 82 87 94 84 84 84 83 79 76 76 74 66 59 56 49 44 41 40 48 51 39 43 43 39 39 37 37 37 37
45 52 52 44 37 38 34 34 35 39 45 58 63 61 61 74 90 91 86 86 90 87 82 78 76 69 66 64 56 48 44 40 42 44 50 43 43 41 38 37 38 38 38
46 50 50 46 41 39 41 38 36 40 46 52 56 56 57 64 75 86 89 87 88 91 93 86 80 76 76 70 60 53 49 47 42 40 48 45 44 41 38 37 38 38 38

GFSSE_925_rhum_042.txt.gz
RH
77 65 60 74 79 80 78 79 80 80 83 89 88 88 86 82 90 88 92 88 89 90 91 89 92 90 87 89 91 87 60 51 44 48 52 78 89 80 80 80 82 86 84
74 72 66 75 76 73 78 78 82 83 85 80 78 85 82 81 85 82 83 87 82 92 92 93 88 86 87 86 87 86 54 46 57 64 63 49 69 84 79 72 78 90 85
77 81 73 69 74 75 72 84 81 86 82 80 73 79 81 83 83 83 90 91 87 90 97 93 86 84 84 86 86 76 50 54 62 66 70 68 70 90 74 59 75 89 78
71 80 77 67 68 70 79 82 79 86 80 73 70 77 81 81 84 81 96 99 98 98 98 84 82 86 90 94 91 65 50 63 63 65 75 72 81 97 98 79 84 77 88
65 71 78 76 79 74 80 80 77 78 78 72 74 81 83 84 82 87 99 99 99 93 96 71 78 90 93 92 79 65 60 65 65 67 65 68 70 91 96 96 96 94 88
58 70 76 78 74 74 79 81 75 74 75 72 76 78 86 86 85 96 97 90 87 82 76 63 56 66 74 72 70 67 64 68 64 67 68 73 71 88 95 96 97 100 100
63 71 76 74 74 74 71 73 72 73 76 74 77 79 87 90 92 97 87 84 81 80 72 74 82 70 72 68 65 66 65 68 64 63 70 69 74 83 94 97 97 84 93
66 76 77 73 76 73 75 74 75 78 76 74 75 84 89 92 93 92 88 82 83 80 92 94 75 65 65 64 65 65 65 68 63 66 63 59 71 75 92 93 94 88 89
59 73 81 80 80 78 78 77 76 83 80 78 69 80 84 92 92 77 70 76 72 86 92 80 68 62 57 53 56 60 67 56 58 55 59 57 54 75 95 96 94 94 90
56 68 77 82 81 82 81 78 80 82 85 74 71 74 77 74 78 77 72 78 76 82 88 81 64 54 49 48 52 53 47 48 46 41 41 47 60 92 98 96 94 93 93
57 61 68 75 78 77 77 73 74 78 83 82 81 76 76 63 55 61 77 82 88 81 85 81 63 45 40 41 42 39 40 39 38 38 52 69 90 98 94 90 88 91 91
59 56 60 63 63 64 66 69 60 70 67 85 75 74 75 76 64 66 72 78 84 82 92 83 66 46 43 42 41 33 34 35 39 47 57 86 89 95 94 89 90 88 87
62 59 55 54 56 58 62 69 74 79 80 81 76 76 74 68 68 71 72 70 73 79 87 84 72 53 44 42 39 35 34 36 41 46 65 86 95 93 89 85 84 84 86
75 75 68 61 57 57 60 67 63 66 69 74 76 78 75 64 66 68 74 70 61 76 85 82 69 55 49 42 37 33 34 40 42 63 70 87 94 89 83 82 82 82 85
76 79 79 74 67 60 61 62 61 60 62 63 66 66 66 62 63 68 68 71 67 76 71 79 67 56 45 40 32 33 34 38 42 71 73 87 88 82 80 78 80 80 82
64 76 80 81 79 72 66 65 62 62 60 61 62 63 62 60 63 66 66 66 67 69 66 65 64 53 44 37 32 34 35 38 40 56 68 79 84 78 77 75 76 76 80
54 63 74 81 85 80 75 69 72 71 64 65 63 61 62 61 63 70 67 70 66 66 71 63 62 56 44 37 34 33 35 38 41 48 67 66 79 78 71 70 72 74 74
31 45 64 73 79 82 80 82 73 75 76 68 67 63 63 64 62 64 67 69 72 71 69 72 63 56 45 37 35 34 36 38 42 45 59 66 62 72 68 66 69 73 68
24 26 27 36 68 72 76 77 82 83 80 78 72 66 66 65 65 65 65 65 73 72 72 71 67 61 47 40 37 35 35 38 42 43 46 54 58 54 56 59 66 66 64
23 24 24 26 28 38 64 71 77 80 88 90 81 76 68 68 67 66 66 64 67 74 73 73 72 64 52 44 41 37 34 36 42 43 44 47 50 51 52 50 50 54 52
23 25 25 26 26 27 30 43 67 82 84 82 87 86 78 72 70 71 68 66 65 74 73 77 72 66 56 50 42 35 34 33 37 42 44 43 46 46 47 51 45 42 36
26 25 25 27 27 28 28 29 38 72 78 74 83 87 94 75 76 76 75 70 67 67 76 77 73 70 60 52 42 36 58 44 36 36 44 43 41 41 42 44 45 35 32
40 41 37 32 30 29 30 31 31 31 68 86 90 86 85 89 92 88 79 77 75 70 68 72 76 72 63 54 45 47 72 69 47 37 36 44 41 39 40 41 44 38 35
46 50 51 44 39 36 31 30 32 34 39 59 77 78 82 81 80 80 82 85 81 84 75 74 77 76 67 57 48 46 50 46 57 52 37 38 43 39 39 39 40 37 35
48 51 52 50 44 38 40 36 34 34 36 38 44 63 70 72 81 85 81 79 81 85 81 84 79 82 72 65 58 49 50 48 43 57 60 46 44 44 40 40 38 37 36
48 50 50 47 45 43 41 41 41 37 37 39 46 53 60 63 62 70 83 80 76 87 90 87 88 86 81 70 64 62 55 55 51 51 70 55 49 47 44 40 39 38 37

GFSSE_925_rhum_045.txt.gz
RH
82 73 68 75 84 80 78 78 78 85 88 86 90 88 86 78 89 89 90 88 97 95 90 90 90 90 93 93 80 55 52 56 55 49 41 66 80 92 90 91 88 87 92
75 67 72 77 80 78 78 82 79 79 84 83 86 83 81 82 88 74 85 85 93 96 91 88 89 89 88 88 75 50 48 62 65 66 50 48 70 83 85 79 92 84 80
64 69 77 79 78 77 81 80 80 78 78 79 73 78 80 81 76 68 86 84 90 96 91 88 85 85 87 86 59 49 63 66 71 72 79 67 94 94 59 69 90 85 85
64 73 76 80 78 74 79 77 77 80 79 71 68 76 79 84 74 98 97 95 98 98 86 84 85 90 92 71 48 62 66 69 78 73 77 80 79 96 90 96 94 88 90
73 71 67 68 68 69 79 74 75 77 70 69 74 75 78 81 90 97 93 98 99 93 77 70 89 91 77 64 53 60 66 67 68 73 73 75 66 96 96 97 98 95 90
78 76 78 75 70 72 76 72 77 76 76 69 75 69 80 83 93 99 98 95 94 81 72 62 72 73 66 65 59 67 67 66 74 72 66 68 69 95 97 97 100 96 99
76 76 78 78 72 77 79 75 80 75 72 70 75 77 88 88 95 96 92 86 84 78 61 52 61 64 62 62 62 68 69 67 70 69 70 65 82 95 96 98 97 80 94
74 76 76 74 77 76 72 74 72 73 72 69 76 88 92 94 96 87 82 81 79 75 73 61 58 58 60 59 60 66 70 67 68 65 62 51 69 89 91 93 90 90 94
72 75 72 74 74 76 77 74 74 72 75 69 71 78 84 90 92 84 74 76 77 82 89 69 62 58 52 52 56 63 59 61 61 52 60 53 65 89 95 93 94 94 93
72 72 73 78 80 79 79 77 76 80 80 70 70 73 70 55 65 76 71 68 74 88 84 70 60 52 48 49 52 58 52 50 41 44 44 45 74 96 96 88 96 95 93
73 71 74 81 81 81 81 79 78 79 84 76 73 72 76 56 56 59 67 85 85 88 85 74 57 43 42 42 42 40 42 40 39 39 52 57 94 96 89 92 94 93 91
74 72 70 75 74 74 75 77 78 78 77 85 76 74 73 61 51 56 72 79 82 80 80 80 60 41 41 42 38 34 36 36 39 41 50 87 88 96 86 88 92 89 88
65 67 69 70 69 70 69 66 51 56 65 84 82 76 73 67 70 66 66 77 81 83 79 82 67 48 42 41 39 33 34 36 42 44 63 81 92 96 93 87 84 88 89
70 69 70 70 64 63 67 69 64 69 72 68 81 76 76 74 77 75 69 68 65 70 75 81 77 60 46 44 39 36 33 34 42 51 63 69 86 93 88 84 83 87 88
65 67 68 68 61 59 61 66 65 67 71 68 72 77 78 70 74 72 70 71 69 53 68 76 76 60 51 46 41 34 34 37 41 64 68 76 81 85 85 84 82 84 87
70 61 62 69 66 66 62 63 65 64 63 64 69 72 77 73 66 69 70 70 70 66 68 75 77 66 56 46 40 33 34 36 39 69 75 78 81 82 82 83 82 81 85
67 65 67 60 67 69 72 65 63 66 64 61 62 64 66 66 62 68 68 68 71 69 70 75 76 67 54 45 38 32 34 36 39 53 70 70 78 83 78 81 79 80 83
58 64 70 72 66 65 72 74 68 68 72 68 63 64 62 63 63 64 68 69 67 69 66 68 71 65 61 48 38 35 33 36 39 46 66 69 68 73 77 74 75 76 78
28 45 66 72 73 73 70 76 74 68 71 78 73 67 66 63 62 62 65 69 71 72 71 68 70 70 60 49 39 36 34 35 39 43 49 64 66 63 66 69 68 76 73
25 26 28 39 73 71 71 75 76 77 70 68 75 78 74 66 65 65 63 64 66 69 72 73 69 69 67 55 44 39 37 35 38 42 45 49 60 60 55 54 59 71 64
23 24 25 26 26 33 69 82 83 84 82 72 68 68 69 70 72 67 66 66 67 67 69 75 74 72 72 63 46 43 41 36 36 39 43 46 49 55 55 52 49 54 58
30 28 25 26 27 28 29 33 56 79 82 76 71 70 66 63 63 71 74 68 69 67 70 74 76 79 76 62 50 44 50 42 34 36 41 44 46 48 51 54 51 49 49
38 36 37 34 30 29 30 30 31 33 61 74 79 83 80 77 70 62 62 73 75 73 70 71 77 84 77 66 58 50 75 67 54 37 36 40 45 45 47 47 50 49 45
46 45 48 47 43 38 36 33 30 32 36 36 62 77 74 71 74 77 73 70 68 80 79 76 78 83 84 75 61 51 49 51 62 59 41 38 43 46 45 44 43 46 45
49 51 51 49 46 44 42 41 41 37 35 36 38 43 48 71 74 74 75 76 72 73 78 87 80 90 89 83 74 58 56 58 47 60 69 60 43 45 46 41 42 43 44
51 50 50 50 50 49 49 47 47 48 48 44 39 39 41 44 65 70 64 70 77 78 79 85 83 94 93 88 80 73 57 58 65 63 84 78 70 53 50 44 40 40 41

GFSSE_925_rhum_048.txt.gz
RH
88 79 73 78 79 80 82 83 81 85 89 95 100 94 83 75 84 78 72 96 97 92 89 90 91 93 96 89 87 85 88 77 56 50 56 78 93 89 90 93 88 91 92
82 75 78 84 83 79 81 82 83 85 84 90 97 96 91 78 75 83 87 98 95 91 90 89 90 91 91 87 85 87 90 67 64 53 49 53 64 87 89 90 81 82 91
76 76 77 82 81 80 81 80 82 84 86 90 77 73 81 75 61 92 86 96 94 92 90 86 86 86 85 73 62 76 68 69 72 71 75 91 99 71 69 74 87 86 84
69 77 80 81 80 80 79 80 80 82 82 75 69 75 75 59 88 88 96 98 98 92 85 85 89 91 81 66 70 70 74 76 75 78 82 77 88 88 94 97 88 93 95
67 82 81 81 82 82 78 78 78 84 77 69 71 71 66 68 92 88 96 97 99 76 64 84 91 67 55 58 68 70 75 77 76 75 80 69 82 97 98 95 98 95 94
74 80 83 82 76 78 73 79 76 75 70 69 73 65 80 96 98 97 96 98 96 79 66 72 66 62 56 53 68 70 71 77 77 74 69 66 85 98 98 93 96 98 99
73 70 71 71 71 75 71 76 78 73 70 70 73 80 86 95 99 100 93 89 83 77 54 50 61 60 59 60 68 68 70 72 72 69 70 61 94 97 99 99 98 84 94
75 81 81 73 72 74 73 78 75 72 71 70 74 90 92 95 97 99 86 82 80 72 53 55 57 56 55 58 67 70 69 69 70 67 59 49 86 92 87 93 92 91 96
76 77 79 75 78 78 72 76 72 73 71 70 70 71 87 94 95 95 82 76 78 72 56 57 56 55 54 55 63 70 66 67 63 57 57 49 77 92 91 83 94 95 94
77 76 75 78 78 74 75 74 71 73 76 73 70 69 56 50 69 91 88 88 84 93 67 60 55 50 47 50 58 67 57 56 53 47 44 45 81 95 90 85 96 96 93
78 74 75 76 76 77 78 78 78 81 82 81 73 70 71 40 47 60 67 70 84 91 80 67 56 48 45 48 53 61 49 43 41 40 48 48 95 98 85 87 96 94 91
80 75 74 76 80 81 81 80 79 81 86 86 78 75 74 60 45 48 54 66 80 88 86 76 59 43 42 42 42 43 40 39 38 41 44 73 97 94 86 88 96 91 90
73 76 76 74 75 79 82 80 79 78 81 90 83 78 75 69 52 56 66 76 79 79 76 85 71 46 42 42 40 34 36 37 40 45 56 88 96 95 96 95 88 89 88
79 77 75 76 74 72 69 72 71 74 79 85 86 81 77 72 67 69 64 68 69 71 73 74 76 62 46 43 42 37 34 36 41 50 59 78 89 94 95 87 87 91 87
77 78 74 76 74 75 70 68 64 57 56 61 75 79 78 78 74 74 72 70 69 68 62 66 75 76 64 48 44 40 36 34 39 48 62 70 72 83 90 88 86 90 87
71 75 77 74 74 74 73 69 68 66 65 68 66 68 73 78 79 73 72 72 72 71 60 55 68 74 62 52 47 44 36 34 38 45 66 74 78 81 84 88 86 86 88
63 64 66 69 65 66 66 68 66 66 66 69 68 67 71 74 78 74 70 71 72 70 68 68 72 77 80 66 51 45 35 34 36 41 65 78 81 82 81 88 87 85 86
66 62 58 61 67 68 68 67 68 68 70 67 67 67 67 68 70 73 68 69 71 71 71 69 72 74 77 71 53 47 38 34 35 38 51 75 80 80 81 80 86 84 84
62 69 68 64 64 66 70 72 70 68 69 73 70 64 65 65 65 66 66 65 70 71 72 70 73 74 72 71 56 49 41 36 34 36 42 61 73 74 74 73 77 78 81
29 37 69 76 77 76 74 73 74 75 73 69 74 76 66 66 65 65 64 64 65 71 72 73 73 70 72 72 64 53 41 37 35 35 39 45 61 70 69 67 70 72 76
27 27 28 33 50 74 84 85 83 82 79 74 69 70 75 74 74 70 66 66 66 67 69 71 74 75 73 74 63 50 46 39 38 36 38 42 48 60 68 65 61 64 71
31 30 31 32 30 30 37 62 83 88 86 83 80 73 73 72 71 70 71 71 71 72 68 71 76 82 80 80 65 54 55 50 43 41 38 41 44 48 60 64 59 56 58
38 36 34 34 36 36 34 32 32 34 55 85 80 81 75 78 79 74 71 74 77 82 78 70 74 85 89 87 80 66 71 70 59 42 38 37 41 44 49 61 61 58 53
47 45 46 45 44 43 41 40 39 35 36 35 39 41 66 80 82 85 85 80 79 75 84 82 78 82 91 95 87 71 66 55 67 72 46 40 38 44 48 52 58 60 57
51 50 49 48 48 48 46 44 45 46 48 46 40 39 38 41 49 52 76 86 73 66 68 80 89 90 91 94 94 80 75 72 60 67 73 63 52 43 41 49 49 52 56
53 51 50 52 53 53 54 54 54 53 53 51 49 48 46 45 44 49 63 75 82 82 74 75 78 87 95 93 98 95 82 71 74 71 81 80 71 55 48 45 52 53 54

GFSSE_925_rhum_051.txt.gz
RH
88 85 80 88 80 76 78 89 94 92 91 98 88 80 75 74 78 64 96 96 95 90 89 92 93 99 95 89 90 92 87 64 45 48 67 85 91 89 90 87 83 89 97
89 81 83 87 90 80 84 88 84 85 87 95 96 97 84 76 69 82 94 94 91 90 88 89 93 95 92 89 92 84 68 62 52 61 64 57 65 86 89 70 74 90 93
87 81 84 85 88 79 81 82 83 85 88 90 88 84 83 71 66 83 96 93 94 90 86 87 88 89 87 88 88 81 75 73 68 73 82 96 77 70 73 79 81 84 84
78 82 85 83 80 82 80 78 83 86 88 81 76 73 68 56 80 85 95 95 95 89 83 86 88 87 85 83 76 76 72 71 71 72 70 86 92 85 97 88 92 95 86
76 83 84 81 81 79 77 79 84 85 80 74 69 66 55 90 94 96 98 94 87 69 60 83 78 80 84 78 76 78 74 71 71 74 71 74 89 97 97 97 96 94 87
76 80 82 79 79 79 81 82 86 78 74 70 73 61 77 96 97 99 92 91 75 68 39 57 58 55 68 72 75 75 70 71 73 72 61 80 90 97 97 96 95 85 93
83 82 80 83 78 79 82 85 84 75 71 67 70 71 95 99 99 98 94 99 78 69 38 51 57 54 55 70 73 74 74 75 70 70 67 77 95 96 90 92 97 85 92
82 83 81 80 74 79 80 85 79 75 69 66 69 69 92 93 97 99 93 86 84 74 50 50 56 57 59 67 70 71 70 74 71 68 56 66 89 96 89 97 94 86 91
75 73 73 71 72 72 77 80 77 75 72 70 68 48 84 90 94 99 98 90 89 85 70 58 59 57 57 62 70 70 70 71 69 62 56 51 83 89 84 89 94 96 96
78 81 81 70 79 73 74 80 74 76 73 72 68 58 37 43 84 97 94 87 94 92 77 67 62 58 57 61 68 64 65 63 59 54 48 46 83 97 81 84 93 96 95
85 82 78 76 80 76 75 74 75 76 78 74 72 69 56 47 54 56 62 74 82 84 70 65 61 56 52 54 62 69 55 50 45 45 44 48 90 95 83 87 94 95 92
84 81 78 81 80 76 76 77 79 82 84 81 76 75 72 50 48 56 62 63 65 84 78 68 58 47 44 48 53 58 50 43 40 42 46 56 92 84 85 83 94 92 90
79 80 80 79 78 77 79 80 82 86 88 86 82 77 78 73 50 53 55 66 70 81 85 83 71 50 40 41 40 39 40 37 37 41 47 71 93 96 96 95 91 89 89
81 76 78 79 77 79 80 81 81 82 85 89 88 82 80 76 59 47 51 61 67 71 73 70 77 68 49 43 42 41 34 35 36 41 49 73 89 97 97 97 89 90 88
80 78 76 77 77 78 81 80 80 79 80 80 83 84 81 78 71 59 62 59 64 70 70 68 69 74 72 57 45 43 40 38 35 37 49 68 84 88 94 92 89 93 89
75 75 74 76 74 73 74 72 71 68 65 65 66 73 82 81 77 77 71 72 72 71 70 69 58 62 71 71 59 50 44 41 35 36 44 64 75 81 83 91 91 91 91
76 75 76 71 75 75 71 70 71 68 67 66 67 67 68 74 77 80 76 71 70 70 72 73 66 64 77 80 70 58 49 46 37 35 38 55 69 81 85 89 92 90 90
70 73 76 76 71 76 74 70 71 72 70 69 68 68 69 73 75 78 81 78 71 70 72 75 72 71 75 78 81 74 60 48 39 34 36 43 64 79 84 84 86 91 89
62 65 68 73 76 72 69 68 70 71 71 69 69 68 67 70 73 76 76 72 72 70 72 75 76 74 74 77 76 74 67 52 45 40 36 36 46 69 80 81 79 83 86
59 63 67 70 74 77 79 81 81 78 74 76 76 76 72 68 67 70 71 72 73 73 72 75 78 76 74 76 78 76 71 60 47 41 38 36 38 47 69 77 77 76 81
33 47 59 68 74 80 83 84 84 82 81 81 80 78 77 80 79 70 69 69 70 72 71 73 77 79 77 80 84 76 73 65 53 47 42 38 37 40 50 68 74 74 73
32 32 32 35 39 46 68 87 90 87 83 80 80 81 83 82 82 86 78 76 75 72 72 72 77 87 86 87 85 68 72 64 56 54 49 42 40 40 43 56 69 72 69
38 35 33 33 32 31 32 33 38 53 67 76 86 86 84 87 89 89 85 88 82 82 82 80 82 87 93 90 92 85 76 78 70 56 53 49 46 42 43 49 57 71 69
46 48 48 47 43 40 38 36 35 34 35 35 39 40 40 49 68 81 87 89 90 90 90 85 80 85 94 99 99 93 84 74 75 75 55 47 43 42 41 44 48 55 66
53 51 50 50 51 51 48 46 45 46 48 48 45 39 35 35 40 45 49 51 69 88 88 80 78 83 92 98 100 98 90 90 80 86 91 76 61 53 51 44 41 47 55
56 53 52 52 54 55 55 57 56 56 55 53 53 52 52 51 48 47 52 59 63 76 86 85 86 84 82 89 100 100 96 87 93 91 89 79 76 66 61 61 54 49 49

GFSSE_925_rhum_054.txt.gz
RH
82 84 79 91 86 82 82 92 95 93 94 92 84 75 74 70 58 96 95 97 88 88 91 94 93 92 94 77 88 86 83 65 58 57 82 88 89 88 86 76 81 95 91
80 79 81 87 82 78 90 88 86 85 90 98 87 82 77 68 68 94 93 91 90 86 88 93 96 96 90 92 88 82 65 60 69 73 59 58 72 88 76 68 81 90 96
86 78 82 84 83 75 84 84 84 87 89 92 81 77 80 65 83 94 94 96 94 85 87 90 93 93 93 95 90 79 70 62 66 73 84 78 78 82 74 67 73 76 89
83 82 82 83 82 81 79 82 84 88 90 80 76 77 68 81 88 96 98 96 88 81 85 86 87 88 86 86 79 72 69 68 70 65 74 88 89 93 93 88 97 94 73
80 85 83 82 80 81 80 83 86 87 79 78 80 65 77 95 95 94 92 88 74 49 79 89 92 86 87 82 79 73 70 70 73 68 71 92 96 98 94 95 92 86 90
81 84 83 82 84 80 76 79 89 76 74 76 71 59 91 95 96 100 91 81 73 45 61 72 74 78 78 80 76 72 69 70 71 63 68 90 96 97 95 99 95 82 90
88 87 86 82 82 78 77 82 85 76 73 71 58 69 84 93 96 94 92 79 77 56 58 64 64 64 74 78 76 73 74 73 70 70 66 88 97 85 86 92 98 93 95
85 86 82 81 82 78 83 86 81 74 70 64 56 48 88 84 91 91 96 86 84 69 55 64 65 64 69 76 75 72 72 74 70 68 57 72 89 92 91 94 96 94 93
85 84 81 82 80 78 87 83 80 76 72 68 63 36 72 83 86 92 98 94 90 82 76 67 64 62 65 70 74 70 74 76 71 62 55 53 73 88 88 86 91 96 96
89 86 82 78 74 80 83 81 77 78 74 72 67 52 56 63 82 91 96 89 88 79 67 64 63 63 63 65 72 67 70 67 62 57 50 48 74 95 80 80 91 96 93
89 80 76 73 76 78 77 81 78 78 77 74 72 66 47 46 64 82 80 72 79 74 62 58 55 50 48 52 60 70 59 56 46 44 42 49 75 97 78 83 78 90 90
89 88 84 74 82 83 76 81 79 80 81 77 75 73 67 45 46 59 66 73 78 86 78 67 59 52 47 48 54 62 63 49 42 40 42 48 76 98 81 83 84 84 82
89 87 83 80 86 82 78 78 79 82 85 83 80 76 76 71 49 48 54 60 60 76 83 77 67 54 42 41 42 42 45 42 37 37 42 48 77 99 93 92 90 81 76
85 82 81 84 84 80 78 78 81 84 88 88 86 81 78 78 70 51 49 54 62 68 73 73 73 75 60 44 42 42 41 35 35 35 40 48 75 98 93 97 88 77 85
83 80 79 82 81 80 79 80 83 84 84 84 87 87 84 81 77 60 48 52 59 66 68 70 69 69 73 69 59 46 43 43 40 36 35 47 66 80 92 98 93 92 92
79 76 75 76 77 78 79 79 78 78 79 81 83 84 86 84 81 77 70 65 65 65 70 74 75 74 67 72 72 68 55 49 44 41 36 40 56 76 89 95 94 93 93
78 74 76 75 75 77 75 73 72 72 76 75 67 62 71 80 82 80 79 78 70 70 73 75 76 77 72 67 74 74 66 59 51 47 38 36 43 60 76 89 95 94 90
77 73 72 72 73 74 76 72 71 71 72 69 67 65 69 70 72 79 80 79 77 76 75 75 74 76 75 73 74 74 77 76 68 55 43 36 37 45 59 72 83 93 92
75 78 77 77 75 71 74 76 74 73 72 72 72 73 71 72 71 74 76 77 79 82 82 76 74 76 77 76 76 76 76 76 74 66 56 44 40 38 46 61 74 82 85
69 73 78 80 82 81 78 78 78 76 74 76 74 73 73 73 72 72 73 73 76 80 81 80 76 75 78 79 82 81 81 79 77 71 63 56 49 44 40 49 69 79 82
45 63 67 79 80 82 84 88 89 86 82 78 74 75 79 82 82 81 74 73 74 75 73 73 77 79 82 84 92 87 83 82 78 76 72 61 49 43 41 43 54 74 80
30 36 51 64 72 79 87 88 90 87 88 86 84 85 86 88 89 90 90 89 84 81 80 79 81 87 88 88 92 87 89 77 72 68 66 64 58 49 44 42 46 63 79
38 37 37 38 38 38 45 61 73 80 86 90 93 94 93 94 96 99 99 97 96 96 92 86 84 86 96 93 94 93 86 87 75 63 60 57 56 53 51 49 47 49 62
43 44 42 40 38 35 34 34 34 34 36 38 38 42 45 43 46 63 83 90 92 95 100 95 92 93 96 100 100 99 94 88 89 92 69 63 61 66 58 56 50 48 49
52 51 48 45 43 43 42 41 42 43 45 46 45 42 39 38 39 40 43 48 54 60 68 86 98 98 94 99 99 99 95 98 95 90 94 83 74 67 64 59 59 54 48
60 55 54 52 54 54 54 53 52 52 52 52 52 51 50 49 50 53 56 61 64 68 89 94 99 100 99 98 100 100 99 95 94 96 97 93 87 79 75 71 68 68 68

GFSSE_925_rhum_057.txt.gz
RH
78 78 82 84 87 85 88 98 98 99 100 94 78 74 71 72 96 98 97 89 88 89 93 88 87 94 97 90 76 60 57 49 50 69 65 83 87 84 79 87 93 95 93
76 93 83 85 87 88 88 88 88 90 93 94 88 82 70 80 96 94 90 90 86 86 87 94 92 96 96 83 73 66 66 72 77 66 58 69 80 84 75 76 87 96 94
85 96 91 84 85 87 86 86 86 88 90 91 84 82 69 85 95 94 96 94 84 88 92 93 96 97 97 90 82 76 68 68 72 85 79 88 93 88 78 92 87 83 94
96 97 96 83 84 83 83 84 85 89 87 77 77 80 75 86 96 98 97 92 82 86 88 90 93 94 88 76 72 71 69 70 65 67 92 95 96 95 87 97 97 88 74
97 96 90 83 79 82 81 82 86 87 74 72 70 66 79 84 93 98 95 80 73 83 90 90 86 86 80 78 72 72 70 70 63 64 97 97 93 96 95 94 95 90 91
96 92 83 80 82 81 82 84 87 78 68 67 60 82 90 87 98 90 87 73 51 58 76 72 77 78 78 75 71 68 68 67 64 62 87 91 96 96 96 98 92 82 90
95 90 91 81 82 81 83 88 83 72 70 66 54 87 86 89 89 86 87 77 63 66 72 65 70 71 73 74 72 72 73 68 69 61 75 91 93 80 79 90 99 94 91
93 95 95 86 82 80 81 88 78 72 67 65 50 78 84 84 81 84 88 82 79 62 80 76 68 70 75 75 72 70 75 73 70 57 58 74 82 87 89 91 97 96 96
98 95 96 91 80 81 84 88 77 73 72 67 42 81 82 80 80 83 94 88 84 59 65 68 68 69 74 75 73 70 73 73 68 58 51 48 70 89 87 87 94 95 87
89 89 88 86 82 89 92 81 75 76 75 72 60 49 85 84 86 87 99 84 77 62 58 57 58 57 56 60 67 66 67 65 59 51 45 46 77 87 80 80 71 76 73
94 92 90 88 85 81 85 82 80 81 77 75 68 54 47 64 83 89 91 82 71 67 66 63 61 56 55 56 59 69 61 56 47 40 40 43 65 96 81 80 79 77 62
100 95 91 85 82 83 82 85 78 78 80 77 74 72 61 43 47 58 64 67 74 81 71 67 62 54 49 49 52 56 64 57 42 38 39 43 63 93 96 79 82 80 57
91 85 83 81 85 84 84 86 78 78 82 81 78 76 74 66 47 50 58 63 70 72 81 75 70 60 47 43 44 44 44 44 38 35 37 42 60 96 96 87 86 82 64
84 86 89 83 86 91 84 80 80 81 82 84 83 81 78 77 71 55 46 50 54 59 68 73 74 75 72 55 44 43 43 41 36 35 36 38 46 87 96 91 84 82 76
88 86 84 83 87 87 82 80 81 82 84 85 88 88 84 80 77 73 53 48 52 61 64 68 72 72 69 74 72 67 55 47 46 41 39 36 42 68 79 90 97 91 90
87 84 83 81 83 85 82 80 80 82 84 85 84 84 86 85 82 79 74 61 55 57 63 71 76 77 77 72 64 68 71 63 53 48 46 40 38 50 69 89 96 94 93
87 82 80 78 81 80 78 77 78 76 78 80 80 82 84 82 80 81 80 78 76 71 73 75 76 78 79 78 72 68 72 74 71 66 57 50 40 39 51 69 94 95 92
89 79 77 78 79 78 75 74 74 73 72 73 75 75 69 68 74 77 81 79 78 82 82 79 78 78 78 79 77 74 73 74 75 76 75 63 53 43 40 50 63 90 94
83 81 80 81 80 77 76 76 76 75 75 72 73 71 72 73 74 76 76 76 78 81 82 83 83 81 79 77 75 77 77 77 76 76 75 73 66 56 47 43 48 62 82
77 81 82 81 79 79 78 79 82 82 80 76 74 73 73 74 75 78 78 78 78 80 80 81 84 82 81 81 83 82 80 78 78 78 77 77 76 62 52 45 45 60 72
36 76 75 79 81 85 85 84 82 80 76 74 73 74 75 75 76 80 83 82 80 78 76 78 84 85 85 82 96 89 81 75 78 76 75 70 76 73 66 51 45 50 66
28 43 64 71 79 82 84 86 89 86 86 86 86 85 86 87 89 93 94 93 91 90 88 83 84 96 92 86 94 94 87 72 69 67 66 64 64 65 62 58 51 47 49
34 35 43 54 70 78 84 92 94 96 95 93 94 95 96 97 98 99 100 100 99 100 99 99 98 97 100 93 92 95 91 78 74 67 63 60 60 61 64 56 56 53 50
41 42 41 42 42 41 43 50 54 58 53 48 46 50 56 58 52 54 70 91 100 100 99 99 100 100 100 100 99 97 98 94 92 93 73 69 67 67 70 68 63 58 56
50 52 48 44 42 40 39 38 38 38 39 41 43 43 44 45 44 43 44 48 52 58 72 96 97 99 99 100 99 98 100 100 100 97 96 84 78 74 77 74 72 70 67
59 57 54 50 50 49 48 47 48 48 50 51 52 51 51 54 59 65 67 69 72 72 80 97 99 97 98 100 99 100 99 96 95 99 98 94 91 83 78 75 76 74 73

GFSSE_925_rhum_060.txt.gz
RH
74 81 85 81 86 85 84 93 92 96 97 96 97 87 92 92 96 98 90 87 87 85 84 90 95 92 93 89 86 85 82 62 53 59 69 81 83 86 87 90 88 77 87
66 78 85 83 86 84 86 89 90 94 93 96 97 81 95 97 97 90 90 86 87 90 87 88 87 94 96 94 95 95 88 76 67 60 81 80 71 83 73 76 86 90 95
64 74 89 84 80 85 87 90 89 88 90 88 85 80 90 98 92 97 91 85 88 91 92 94 95 97 96 93 82 68 66 65 77 76 81 74 83 92 98 93 74 93 92
66 71 78 84 81 85 87 86 86 89 84 69 79 74 83 97 98 97 91 84 88 91 94 97 99 96 83 73 72 68 69 62 63 82 74 79 76 93 97 97 96 78 79
68 69 76 80 82 84 83 85 88 84 68 64 70 65 86 97 96 98 89 82 91 94 92 95 89 76 72 72 72 69 68 54 72 76 77 79 84 98 99 98 93 96 94
68 68 84 82 81 84 82 85 86 73 63 57 53 69 84 95 96 85 75 55 79 91 94 89 76 71 70 70 69 67 62 63 66 71 72 80 88 96 97 92 85 85 93
66 68 88 81 84 82 83 85 80 67 65 47 82 88 79 95 86 81 78 66 74 82 78 80 77 72 72 70 70 71 67 66 61 64 67 69 82 87 85 91 97 86 74
68 71 86 86 86 82 87 87 74 68 62 56 84 80 77 92 82 83 84 84 64 82 76 65 69 70 70 69 67 70 70 67 61 60 64 65 76 90 88 94 88 82 77
72 73 80 88 91 82 86 86 73 68 68 51 84 81 80 82 76 81 89 85 70 68 68 63 59 58 64 66 66 67 70 66 58 56 50 55 80 90 84 71 67 71 71
81 79 78 86 84 85 97 85 74 73 72 60 70 81 80 81 82 85 97 86 77 58 61 64 62 60 61 63 68 65 66 60 55 56 51 52 79 92 82 74 76 70 51
79 84 78 78 77 77 89 87 78 77 76 72 55 54 75 70 80 87 88 83 78 68 62 62 62 57 55 57 59 65 60 53 48 47 46 42 58 92 96 80 79 77 50
74 78 81 80 81 79 81 86 82 80 84 81 78 73 60 61 66 72 80 75 70 73 67 65 60 54 53 57 59 55 55 52 44 45 46 39 50 78 100 86 83 74 58
69 74 78 82 79 79 79 85 82 80 81 82 81 78 72 68 65 67 69 73 78 77 79 79 79 68 60 51 49 45 46 45 40 40 42 36 42 73 99 86 83 70 68
72 73 78 80 82 78 77 81 82 78 76 79 83 82 79 76 78 68 60 66 71 68 71 76 71 73 74 67 50 46 46 45 41 40 42 37 37 62 92 92 85 79 79
76 74 78 81 80 80 82 77 77 74 79 78 83 86 81 80 81 76 67 60 61 65 67 69 72 70 69 67 66 62 59 54 50 46 44 43 37 41 81 95 97 93 93
84 78 81 83 82 84 86 83 78 74 76 78 80 84 86 81 81 80 75 71 63 65 67 72 75 76 75 75 70 67 68 69 64 55 51 51 50 39 43 68 94 97 93
86 90 81 81 82 81 83 83 76 77 78 78 80 85 87 85 81 80 76 74 74 72 72 74 77 80 79 78 77 73 71 71 70 66 62 58 57 57 44 41 62 93 90
81 88 87 84 84 81 76 78 76 76 76 76 77 80 86 84 84 82 78 78 77 78 80 79 78 77 77 75 73 71 72 75 76 74 72 67 65 63 61 56 44 60 91
80 84 88 88 84 84 82 80 80 80 79 75 77 78 80 81 81 83 81 80 81 83 82 82 80 80 77 74 74 75 76 77 76 75 74 72 71 67 65 65 64 51 63
71 81 87 90 91 89 88 85 84 83 81 77 77 76 77 79 83 84 84 83 82 83 83 81 83 80 81 78 76 78 77 77 77 73 72 72 72 72 70 69 69 71 62
33 73 79 88 90 91 93 89 88 83 83 86 83 87 85 82 82 85 85 84 87 87 82 81 80 82 81 81 85 78 75 77 76 72 66 66 68 72 72 70 71 68 66
28 41 72 79 80 85 83 83 82 83 82 80 86 90 88 89 89 90 91 91 92 91 88 87 88 88 88 89 88 85 79 56 55 66 66 66 64 63 64 66 66 65 68
37 38 46 65 84 86 86 90 92 90 90 93 97 98 100 97 99 100 100 99 100 100 99 97 99 99 98 94 98 90 87 61 61 62 67 63 61 60 62 64 67 69 68
43 43 46 45 58 68 79 81 81 78 76 69 72 71 72 76 76 71 80 95 99 99 99 99 99 100 100 99 100 98 99 93 88 82 72 67 66 67 67 71 71 69 66
49 46 50 53 52 48 48 49 50 48 46 48 46 46 47 44 43 43 45 51 65 83 78 91 100 99 100 100 100 97 97 100 98 98 91 80 84 77 80 77 71 70 71
58 47 52 56 57 47 46 46 50 50 49 51 55 54 58 63 68 58 60 64 68 82 92 92 95 98 99 99 98 100 99 96 92 96 95 88 88 76 74 73 74 77 79

GFSSE_925_rhum_063.txt.gz
RH
63 87 78 82 82 80 85 88 89 90 95 97 82 82 77 96 97 88 84 87 87 85 97 95 93 94 92 92 94 92 76 57 58 63 50 60 83 77 87 87 81 81 91
59 81 84 85 87 84 86 88 88 90 88 91 80 94 98 97 91 88 85 88 84 86 84 89 88 94 95 95 95 84 85 65 69 77 80 69 85 95 82 80 82 94 94
59 77 91 82 82 83 87 90 88 89 89 92 78 93 94 93 96 88 85 90 86 85 82 80 87 96 96 88 77 63 57 66 75 74 76 73 90 98 96 79 84 96 92
58 75 80 83 84 87 89 90 87 86 80 77 74 89 98 97 97 89 84 89 92 94 95 93 97 92 85 79 72 65 48 74 74 77 75 69 84 99 98 97 89 96 96
56 65 84 82 82 87 87 85 84 81 66 64 63 83 98 96 88 90 88 93 94 95 97 96 91 86 75 73 72 63 52 69 66 63 77 84 90 98 99 87 98 96 92
53 58 79 82 84 86 82 82 84 71 64 55 51 77 95 95 92 77 70 85 96 97 96 94 87 78 71 72 68 59 57 59 61 62 64 77 80 94 93 92 87 84 89
50 66 81 83 84 84 83 84 78 62 58 47 64 64 89 96 82 78 61 74 83 92 93 92 77 70 67 66 66 62 58 55 53 58 62 69 86 87 90 92 82 76 82
51 67 82 85 83 82 86 83 70 64 49 80 81 70 86 88 74 80 76 63 80 79 73 67 65 66 67 64 65 64 60 60 50 53 56 69 86 88 76 58 52 44 59
52 64 76 87 91 84 87 82 70 61 51 85 87 78 88 78 74 81 81 75 62 69 65 61 59 61 64 64 63 65 63 54 52 52 43 61 81 91 76 66 70 60 37
53 76 69 80 84 88 96 80 72 71 53 81 87 84 83 80 80 85 88 79 64 57 58 55 55 54 54 57 60 60 58 52 49 47 46 42 75 93 86 79 76 71 45
60 77 77 75 75 79 83 82 74 76 71 55 80 79 72 70 79 75 92 82 74 61 60 58 55 50 48 50 51 54 53 48 43 42 43 42 51 83 98 87 79 74 56
77 70 80 78 78 78 85 88 83 80 80 76 65 58 57 55 61 64 81 75 69 68 60 59 55 51 46 53 55 48 52 46 42 41 42 40 40 69 92 97 80 71 63
68 74 75 78 77 79 84 81 87 74 80 72 68 66 53 52 60 60 66 73 78 65 81 69 70 68 54 49 45 42 42 42 39 38 38 38 36 54 91 92 86 75 70
57 65 66 74 76 78 77 81 84 73 74 67 68 68 65 64 66 55 53 56 63 65 62 65 61 61 64 62 50 44 42 43 42 39 39 40 37 39 91 96 91 84 78
65 63 63 68 71 67 69 76 78 71 63 62 66 71 68 67 71 66 56 50 51 52 55 57 60 58 60 58 57 56 53 51 49 46 45 44 46 39 44 92 98 96 89
72 66 65 67 69 62 72 72 69 58 58 59 62 68 72 68 69 69 64 61 53 52 55 57 61 65 66 64 64 61 59 61 62 59 54 52 53 55 44 44 77 95 98
71 70 71 72 72 72 76 77 73 60 59 59 61 66 70 71 68 67 64 63 64 61 59 60 64 67 68 68 67 66 64 63 64 64 63 61 59 60 62 54 43 70 92
66 73 73 72 71 67 69 74 66 61 61 62 62 65 71 72 71 71 68 68 69 68 70 69 68 68 68 67 65 62 61 63 67 68 69 69 67 65 63 64 64 50 68
64 70 76 78 78 74 67 66 67 68 67 63 63 66 70 72 71 74 72 71 71 73 72 73 71 69 68 66 66 66 66 68 68 69 68 68 69 70 69 66 65 66 60
60 66 73 80 80 80 79 75 74 71 70 69 65 66 68 69 71 73 72 72 72 72 74 73 73 73 74 73 73 72 70 72 72 71 68 63 64 68 71 69 70 70 71
48 62 70 79 84 83 86 83 80 78 76 73 69 71 73 72 73 76 78 75 75 77 75 73 73 73 75 78 79 78 76 72 70 68 66 62 60 64 68 70 71 70 69
27 48 64 71 80 82 84 87 82 80 75 71 75 78 79 79 81 81 81 80 78 80 81 78 76 77 79 79 88 84 86 67 56 56 61 62 64 62 62 64 66 65 64
30 29 48 65 71 75 81 81 82 84 87 87 83 85 87 90 91 92 91 91 92 92 90 88 89 90 95 89 88 91 88 71 59 60 64 64 62 61 60 63 65 67 69
35 40 38 46 64 77 82 83 86 81 76 72 71 80 89 80 80 79 85 95 99 99 99 99 99 99 100 99 97 94 88 93 92 85 61 68 65 62 64 69 70 68 69
38 48 46 47 49 56 65 77 78 77 70 61 55 54 51 55 49 51 50 58 62 70 81 86 91 94 93 94 92 90 93 96 98 97 88 77 75 79 76 76 72 70 69
45 52 53 50 50 52 52 53 53 50 46 49 50 50 50 54 64 69 60 66 72 77 85 87 88 91 94 95 91 90 89 92 97 99 98 89 84 80 71 67 73 77 79

GFSSE_925_rhum_066.txt.gz
RH
92 71 69 83 82 86 87 87 89 92 94 92 93 92 97 95 85 83 90 88 94 95 94 91 92 94 94 92 91 67 56 73 75 56 62 85 93 97 85 85 86 94 96
87 78 70 77 80 83 86 88 89 86 86 80 96 99 97 92 84 85 89 93 88 96 93 90 92 94 93 91 87 65 64 77 79 80 81 82 93 77 72 76 88 96 91
85 86 78 76 81 86 87 88 87 86 82 71 96 97 94 95 84 84 93 85 82 82 85 86 91 95 92 78 55 55 74 78 77 73 82 90 94 95 91 75 86 96 97
84 86 89 83 86 88 89 87 85 82 68 68 97 97 96 92 84 88 90 93 92 85 85 92 96 93 84 72 46 72 77 73 69 77 77 84 89 97 100 96 96 99 94
80 84 88 84 86 88 86 82 82 68 62 62 92 96 94 94 86 88 92 95 97 98 96 97 92 76 75 68 49 64 63 64 69 66 70 74 78 92 99 91 86 85 86
70 76 78 85 87 88 84 84 76 67 58 55 84 94 94 86 75 85 92 95 94 94 95 84 68 64 66 58 53 56 56 60 63 72 77 75 79 92 94 88 71 76 72
75 80 76 84 88 86 85 84 73 61 51 49 75 92 90 82 73 51 68 70 77 73 68 67 67 66 65 65 58 50 52 54 58 61 65 64 77 85 78 66 65 68 66
76 84 76 83 85 84 87 82 67 54 69 77 64 82 96 78 76 65 63 76 69 68 65 63 63 65 62 62 61 54 57 55 52 50 57 65 71 86 80 70 64 51 61
72 80 90 87 84 83 86 75 64 53 87 85 69 82 81 76 76 75 63 60 66 58 51 50 56 60 60 59 57 55 48 52 52 46 56 53 73 84 79 78 75 60 44
68 70 78 89 87 89 88 72 66 51 84 85 81 90 84 78 76 78 75 63 51 52 52 50 50 50 50 52 53 52 48 49 47 44 46 42 65 91 87 81 78 66 50
70 65 79 83 86 88 89 75 72 62 55 84 85 84 80 78 79 76 91 73 58 49 50 50 49 46 44 46 44 43 48 48 44 41 43 45 39 74 95 88 84 72 59
73 65 72 79 77 86 77 74 72 75 64 54 68 73 56 74 77 79 80 75 61 55 48 49 47 43 48 52 50 47 48 47 43 40 41 42 34 52 88 83 80 79 65
72 71 79 76 71 84 84 76 75 72 78 70 64 49 55 54 61 68 63 54 52 54 52 64 61 61 56 51 46 43 42 40 40 38 38 39 38 36 63 86 88 84 73
71 78 73 74 74 81 87 84 76 72 70 70 69 66 58 55 56 53 61 60 66 73 69 73 67 65 64 64 58 47 44 43 44 42 41 41 42 40 45 75 84 84 81
69 69 71 77 74 74 77 82 80 69 69 69 66 69 68 66 68 64 55 53 57 58 57 60 62 60 59 60 58 58 56 54 53 50 47 47 47 50 45 64 94 95 90
70 71 72 71 76 74 72 70 78 64 68 61 65 69 70 69 70 71 63 56 50 51 54 56 57 63 66 65 65 64 61 60 62 63 60 55 54 56 57 49 59 94 96
72 72 69 70 64 63 65 72 71 70 59 59 60 65 70 70 69 68 66 64 64 59 56 57 61 64 66 68 68 68 67 65 64 65 65 65 64 62 62 63 60 59 89
71 71 70 71 74 74 69 74 67 61 59 60 60 63 68 71 71 69 68 66 67 67 67 67 67 68 69 69 68 66 64 63 64 67 68 69 70 69 67 66 65 65 66
65 70 73 73 74 71 70 72 72 69 63 61 62 63 68 72 72 72 73 71 71 72 71 72 73 72 71 69 65 64 66 66 67 69 70 70 68 67 68 71 71 67 66
63 68 74 76 76 72 67 68 67 66 66 66 64 65 67 72 73 72 73 73 72 70 70 72 73 72 74 75 75 74 72 71 72 72 72 72 68 65 64 70 72 70 71
58 64 72 79 80 79 78 75 75 73 72 70 68 66 67 69 70 72 75 74 72 72 72 72 74 73 69 68 74 80 77 77 75 74 71 70 63 63 64 63 68 71 71
38 62 67 77 83 82 83 82 80 80 78 76 73 70 72 73 75 76 78 79 76 76 75 78 80 81 77 75 82 88 91 72 63 61 64 67 62 63 62 63 63 67 66
27 34 65 72 79 84 84 86 84 82 82 79 78 79 80 81 80 81 82 82 82 80 81 83 85 88 87 85 82 86 96 90 77 61 64 61 63 63 62 61 62 66 68
29 28 31 62 73 79 82 84 86 85 84 81 78 80 82 87 88 88 90 92 93 90 88 89 88 88 95 100 97 92 85 85 93 88 63 66 67 67 63 68 70 69 68
35 32 31 40 65 76 82 81 84 85 79 74 71 82 82 76 61 56 55 53 59 65 73 84 86 91 89 90 84 81 88 78 76 97 91 78 72 75 77 72 74 70 71
35 40 38 38 43 58 74 83 83 80 75 60 57 53 49 50 53 53 52 53 60 66 72 80 87 89 90 93 88 87 82 82 92 87 97 90 87 81 77 76 74 72 74

GFSSE_925_rhum_069.txt.gz
RH
86 78 82 80 82 85 86 88 92 88 93 91 97 97 91 85 86 93 95 93 91 90 90 93 92 92 91 80 65 78 79 76 83 87 86 88 94 96 96 88 93 86 96
79 78 77 79 86 87 87 88 87 82 84 90 99 95 88 82 85 91 92 96 96 94 93 87 91 89 85 60 75 79 80 81 85 93 88 91 85 90 83 80 83 98 97
73 75 79 81 85 85 87 87 84 79 77 97 94 94 86 84 90 84 85 96 96 93 91 89 92 90 54 60 76 79 74 76 87 91 91 92 96 88 97 94 96 94 98
71 73 84 83 85 87 88 85 83 75 82 90 90 97 88 87 90 92 87 86 82 80 90 93 94 67 43 67 79 73 69 79 82 86 82 78 91 94 89 85 95 94 89
77 76 82 84 86 88 87 83 71 63 76 94 88 91 90 88 90 92 92 95 86 92 92 93 68 58 43 66 66 62 70 72 74 70 67 66 71 92 97 72 64 71 83
86 79 85 86 89 87 84 80 59 60 64 93 91 91 91 87 92 94 96 94 94 96 94 72 62 56 46 48 58 59 62 68 76 73 73 53 78 90 83 68 64 73 81
89 81 85 87 88 84 86 77 64 55 56 90 93 90 81 65 71 82 90 93 95 93 77 67 62 61 53 48 51 55 56 58 61 60 60 45 70 88 81 70 68 77 82
84 80 85 87 85 86 85 71 63 54 51 84 92 90 77 70 46 51 65 77 80 69 64 64 60 58 57 54 49 56 56 52 51 53 60 55 65 83 84 73 64 67 74
78 79 89 90 84 85 81 69 56 79 71 66 86 87 76 73 65 45 59 60 57 53 53 55 56 55 53 52 49 49 53 50 49 49 48 41 73 84 82 80 72 63 62
78 76 86 90 85 86 77 62 57 86 88 72 84 91 80 76 71 64 50 52 53 48 48 47 47 48 47 47 47 44 49 48 47 47 46 43 50 86 84 85 82 63 53
77 82 82 87 87 87 74 67 52 82 84 80 88 88 79 76 71 63 62 54 45 46 46 45 44 42 41 46 42 41 49 47 43 42 44 44 35 60 88 84 82 78 60
84 80 76 80 82 87 75 71 68 49 74 80 82 84 76 81 80 75 76 68 54 42 44 44 43 40 51 51 50 46 48 46 44 41 39 40 38 37 72 91 87 84 69
74 73 76 75 74 82 76 72 72 73 56 53 54 54 67 74 83 76 69 58 52 46 38 58 56 56 54 51 46 43 42 41 39 39 38 39 40 39 39 73 88 87 77
68 70 73 71 70 80 76 70 71 73 75 71 68 52 59 62 56 58 58 61 62 67 64 70 67 67 64 62 60 53 48 44 45 45 43 43 43 44 44 55 76 85 84
71 77 77 72 65 75 81 74 73 70 71 71 69 68 57 60 60 57 58 61 61 62 61 64 66 64 64 61 61 60 59 58 56 55 52 48 50 50 52 54 96 94 93
72 66 75 71 63 66 79 76 70 68 67 68 71 68 68 68 69 64 61 54 53 56 57 57 60 59 64 66 65 66 66 62 62 63 64 63 60 59 58 59 56 90 97
76 68 68 72 69 68 68 71 68 61 65 68 68 64 70 70 70 70 67 64 58 52 53 56 58 62 66 68 68 68 68 68 67 66 66 66 67 67 68 66 64 62 80
75 71 73 72 72 68 72 61 61 61 72 68 62 64 70 70 71 71 69 67 66 67 65 61 61 64 68 70 70 69 68 66 63 64 66 69 70 71 71 71 70 68 67
70 72 70 70 68 69 66 64 62 61 68 62 61 64 67 70 72 70 71 69 68 70 71 71 73 73 74 72 66 66 65 68 66 70 70 70 72 72 65 60 66 71 71
68 69 68 68 71 66 66 70 66 71 68 62 61 63 67 71 73 73 73 75 73 72 69 70 69 68 68 66 69 63 63 64 70 70 72 73 73 73 68 65 69 71 70
66 69 71 75 75 76 74 76 72 72 69 66 64 65 67 69 73 74 73 75 72 69 68 68 70 74 75 68 70 73 73 70 67 61 59 68 75 68 65 67 65 65 72
60 65 63 70 73 73 73 72 72 69 70 70 67 68 68 67 70 72 73 75 73 71 72 73 74 72 68 64 69 76 90 74 62 64 61 63 74 65 64 63 63 65 68
55 66 68 70 68 76 74 74 77 74 76 77 76 74 73 72 74 76 77 77 78 77 75 74 77 74 80 73 75 80 93 94 83 64 64 67 64 62 63 62 62 64 67
35 55 68 73 66 77 79 73 74 81 84 80 78 78 81 81 77 81 82 83 84 84 83 83 83 86 92 94 94 82 90 93 93 90 69 67 70 68 67 64 66 70 70
29 31 46 71 76 72 75 80 74 70 78 74 84 83 85 85 84 89 88 88 83 82 80 74 76 85 89 93 93 93 83 78 83 90 92 81 66 74 78 74 74 72 70
34 33 34 44 73 84 64 77 76 74 85 80 80 84 87 83 73 50 45 47 49 55 64 68 75 82 86 89 91 89 83 86 88 93 94 85 81 71 84 83 77 73 74

GFSSE_925_rhum_072.txt.gz
RH
82 86 85 90 87 88 90 96 96 95 88 97 97 87 85 97 98 97 98 90 88 93 89 92 88 82 90 96 96 92 94 93 90 84 86 89 94 96 95 83 96 96 94
85 86 85 88 91 91 88 88 81 70 93 96 92 85 84 91 97 92 97 96 92 87 91 87 87 92 96 96 81 80 82 90 89 90 91 82 88 96 97 95 92 95 98
92 87 84 87 88 87 88 85 75 84 94 85 92 84 86 86 92 96 97 97 94 91 92 89 87 88 80 78 77 87 86 85 90 88 90 88 92 96 97 92 89 97 92
90 88 87 86 87 86 87 90 74 95 86 88 93 85 89 84 85 90 93 93 96 94 94 82 70 72 79 74 71 75 81 82 85 81 74 86 86 93 90 97 100 97 93
90 88 87 84 86 86 87 88 77 95 83 88 85 88 89 92 86 89 86 88 88 93 91 57 52 75 75 65 70 76 80 76 75 68 57 60 82 93 87 65 58 85 97
91 90 85 85 86 87 84 78 76 93 94 94 84 89 92 91 92 95 94 84 89 94 70 56 46 62 65 61 64 68 78 78 71 63 41 59 77 83 76 73 76 79 83
89 87 86 88 88 85 83 69 77 94 92 92 90 93 92 94 94 96 95 95 96 94 68 57 46 45 54 56 58 60 62 63 57 59 44 56 84 92 84 78 76 82 85
85 89 88 89 86 85 74 69 68 79 92 92 91 86 92 95 95 94 96 99 96 94 70 57 53 48 42 48 53 53 54 51 50 55 49 55 68 92 83 64 62 68 78
82 88 90 90 87 86 71 62 61 64 90 97 86 74 66 49 65 84 90 91 87 66 63 57 53 50 48 46 53 54 52 50 49 50 45 49 73 85 79 79 67 55 60
76 80 91 90 88 87 70 53 56 58 83 90 92 76 74 64 47 56 60 57 52 50 50 50 49 48 47 46 45 52 50 49 48 47 46 44 51 79 82 86 84 68 54
95 85 87 89 90 83 67 57 81 81 70 89 100 79 77 70 65 52 47 52 52 50 48 47 44 42 41 41 41 46 48 47 44 43 44 43 38 50 77 84 84 82 62
90 96 87 86 89 81 66 57 83 84 76 83 95 81 79 75 71 62 60 53 44 45 44 44 43 41 48 48 46 48 49 47 45 43 41 41 40 39 56 87 85 85 73
81 79 87 79 84 81 72 64 54 81 80 81 89 84 78 80 79 74 71 60 53 46 44 45 46 46 51 48 45 42 42 42 42 40 40 40 41 42 42 71 86 85 80
63 78 75 79 76 81 73 72 72 54 62 70 77 74 74 74 79 74 65 59 46 46 44 66 67 65 64 63 62 56 52 48 45 48 46 45 45 46 49 54 68 78 86
85 81 75 74 81 74 74 71 71 71 67 68 61 50 60 63 62 60 60 63 62 68 63 68 67 68 66 63 64 63 61 61 60 61 60 56 52 53 53 57 86 95 97
77 79 66 71 71 72 76 72 72 69 69 72 71 67 61 58 60 57 58 60 60 61 62 61 62 64 63 66 67 66 68 68 66 64 65 65 65 64 65 64 62 74 91
74 70 73 73 70 72 73 74 73 64 69 73 74 71 65 69 69 70 64 61 55 54 55 59 59 60 65 70 71 70 69 70 70 69 68 67 67 68 68 70 70 68 68
70 68 66 68 70 74 76 74 67 65 64 69 71 74 68 70 71 72 69 67 64 60 56 56 58 62 65 68 70 71 70 65 62 60 64 66 68 71 71 70 75 64 68
68 68 70 70 70 74 76 68 65 65 68 67 69 69 70 69 72 72 71 70 68 68 68 67 69 72 73 72 68 62 62 63 64 64 62 65 72 74 74 70 70 69 70
72 72 70 66 68 71 68 68 67 62 72 71 66 64 62 68 71 72 72 72 71 71 73 71 68 68 66 68 68 63 61 61 62 62 66 65 70 77 76 72 67 72 74
71 67 66 74 70 69 68 65 71 71 75 66 62 66 67 69 71 74 74 73 76 74 69 68 69 71 72 65 66 64 62 64 66 62 63 63 66 70 78 68 69 68 67
64 68 69 65 67 70 70 69 69 72 74 71 59 64 65 68 65 70 75 74 75 74 69 71 74 76 75 67 67 72 90 76 67 64 67 66 63 72 69 67 65 62 62
72 64 59 62 65 68 72 69 77 77 76 73 70 68 69 66 68 70 70 74 75 74 72 74 73 77 79 72 68 85 89 96 87 65 66 68 70 67 66 63 64 64 64
43 67 64 59 61 63 67 78 76 76 81 74 70 68 72 77 74 72 76 74 77 76 79 79 79 86 89 90 91 90 93 97 97 91 72 72 73 70 67 66 66 67 69
33 54 66 65 57 65 74 74 69 76 70 65 64 63 76 83 81 84 81 80 83 82 82 88 91 84 82 86 92 92 89 85 84 98 88 80 75 73 77 72 73 74 74
34 36 44 71 66 68 71 65 60 59 63 67 79 83 80 84 80 88 87 88 86 73 56 50 50 59 68 77 82 88 94 87 87 94 99 93 87 78 83 85 80 78 77

GFSSE_925_rhum_075.txt.gz
RH
87 86 83 94 95 96 96 96 96 91 94 94 90 98 96 94 94 97 97 89 92 94 89 81 90 90 92 96 98 98 96 94 79 84 84 80 90 91 95 90 92 92 85
91 87 86 91 94 95 95 94 88 85 97 95 86 93 98 96 98 97 92 92 91 91 89 87 90 94 98 99 96 84 86 84 84 76 75 97 96 97 96 94 90 92 94
86 86 90 89 89 88 92 90 70 98 92 88 86 87 96 97 96 98 89 90 91 89 88 92 96 97 96 96 90 82 83 82 82 86 86 91 94 99 100 90 91 87 88
89 90 90 88 89 91 90 79 86 98 85 90 85 86 91 97 97 99 97 95 93 92 91 94 86 82 82 76 79 79 81 81 79 70 73 82 87 96 94 94 93 95 89
92 89 88 88 89 90 90 74 93 94 91 91 89 88 86 91 97 92 92 95 96 93 81 76 79 74 72 77 81 78 77 76 71 58 54 70 70 79 80 71 67 90 94
86 86 89 86 85 86 86 86 95 95 96 91 92 94 88 86 86 89 92 93 92 60 51 73 77 67 70 75 79 79 78 72 58 39 48 66 79 85 81 78 81 85 92
83 86 88 85 87 88 84 81 94 89 96 96 92 92 92 92 96 93 93 78 72 50 46 62 69 65 63 64 64 67 66 59 55 46 52 65 87 91 84 80 80 85 87
89 86 88 87 87 86 73 71 95 90 93 94 94 93 93 95 96 98 94 96 95 60 49 45 49 57 57 58 57 54 52 50 53 46 51 59 82 96 85 69 59 72 82
85 87 90 90 88 81 66 66 82 95 90 83 80 87 93 93 94 98 98 95 96 64 53 51 48 46 46 52 56 53 50 48 50 48 47 52 74 89 83 82 77 55 54
72 80 92 92 90 81 69 61 62 92 97 85 77 69 56 57 69 84 85 81 63 58 54 52 50 49 49 49 55 55 51 49 48 46 46 44 51 74 77 77 76 76 56
75 75 86 90 90 80 65 57 58 82 96 95 79 72 67 55 54 55 54 52 50 49 49 49 47 47 46 48 49 52 51 49 44 44 44 44 42 54 71 74 78 80 69
85 89 94 88 85 80 65 59 69 69 94 100 87 78 72 69 56 49 50 50 49 47 47 47 46 43 46 45 44 48 51 48 45 44 42 42 42 46 56 82 76 85 79
86 98 99 91 87 78 60 64 87 86 81 97 97 81 80 76 73 66 64 59 52 50 48 48 46 43 49 48 46 44 43 43 43 42 41 41 43 45 50 61 73 79 82
55 76 87 86 91 79 65 57 81 87 84 90 97 86 80 79 80 76 75 68 59 53 47 51 53 54 59 63 61 55 53 53 48 48 50 48 46 47 50 56 72 69 78
74 35 57 71 81 85 73 67 58 67 83 85 91 87 74 78 75 75 73 66 60 54 55 65 71 71 69 67 66 65 64 63 62 61 64 63 59 54 56 56 71 86 96
75 55 51 71 70 80 84 72 70 66 52 61 66 66 61 61 60 61 60 62 64 65 66 66 68 68 67 66 68 69 68 69 70 69 68 67 67 66 65 65 66 72 78
70 43 41 72 68 75 85 78 69 71 68 66 69 65 56 60 60 63 60 60 59 60 62 63 62 62 63 68 73 73 72 71 71 70 66 67 68 67 68 69 66 71 66
86 77 61 62 74 60 75 81 78 73 70 70 71 74 72 66 65 69 70 66 63 57 56 56 58 61 64 68 68 71 72 69 64 62 58 58 60 62 71 76 75 71 65
67 73 84 72 72 65 65 76 82 75 75 68 68 73 74 71 69 72 73 71 69 68 65 62 62 64 70 72 70 66 62 61 61 60 61 62 63 66 71 77 76 74 72
66 67 71 72 71 74 68 73 71 76 77 66 68 71 73 71 71 72 73 73 72 71 70 71 71 70 70 68 68 65 61 64 63 61 65 64 67 70 74 78 75 71 70
81 77 70 66 68 72 73 79 78 77 78 71 74 72 67 73 69 73 74 74 73 73 71 73 73 70 69 67 75 65 61 61 63 61 62 65 68 72 68 70 76 71 74
73 72 72 68 68 65 68 84 83 73 77 66 73 65 60 66 70 72 73 75 74 77 77 74 72 73 74 74 77 80 92 75 67 66 66 65 66 65 74 72 72 69 65
64 75 73 61 65 68 79 80 76 68 68 76 76 70 66 66 69 71 71 72 75 77 77 73 71 75 77 74 76 74 88 93 92 71 67 67 68 70 70 71 68 66 65
36 52 65 61 61 58 62 75 70 60 74 62 70 76 73 70 69 72 72 72 72 76 80 76 77 74 75 81 89 90 90 96 96 93 74 73 74 73 69 68 68 68 69
35 35 52 66 64 67 62 69 79 80 69 61 63 65 69 72 83 74 77 71 71 68 69 64 76 81 88 92 87 86 89 86 88 100 94 82 77 76 77 74 71 72 74
39 38 43 60 61 68 80 73 62 61 64 62 65 77 81 80 86 90 76 63 58 65 69 75 85 74 62 61 69 75 88 88 85 93 100 96 93 88 90 88 81 79 78

GFSSE_925_rhum_078.txt.gz
RH
86 84 90 92 93 97 91 96 95 90 96 97 95 94 92 92 96 98 95 91 92 86 87 86 86 90 93 96 99 99 98 89 82 73 79 89 98 98 96 87 87 87 84
85 85 88 90 94 94 95 96 86 91 80 92 97 95 96 96 97 97 88 91 88 86 87 86 93 93 94 99 100 99 82 72 72 91 97 97 92 94 96 87 80 89 92
90 86 91 88 88 88 94 87 81 95 83 79 97 96 96 98 97 88 94 90 89 88 86 90 89 96 96 93 81 84 76 72 73 82 86 88 91 93 93 85 80 81 79
90 88 92 89 88 90 93 70 95 97 85 84 92 97 92 96 98 94 92 92 90 91 96 99 99 88 74 78 80 83 77 63 58 63 68 66 75 87 90 93 92 90 84
90 91 91 88 85 92 85 83 97 94 91 87 88 92 92 93 98 98 97 94 94 97 98 96 79 74 77 79 79 77 70 66 47 47 59 53 65 80 81 81 82 92 91
94 88 90 87 87 86 74 87 98 96 93 91 85 88 97 97 98 89 98 96 96 93 92 83 73 76 78 79 77 75 68 53 38 45 58 71 78 85 82 84 87 89 92
90 87 88 87 89 87 70 94 89 93 94 93 96 84 91 92 92 98 94 97 90 84 84 78 70 73 74 77 78 70 59 56 43 50 60 73 90 88 81 73 78 83 88
84 85 88 87 88 84 72 95 90 86 96 94 93 91 85 84 93 95 89 96 84 72 78 75 68 66 65 63 63 59 53 53 47 48 59 68 91 96 82 76 61 69 80
79 87 86 90 91 78 60 86 92 90 86 92 91 92 92 96 89 96 95 95 70 49 51 58 60 60 62 58 55 53 49 51 49 47 49 57 76 96 86 76 77 64 66
77 81 87 92 87 74 54 62 96 95 86 71 84 88 89 94 96 91 87 87 62 54 53 52 50 50 53 59 57 53 49 48 48 45 46 47 57 83 75 77 77 77 62
77 79 84 90 86 74 63 54 87 100 91 77 73 73 85 88 92 93 83 82 62 60 56 54 53 52 51 50 53 53 51 48 45 44 44 44 43 76 81 71 75 79 72
77 80 82 86 84 78 60 53 63 98 99 89 79 70 63 70 69 68 69 60 58 54 53 51 50 49 46 46 46 49 53 50 45 44 43 43 44 57 68 79 69 74 74
61 83 89 91 89 82 64 50 56 81 99 94 84 77 72 69 62 62 60 58 54 52 50 49 47 44 49 51 50 48 46 44 44 44 43 44 44 48 59 62 74 74 72
80 86 99 98 86 85 68 52 60 62 90 99 96 84 82 78 74 65 61 58 54 49 48 49 48 47 52 61 60 57 53 56 56 54 54 54 52 49 52 57 66 75 77
71 75 63 71 89 86 73 61 79 81 73 82 98 92 84 80 76 73 77 72 66 60 52 46 58 66 67 67 67 67 66 66 66 66 65 66 67 63 59 61 70 78 92
62 66 60 61 74 72 77 68 68 77 78 79 90 93 87 77 76 76 75 71 67 60 62 59 72 72 71 68 67 70 70 71 71 71 70 68 68 68 67 66 68 77 77
48 60 69 56 44 55 72 76 68 64 65 80 83 86 82 68 65 65 66 62 62 64 68 70 68 66 67 66 69 74 72 72 71 70 68 63 59 63 65 69 73 72 74
65 78 78 71 42 75 71 66 81 79 75 60 57 61 61 53 62 63 66 65 61 62 62 64 65 64 63 65 68 68 72 71 66 62 60 58 61 61 57 68 73 81 78
78 79 85 72 84 56 80 56 58 73 79 81 68 71 71 69 68 65 69 72 69 67 61 59 58 60 63 70 72 72 65 61 60 63 62 62 63 66 68 67 76 78 78
75 62 62 70 54 71 68 69 72 61 69 88 86 80 74 74 73 68 70 75 75 72 70 68 68 68 72 70 70 66 60 61 65 62 62 62 63 64 68 68 70 79 74
72 60 65 63 68 67 67 65 67 77 65 75 84 85 76 72 75 77 71 75 77 75 72 72 73 75 74 66 67 64 65 63 63 62 64 64 62 64 70 71 71 82 76
73 58 67 65 76 77 71 75 64 82 79 84 81 85 78 74 72 75 73 75 76 76 76 75 78 79 70 70 76 79 90 73 63 64 62 62 64 65 66 67 72 79 76
64 81 76 65 68 76 78 77 77 82 84 82 79 87 81 78 76 63 70 79 82 81 79 86 83 81 78 70 70 78 88 91 93 72 70 70 71 70 68 70 74 74 70
38 46 72 71 67 63 66 70 91 85 82 75 63 76 87 83 86 95 78 69 86 83 82 75 75 75 75 77 80 85 89 95 98 96 74 74 73 75 73 71 72 70 70
37 39 46 68 66 64 60 62 65 76 63 75 64 69 68 80 78 82 80 95 78 78 76 71 72 82 88 81 86 96 91 91 92 100 96 86 79 74 80 77 74 72 72
41 40 43 55 71 75 62 58 64 61 58 63 73 72 68 72 70 73 79 90 91 88 79 62 58 59 84 81 74 73 80 83 84 91 98 96 94 84 83 82 84 80 79

GFSSE_925_rhum_081.txt.gz
RH
91 89 86 92 97 96 95 94 95 92 92 89 95 96 93 82 92 92 98 92 88 88 86 85 91 85 85 93 98 98 95 86 77 80 94 91 96 96 93 72 82 80 92
92 94 89 90 96 91 96 95 81 90 89 87 92 95 80 95 99 98 96 90 90 86 85 83 88 87 92 97 97 91 72 84 86 90 91 90 87 95 91 77 78 85 88
95 95 95 89 89 89 93 88 84 74 90 92 92 92 96 97 97 94 91 91 87 85 86 90 88 94 96 94 80 75 71 77 80 84 83 88 86 91 81 76 78 74 85
97 98 97 89 86 86 91 85 93 73 77 95 94 95 95 96 94 95 92 90 87 88 89 89 93 91 82 81 83 71 61 61 63 63 71 70 68 84 89 92 91 86 83
100 98 98 88 88 87 77 89 97 81 78 90 94 89 94 94 91 93 92 90 90 95 97 98 87 83 86 87 94 70 58 45 51 46 49 71 75 82 85 79 91 91 90
97 96 91 87 89 81 63 95 95 80 90 79 94 89 90 93 94 94 95 92 91 99 99 84 78 84 83 86 79 66 45 41 42 56 78 80 81 86 86 88 88 88 91
90 88 93 86 86 73 76 95 89 86 91 90 93 94 94 96 94 97 95 94 95 95 92 75 78 81 82 80 70 57 51 42 46 56 70 92 89 92 88 84 88 88 90
87 90 88 87 84 70 78 95 85 82 92 94 85 96 96 86 92 100 95 94 96 97 87 75 73 70 69 72 66 54 54 46 46 56 66 93 94 96 90 78 76 82 82
80 86 88 86 83 74 87 90 89 78 82 87 86 81 87 91 94 97 95 95 96 98 89 77 69 66 62 57 54 50 51 53 48 50 54 72 90 96 84 75 75 67 64
84 82 88 85 87 78 82 90 91 87 72 83 85 87 87 89 92 94 99 96 92 71 70 67 64 60 59 58 56 52 51 50 50 48 48 52 66 87 71 73 74 73 64
86 87 84 83 83 72 59 93 92 93 81 66 85 87 92 95 96 96 94 95 78 59 58 59 59 60 57 58 56 53 51 49 46 46 44 45 48 83 83 72 71 75 72
65 70 84 81 80 66 56 71 94 93 91 75 68 79 86 89 90 85 83 77 68 63 59 59 56 53 52 51 49 49 52 48 44 44 43 43 45 58 74 74 71 72 73
72 60 77 83 81 76 60 57 86 99 90 87 75 62 69 77 79 77 72 66 60 58 54 52 50 47 46 49 50 49 48 44 44 46 46 46 46 49 62 64 69 74 71
61 59 81 99 94 88 66 55 59 92 97 86 84 75 67 67 66 64 61 58 57 56 53 51 49 46 50 53 54 53 50 56 59 58 60 60 58 55 54 63 72 87 77
54 58 84 77 84 99 80 56 55 68 92 91 87 80 76 73 64 60 57 59 57 54 50 49 50 52 55 64 67 66 66 67 67 67 66 67 68 67 65 63 66 81 81
47 47 64 67 57 82 88 66 59 59 69 89 91 92 80 77 73 67 72 74 69 61 54 50 59 71 73 71 68 68 70 71 72 71 71 68 68 69 68 67 65 71 83
50 52 64 60 62 74 82 77 75 84 83 78 82 92 93 84 75 76 77 74 68 66 63 67 68 74 71 71 68 70 73 71 70 69 68 65 61 62 60 61 67 72 76
73 82 60 54 52 75 73 73 71 77 84 89 83 86 93 87 73 73 69 69 63 67 68 70 70 69 65 64 66 68 70 72 67 64 64 62 62 61 62 62 64 72 76
68 67 52 47 57 75 77 64 62 70 65 68 78 91 88 82 72 66 66 68 70 66 66 66 66 65 62 63 68 71 71 68 65 64 64 64 65 64 67 65 66 73 78
71 64 47 47 59 80 84 57 60 82 80 78 78 67 72 71 64 62 67 69 72 72 71 66 62 61 64 73 74 70 65 63 65 62 63 64 65 62 63 67 70 70 73
77 81 80 88 86 71 73 72 82 92 80 77 79 88 83 80 76 73 72 68 72 77 73 69 70 71 72 74 74 71 67 63 63 65 63 66 62 57 64 73 76 69 74
83 75 72 70 63 74 71 80 87 75 66 80 79 79 72 79 85 91 82 74 71 78 79 76 75 78 79 75 73 78 70 65 69 64 63 65 65 66 66 66 65 68 73
82 89 69 64 71 75 71 71 86 84 86 80 84 80 73 77 92 98 98 96 80 83 83 78 78 82 79 80 72 70 76 72 79 71 70 69 73 72 70 71 74 78 80
71 70 67 66 68 78 69 79 94 94 84 84 86 84 90 82 94 98 100 100 100 97 99 98 91 76 71 75 84 81 71 83 74 76 76 75 70 73 74 72 72 74 74
46 44 50 61 58 62 68 78 71 79 71 85 89 89 90 96 94 89 89 90 97 96 99 92 79 76 72 74 89 92 94 93 99 91 72 75 80 73 70 76 77 74 75
47 46 49 59 76 75 62 60 60 62 79 83 89 96 80 80 91 96 87 78 84 90 87 88 75 73 74 82 78 81 74 77 80 90 89 81 87 86 81 76 76 82 81

GFSSE_925_rhum_084.txt.gz
RH
68 77 88 93 96 95 96 89 90 84 76 92 90 90 74 74 83 95 98 93 87 87 85 86 93 94 96 98 98 91 94 99 94 89 92 91 93 89 82 78 74 81 96
65 76 87 91 95 95 96 90 84 88 80 86 91 94 96 88 98 98 97 92 90 86 87 87 93 89 90 98 96 97 99 89 88 85 80 79 86 93 95 84 86 94 95
68 76 91 90 90 91 92 80 88 85 84 84 88 93 93 94 98 98 94 90 86 83 84 88 82 87 95 98 95 96 82 84 82 78 66 58 76 84 73 74 79 85 88
72 75 80 90 88 84 84 84 81 85 86 82 88 87 93 95 92 93 92 88 84 83 83 84 90 98 97 93 76 64 59 64 61 55 48 50 55 85 91 90 89 87 86
74 73 78 88 86 86 75 91 65 79 90 87 91 90 94 92 96 93 90 84 82 82 85 91 85 80 78 86 62 54 47 52 46 56 62 63 62 82 87 84 84 90 91
73 73 85 87 87 85 72 92 84 59 85 91 88 88 91 91 96 92 87 84 86 86 94 95 87 84 84 75 62 38 41 48 65 65 68 73 74 87 89 88 88 88 90
72 74 89 86 88 81 77 95 83 61 57 91 89 88 92 89 92 95 88 88 91 92 97 94 86 84 81 74 58 44 42 57 63 69 72 73 84 92 88 89 90 90 90
69 77 80 89 84 66 90 92 75 61 63 86 91 91 95 96 91 96 98 92 97 99 96 85 83 83 83 71 54 52 45 53 61 67 74 74 92 95 93 87 87 89 89
82 81 83 88 86 77 94 91 68 62 81 76 95 98 99 87 90 96 98 98 98 98 89 78 71 68 67 64 53 51 51 50 55 60 63 68 86 95 90 80 78 73 70
98 89 85 87 84 81 96 90 78 69 77 81 84 93 91 89 92 94 98 98 98 95 82 72 66 62 56 54 52 48 48 49 55 60 59 66 70 92 72 72 76 73 67
94 98 95 90 80 71 85 96 89 77 68 85 78 80 85 89 87 90 82 96 94 87 77 68 59 57 58 56 53 49 49 49 51 52 52 44 53 89 80 71 71 74 72
67 78 100 92 87 76 75 98 94 92 82 72 77 83 89 75 72 71 89 95 82 66 64 63 59 54 53 57 58 52 51 51 47 48 49 43 46 60 78 72 74 75 73
58 78 89 94 86 81 71 90 96 94 83 74 72 75 76 79 88 84 85 90 84 70 71 70 69 61 55 51 53 50 52 49 45 47 46 45 46 50 69 70 71 76 75
65 64 88 91 88 84 72 73 92 96 91 87 78 71 75 75 78 74 73 73 72 70 66 63 57 56 56 57 52 49 50 51 51 52 53 59 58 55 55 66 70 77 78
84 72 91 88 100 86 87 68 76 95 95 85 84 73 67 71 77 72 71 71 67 68 63 61 58 54 53 56 62 61 59 60 60 61 62 66 67 68 66 62 66 74 80
81 68 65 66 86 86 94 83 70 79 92 90 86 81 76 71 71 72 69 70 67 67 61 57 54 56 58 64 63 65 66 67 66 66 65 66 67 67 68 68 67 68 76
59 62 66 59 79 72 95 96 74 74 81 95 90 90 84 84 78 76 69 74 75 75 67 65 58 67 71 71 65 64 67 66 66 67 67 66 67 64 61 62 62 66 70
60 64 83 50 72 69 100 90 86 83 82 80 90 93 97 91 90 80 76 76 76 73 73 71 69 71 67 63 60 64 66 67 67 64 64 64 64 67 68 67 65 64 67
60 64 77 80 82 76 98 96 89 91 97 98 91 88 99 100 96 82 74 73 78 73 74 72 72 67 63 60 63 64 67 67 65 63 60 61 66 71 68 68 69 67 68
71 72 70 65 63 77 93 96 97 92 88 86 83 96 96 96 96 88 74 72 78 76 72 72 66 65 60 60 68 67 64 63 62 62 60 62 64 70 68 70 76 76 74
74 68 66 68 67 79 96 100 97 98 96 98 94 85 88 85 82 82 72 73 77 75 73 69 66 66 68 72 76 67 60 62 61 58 60 59 61 63 71 76 80 78 75
85 74 71 74 78 68 76 88 84 87 86 80 93 98 97 95 88 90 84 78 77 81 77 74 70 71 70 78 70 67 56 53 56 58 58 63 62 64 71 74 77 79 82
98 94 81 74 79 73 76 79 75 86 92 94 91 90 97 99 92 96 100 100 96 91 93 87 79 76 79 80 72 61 60 55 54 53 63 64 63 64 69 73 77 82 86
89 88 86 91 93 89 82 83 87 77 88 89 78 79 93 89 89 91 85 92 98 100 99 99 96 98 83 75 79 72 73 65 58 53 59 64 68 58 65 69 73 79 79
91 90 76 74 86 83 86 92 90 86 89 79 88 86 97 77 81 90 96 95 86 98 100 100 100 100 97 93 78 70 73 84 89 78 50 48 62 62 68 70 72 78 82
63 65 75 81 74 79 83 87 97 98 92 98 94 88 86 81 90 89 84 92 95 99 99 93 86 84 92 78 72 77 84 73 63 73 66 52 57 61 74 77 76 80 83

GFSSE_925_rhum_087.txt.gz
RH
61 84 87 92 96 84 74 72 57 56 79 86 89 75 75 76 88 93 98 95 86 86 88 95 97 97 97 98 99 91 92 88 89 88 84 88 92 92 87 80 79 88 96
56 84 85 90 98 96 86 88 70 65 77 87 94 92 90 89 94 97 97 93 88 86 93 96 96 88 85 94 98 98 94 83 78 75 66 69 89 96 92 89 87 93 96
55 78 92 90 93 93 92 87 86 75 78 86 90 93 94 94 94 98 95 91 86 90 87 92 80 88 93 97 100 96 86 79 62 56 54 62 82 90 90 81 85 96 95
63 82 83 90 88 90 84 83 90 86 83 89 88 88 88 96 90 96 93 88 83 80 78 79 84 93 96 96 88 73 74 66 48 48 45 49 58 87 89 88 90 90 84
72 80 80 88 88 88 85 77 86 88 87 88 90 87 90 95 94 94 90 82 78 77 81 84 92 96 96 76 59 49 51 45 54 56 59 62 66 85 86 85 84 87 86
71 72 81 83 85 84 85 69 84 89 87 86 88 87 91 92 94 91 82 79 78 82 88 86 89 89 86 63 41 38 43 61 60 62 66 73 80 88 88 89 89 90 88
69 72 88 79 85 86 78 89 65 81 86 88 87 88 92 91 94 90 81 79 79 84 86 86 86 88 72 55 35 38 54 60 59 64 67 76 89 90 88 91 91 90 89
66 72 85 84 82 84 70 92 77 58 84 87 85 89 91 87 91 84 83 82 82 87 91 90 85 80 68 52 45 40 47 59 56 64 67 81 90 94 91 89 90 91 91
73 81 85 85 92 76 82 92 82 60 60 87 87 91 93 84 89 94 86 83 87 99 93 88 85 84 71 53 48 45 45 54 51 58 60 76 86 93 89 80 75 75 66
71 93 98 90 84 74 97 91 71 70 64 89 90 99 93 86 89 95 94 87 88 94 86 76 70 66 61 51 46 46 44 52 50 56 56 64 66 88 70 71 72 71 68
69 71 82 95 84 65 80 97 77 70 77 84 96 99 92 87 90 91 89 90 89 91 80 72 65 59 55 52 49 46 44 48 48 48 50 44 55 93 74 70 69 70 70
87 70 60 79 85 85 75 98 86 80 78 71 86 91 86 84 76 70 90 94 93 91 80 72 60 55 54 60 51 47 49 46 42 46 46 43 46 64 80 68 73 73 72
82 78 42 57 64 89 81 89 88 75 64 63 61 77 81 67 72 80 92 97 96 74 73 66 58 61 55 47 46 46 44 44 40 43 43 42 45 51 69 72 75 76 76
77 68 79 67 87 96 71 84 90 78 61 60 61 63 71 66 74 72 79 79 74 67 63 66 61 53 50 48 45 44 44 44 44 45 48 54 55 54 57 71 73 77 78
70 82 58 57 66 87 83 67 85 85 76 65 64 65 66 69 75 66 63 62 62 59 57 57 53 49 48 47 46 48 45 48 51 52 56 59 65 66 66 64 68 79 86
65 72 54 82 75 75 95 70 66 82 84 75 70 64 63 66 71 66 61 63 59 58 57 54 51 48 44 46 51 55 55 57 58 58 60 61 64 65 66 67 68 68 75
68 70 84 96 92 92 96 92 73 72 78 79 70 68 61 59 62 60 57 60 62 60 55 52 48 46 51 52 56 54 55 57 60 60 59 61 64 65 62 62 62 64 65
84 73 79 86 83 66 79 83 86 69 72 79 81 74 70 70 69 68 62 64 65 65 65 57 55 53 60 60 57 54 58 60 59 57 58 58 57 59 62 64 67 68 68
80 68 71 85 92 65 59 74 89 74 69 72 80 84 84 77 79 75 74 73 70 68 64 62 61 58 59 57 55 52 57 58 59 58 55 53 54 61 64 67 66 68 69
85 78 67 76 90 67 54 78 91 82 75 79 77 75 82 90 91 87 76 68 66 71 65 64 62 62 58 55 53 56 61 61 59 55 53 52 56 59 61 61 69 70 74
83 78 75 77 84 67 71 90 92 90 81 86 90 94 92 91 88 87 83 68 67 73 71 66 63 60 60 57 59 61 62 58 55 54 52 54 51 56 60 67 73 75 70
93 87 78 77 87 85 73 84 85 89 88 87 90 92 88 90 88 83 82 73 69 75 76 72 66 64 62 64 69 62 68 60 53 54 52 54 53 53 59 67 68 72 77
83 95 86 83 79 80 88 81 92 74 78 88 93 81 86 92 73 86 87 85 80 81 83 88 82 67 68 69 73 65 64 60 50 52 54 57 55 52 56 64 67 76 80
86 96 99 90 95 93 92 95 95 89 90 80 82 93 86 86 83 76 88 96 90 91 94 90 88 97 84 83 80 72 65 64 58 55 60 57 61 54 51 59 65 71 77
93 87 87 94 91 94 90 95 97 93 94 87 91 86 78 80 85 83 87 99 98 99 100 99 98 93 100 99 89 89 83 76 76 70 62 48 60 57 61 62 64 67 76
96 99 95 100 90 94 95 88 92 88 97 89 97 91 81 74 79 76 85 98 93 82 79 95 98 100 93 99 98 89 80 85 91 92 82 57 53 52 60 68 70 70 77

GFSSE_925_rhum_090.txt.gz
RH
83 72 74 79 71 61 55 54 55 78 79 85 82 73 75 87 94 95 97 92 83 92 91 96 95 98 99 97 99 98 100 98 82 77 86 91 95 96 95 92 85 94 96
81 76 76 82 87 74 61 56 52 58 87 86 92 81 81 97 93 97 97 92 89 94 98 98 97 96 93 96 99 88 78 71 68 66 66 84 92 95 92 86 86 97 100
83 87 84 88 87 84 71 64 57 56 82 87 89 88 94 93 95 98 95 89 89 97 97 95 93 86 95 96 99 91 61 56 61 63 62 62 85 93 91 86 94 98 98
79 88 92 90 87 87 77 71 66 62 76 86 88 86 86 93 97 96 94 87 91 88 90 88 86 95 98 98 86 75 52 49 53 52 53 59 77 87 86 88 96 96 96
79 82 84 88 86 89 80 78 88 83 77 88 90 88 86 90 83 92 90 81 84 81 77 80 89 96 88 70 54 52 48 56 59 61 64 68 72 89 92 88 85 79 89
80 81 83 83 85 88 78 78 82 82 75 87 89 88 87 86 86 89 78 74 74 76 80 85 88 84 57 47 39 40 59 62 64 65 67 70 75 89 90 91 88 86 85
79 80 83 77 80 81 79 69 80 85 76 81 86 86 83 87 89 83 78 77 78 84 84 84 87 78 53 33 35 56 60 62 64 69 76 72 87 89 90 88 89 88 88
74 78 84 79 76 80 82 80 68 83 82 72 81 84 86 87 87 80 77 78 82 84 85 87 89 69 50 34 34 50 60 60 65 70 74 62 86 93 89 75 71 74 75
86 86 90 87 79 83 71 89 67 53 84 83 79 85 88 86 84 84 81 80 83 86 88 86 87 71 53 44 37 39 55 55 59 66 71 59 78 92 81 70 67 62 60
94 84 78 93 90 83 74 89 85 56 59 85 83 87 90 85 88 85 84 80 87 86 92 88 90 75 56 45 44 40 50 52 56 55 66 63 64 83 67 65 66 68 68
83 75 65 68 97 85 84 93 88 64 57 89 90 97 89 85 89 89 85 80 86 90 85 78 71 62 54 47 43 42 41 50 50 51 54 44 56 79 64 66 68 68 68
80 66 62 66 76 89 93 84 85 74 72 95 94 100 93 84 91 91 85 81 83 90 82 73 63 56 52 49 45 42 48 45 44 48 48 44 47 67 75 66 70 71 71
78 85 67 54 53 70 87 86 86 83 78 93 89 94 93 81 80 82 84 85 90 91 80 71 60 51 49 59 51 44 46 46 42 44 43 43 44 51 67 71 72 75 76
73 75 76 86 70 55 72 94 74 81 74 69 83 85 81 78 76 88 84 88 93 87 70 58 51 46 51 50 47 46 45 46 43 44 46 49 51 51 57 68 74 75 80
68 77 70 83 69 84 87 75 98 76 64 64 63 74 74 72 73 84 80 80 75 60 67 62 64 55 53 50 47 46 44 43 49 49 54 56 59 64 65 65 68 73 84
69 68 80 90 88 78 74 57 89 84 64 61 63 65 71 71 73 72 73 70 70 64 60 59 58 52 49 47 47 50 52 52 56 56 58 60 62 62 63 64 65 67 69
64 65 78 97 95 86 67 63 59 88 82 68 63 65 67 70 70 70 64 63 62 59 58 56 53 50 48 46 48 54 56 56 59 60 60 61 64 65 63 62 63 64 64
59 65 75 95 94 81 80 71 56 58 83 79 70 62 63 66 67 67 60 61 59 59 58 55 52 48 48 53 58 58 54 57 60 59 57 60 62 57 64 66 68 70 69
63 60 67 83 95 89 72 81 71 70 76 81 75 69 62 63 64 62 61 60 64 66 66 62 57 54 53 61 60 57 54 59 60 60 58 56 54 59 62 66 66 66 68
69 62 60 81 86 86 74 71 76 76 72 72 77 74 72 71 74 72 72 72 72 70 67 64 62 62 59 60 58 55 55 59 60 59 56 53 54 58 60 60 63 72 74
80 80 86 76 85 88 82 74 64 68 81 71 72 76 77 80 79 79 77 73 69 70 71 65 64 63 63 61 57 54 58 58 58 59 55 55 53 54 57 64 73 75 74
96 96 96 87 84 88 83 78 66 58 76 72 73 79 80 69 85 85 85 81 69 67 74 72 68 65 62 61 61 64 82 67 58 57 54 53 55 54 55 66 67 70 75
78 75 89 98 90 89 87 81 73 62 78 76 78 78 73 81 83 83 83 83 75 75 77 78 78 80 73 65 60 71 86 84 67 54 54 57 56 54 55 62 66 71 76
84 69 64 98 96 91 87 84 88 85 96 83 78 80 84 81 79 79 80 78 80 78 78 84 92 89 92 86 81 74 85 78 72 75 61 60 56 55 52 56 63 68 67
94 85 90 98 100 100 96 96 100 95 98 99 98 88 82 74 70 72 73 75 74 73 81 91 92 90 88 94 88 97 95 85 77 80 78 62 61 54 52 60 61 66 72
99 96 97 97 100 100 95 100 99 97 100 97 97 97 87 82 79 78 69 72 75 78 88 82 85 80 90 93 86 91 98 94 96 91 95 91 80 55 58 63 66 70 74

GFSSE_925_rhum_093.txt.gz
RH
85 65 66 63 64 66 64 78 87 86 78 76 70 79 91 86 90 95 85 71 92 97 96 94 96 95 95 91 98 96 88 82 81 84 85 91 98 99 96 90 88 94 96
80 66 59 60 61 63 66 62 77 82 78 84 77 89 100 91 93 97 87 85 96 95 96 97 98 95 87 92 97 78 68 68 68 68 75 87 94 98 97 89 90 86 93
76 79 71 67 65 65 62 56 58 82 81 84 81 88 95 91 95 98 95 93 95 98 97 98 89 86 93 91 71 62 67 72 69 66 61 78 87 97 92 88 94 97 97
71 75 76 78 67 64 64 58 56 61 83 85 84 88 88 92 96 95 92 93 94 96 96 87 89 94 95 88 52 52 54 60 59 65 57 63 82 86 89 96 97 96 97
76 75 76 78 73 70 71 60 55 58 79 83 85 79 86 91 97 88 88 90 90 88 84 83 92 96 97 72 53 52 62 66 62 64 63 54 73 94 90 85 75 86 89
82 74 75 77 79 75 78 75 76 69 74 83 86 86 88 87 91 85 83 92 85 78 77 82 93 88 64 49 42 57 62 62 65 65 67 60 78 91 90 87 86 88 84
89 83 83 80 83 81 76 88 86 77 69 86 87 88 84 85 83 79 80 85 78 76 79 85 86 57 44 37 54 62 65 68 74 72 63 63 85 91 91 90 88 85 84
83 86 83 81 80 77 72 70 81 85 70 77 80 84 84 87 82 74 72 73 80 85 83 86 81 55 34 34 59 62 66 69 76 72 64 59 87 91 87 74 62 64 64
81 89 86 84 78 76 80 75 69 86 83 68 80 81 84 85 82 78 78 78 84 81 80 84 76 54 35 34 49 60 60 65 71 71 66 50 81 91 76 67 63 64 62
78 82 87 85 88 88 81 89 72 59 89 80 77 81 87 83 79 79 74 80 84 80 85 83 73 58 46 38 37 53 55 57 60 62 70 56 62 70 63 65 67 68 67
87 94 90 85 83 77 73 78 95 77 60 89 83 86 92 84 82 80 77 78 84 86 85 83 86 61 47 43 40 42 52 54 55 56 56 45 52 62 62 63 65 67 68
79 100 93 79 75 70 76 77 97 89 61 78 86 94 90 87 85 79 77 75 81 85 88 80 70 61 51 44 41 38 46 49 52 52 50 46 46 65 64 64 69 70 69
71 85 80 87 79 72 73 70 86 96 85 80 98 97 89 87 86 86 81 76 82 90 84 74 64 53 49 49 48 39 48 48 45 45 46 44 42 52 62 68 71 74 74
62 79 74 70 69 75 72 64 75 77 76 84 97 98 96 92 88 88 83 78 82 90 82 71 59 49 46 56 55 48 47 47 44 44 45 47 48 48 56 69 73 74 74
66 68 83 77 75 80 73 63 69 63 78 86 89 93 94 94 85 86 85 84 88 92 79 68 50 42 48 53 52 49 47 46 44 46 48 52 58 58 62 65 67 72 76
55 78 83 86 76 78 65 63 70 79 91 89 82 85 84 86 82 82 82 83 82 85 66 60 57 60 56 52 48 47 47 46 48 52 54 59 61 62 61 62 63 64 67
57 54 68 74 81 78 76 80 89 78 79 90 73 70 73 76 79 82 78 72 61 60 59 66 62 59 52 49 47 48 53 53 57 59 60 61 62 65 64 63 63 65 67
66 58 66 77 77 78 82 85 82 81 77 85 75 72 71 72 74 75 72 68 68 67 63 59 57 52 51 49 48 49 56 57 57 60 60 60 62 62 60 66 68 70 70
69 69 71 75 78 76 68 76 90 75 78 90 68 65 68 70 71 70 68 68 64 61 60 57 54 53 49 50 55 60 58 56 58 61 61 61 60 61 64 68 68 66 66
69 70 73 81 89 85 78 75 78 81 74 68 79 79 67 66 68 70 65 62 62 59 61 62 59 57 54 50 58 61 59 56 58 60 60 58 57 58 63 63 62 63 74
63 72 75 83 83 85 87 87 95 93 76 71 68 76 75 65 65 64 62 60 63 67 69 66 64 61 62 60 62 61 57 55 61 57 60 57 58 57 56 56 59 72 76
68 71 86 90 91 86 85 83 83 83 76 70 69 74 78 74 73 68 74 75 74 73 72 68 65 65 64 64 64 69 81 68 62 57 59 60 54 55 56 57 65 66 70
87 84 80 84 82 79 83 86 88 84 77 68 70 73 76 79 74 77 75 76 74 69 73 73 70 70 68 65 63 69 90 89 76 62 61 55 55 54 54 64 66 64 63
94 87 96 86 82 94 97 97 94 94 92 76 74 89 63 66 79 74 73 72 82 72 75 76 78 79 78 79 79 77 86 87 87 81 67 62 58 54 53 61 61 64 66
94 97 98 98 100 100 99 96 97 98 97 94 94 95 81 68 69 60 69 72 64 65 69 70 76 93 69 87 85 87 83 95 94 96 86 71 60 57 55 58 62 64 70
100 94 94 98 99 100 100 97 99 100 100 99 95 97 100 90 87 80 80 69 69 69 65 64 79 79 70 70 84 78 87 90 97 96 98 91 85 72 67 66 64 65 69

GFSSE_925_rhum_096.txt.gz
RH
89 88 89 84 71 77 81 79 73 72 73 70 79 96 98 94 89 76 54 81 90 88 84 84 91 94 96 98 92 93 95 96 92 83 90 95 91 96 96 90 93 93 96
83 87 82 87 77 72 83 85 80 77 76 81 90 97 99 90 94 82 77 95 96 95 95 97 96 97 96 94 90 92 86 74 75 80 89 91 90 96 98 83 85 86 92
77 77 71 74 76 67 66 80 83 79 80 81 86 95 99 92 95 89 84 95 97 96 96 97 96 84 89 94 90 82 78 66 67 77 79 83 87 96 97 92 96 92 90
64 65 64 65 65 63 60 60 78 80 78 79 81 89 90 91 96 96 87 96 95 96 96 94 89 91 78 65 69 70 69 67 68 59 59 66 85 93 95 96 96 96 98
82 78 70 66 64 62 60 56 57 80 84 80 80 84 85 90 97 94 94 94 95 95 91 90 91 90 65 58 58 68 60 56 62 61 48 64 82 90 88 83 84 86 86
82 84 77 66 64 62 59 55 55 60 83 82 80 84 87 90 97 80 91 93 92 88 84 90 95 84 65 57 61 69 70 67 66 61 52 68 83 90 91 89 90 90 90
85 82 83 73 67 66 63 60 67 66 74 84 84 84 87 90 86 76 90 94 85 81 82 94 93 66 55 49 62 66 69 70 71 61 54 66 85 92 91 92 92 90 91
76 81 86 84 75 68 70 72 86 76 69 79 82 84 85 88 84 76 91 85 79 76 78 95 60 44 40 54 65 68 71 73 75 66 51 62 84 90 90 83 85 76 79
83 89 93 86 83 71 64 65 78 88 81 72 80 81 82 83 85 73 84 82 78 85 84 86 57 37 36 59 64 67 71 76 74 68 50 55 77 91 77 66 64 60 59
74 76 81 88 85 78 78 68 78 86 86 76 77 82 83 84 86 70 73 73 81 86 78 82 57 38 35 54 63 61 62 70 69 67 64 52 67 83 64 64 65 67 67
69 73 84 83 84 83 86 87 66 59 76 82 76 81 83 86 83 76 76 77 81 78 83 82 60 47 38 37 48 57 58 58 60 62 56 44 56 65 62 63 66 68 69
78 72 75 88 86 83 78 76 93 78 60 64 85 82 85 88 80 77 76 74 78 87 83 84 69 54 46 41 39 53 54 55 56 57 53 48 51 61 59 65 69 70 69
74 79 61 72 90 72 76 81 90 84 70 63 89 90 89 89 81 79 77 77 80 80 84 86 82 66 48 42 40 39 48 49 50 51 50 47 44 59 65 65 71 71 70
60 68 73 89 84 78 74 81 76 76 72 62 70 92 100 89 85 80 78 78 81 85 88 83 72 56 49 46 46 41 48 49 46 46 45 45 46 47 58 67 71 71 71
72 71 71 73 80 75 87 77 76 73 72 77 67 72 91 91 93 84 82 80 79 86 90 77 66 56 49 55 53 51 48 48 47 45 45 48 55 54 55 63 70 72 70
60 69 71 81 73 67 69 81 68 74 71 65 75 71 81 94 93 99 92 87 81 82 91 74 62 51 43 53 52 49 48 47 46 46 48 52 59 62 61 64 66 68 75
53 67 71 72 71 72 86 74 67 64 60 73 89 66 78 92 86 82 87 85 84 84 88 78 62 55 54 56 53 50 49 49 48 48 56 55 62 63 65 64 63 65 67
64 69 68 66 60 64 77 71 66 65 69 74 92 90 68 77 86 78 89 78 84 83 78 79 66 66 63 56 51 48 49 54 54 58 61 61 62 63 65 65 66 68 71
59 64 72 74 70 48 66 87 81 73 75 75 74 77 66 69 73 87 84 82 78 77 69 67 70 69 61 54 51 48 50 55 58 58 60 62 62 63 64 65 68 70 71
57 58 69 70 68 69 68 92 97 83 77 75 75 69 74 66 76 77 75 78 71 64 75 68 63 60 54 51 52 54 60 60 59 58 62 62 61 63 65 65 68 67 68
73 68 70 70 78 82 96 99 100 99 90 77 73 80 80 74 73 79 74 74 75 72 67 63 60 57 57 54 53 60 63 61 58 57 61 59 61 59 65 62 62 61 66
71 79 74 75 81 91 92 94 90 86 93 86 80 80 76 76 72 71 70 71 68 65 62 60 61 63 60 58 65 70 78 67 59 61 62 59 58 58 62 59 59 55 59
99 99 92 75 72 66 81 92 97 94 93 97 93 96 88 85 74 69 68 70 63 61 62 66 68 66 67 65 66 68 94 88 78 66 64 65 62 59 59 59 59 61 64
100 100 100 100 98 84 82 82 92 91 89 78 82 88 91 88 81 72 71 67 64 65 74 73 71 67 67 73 78 72 72 72 86 81 72 71 65 61 59 61 62 65 64
94 96 85 92 98 96 98 96 97 100 78 88 93 93 91 91 90 84 84 81 72 80 80 76 77 76 72 80 78 93 90 96 85 91 92 81 72 70 72 62 64 63 64
99 94 85 87 90 93 99 100 100 100 100 100 100 96 92 95 97 89 84 96 92 81 80 79 69 69 79 69 75 68 78 90 97 97 97 94 84 74 71 71 64 64 64

GFSSE_925_rhum_099.txt.gz
RH
87 81 83 97 90 90 86 82 78 82 78 93 95 97 87 82 80 79 82 90 91 88 86 90 96 95 93 92 93 94 94 91 91 91 95 87 91 96 95 87 89 93 96
80 83 84 95 99 96 88 88 70 75 84 91 98 99 98 92 87 90 93 96 90 86 84 94 95 96 96 91 93 95 95 86 85 88 86 85 89 97 85 85 88 97 97
83 87 86 92 93 89 86 83 73 74 77 84 91 98 98 94 96 92 95 96 94 94 96 97 97 98 97 95 95 95 78 75 79 85 84 82 92 96 89 96 93 93 92
81 85 88 90 82 87 87 85 78 75 77 83 89 94 96 95 98 94 93 95 92 95 94 94 86 88 95 95 94 94 77 60 62 64 60 76 92 95 95 96 95 96 96
84 78 80 87 75 67 73 86 82 77 79 78 84 85 85 92 97 93 94 90 91 95 94 87 91 90 78 75 69 65 62 62 56 48 58 71 73 88 88 88 89 91 89
77 72 73 70 65 58 55 58 74 81 80 79 76 86 86 89 95 86 90 92 95 92 88 86 90 75 62 67 72 59 59 65 58 48 55 67 76 91 92 93 93 92 94
81 74 71 67 65 59 57 54 56 70 84 83 84 85 86 89 94 75 90 94 92 89 84 88 84 64 59 68 73 70 68 68 63 53 57 68 89 93 94 93 92 92 93
78 84 82 76 67 64 63 57 55 57 73 80 81 84 84 87 89 85 88 93 90 88 85 85 73 66 56 67 69 70 71 74 68 50 57 66 88 93 93 95 85 94 93
75 76 87 86 78 71 65 65 72 74 70 80 81 83 82 84 88 86 82 89 78 78 91 90 61 49 49 66 69 70 72 75 70 48 52 62 81 92 81 72 74 72 66
76 76 76 80 83 78 73 74 80 84 83 73 81 83 83 84 87 86 81 80 83 77 80 84 53 42 47 66 68 68 74 75 71 67 56 60 85 92 70 67 71 70 66
67 70 78 82 83 76 77 77 85 87 85 74 78 80 83 84 88 87 82 83 77 74 83 81 54 40 44 64 65 63 64 68 65 66 59 51 66 78 66 65 68 68 68
66 68 77 82 84 78 80 76 65 68 84 83 73 81 88 86 89 80 78 77 75 82 77 81 60 42 40 49 59 60 60 58 56 59 56 50 60 73 62 65 69 68 68
71 68 62 69 80 78 72 70 78 66 58 65 85 80 87 90 89 76 76 75 76 80 87 84 72 55 44 40 43 54 56 56 54 55 56 52 56 87 65 64 71 72 72
73 62 75 72 65 73 76 73 78 84 71 50 54 83 86 94 89 81 77 76 75 85 90 83 81 63 49 42 41 41 48 50 50 48 50 50 47 66 85 69 71 72 72
74 78 75 72 77 78 70 74 76 85 75 63 63 67 76 85 86 83 83 79 77 81 85 85 86 72 54 46 44 42 46 49 49 46 46 47 48 52 55 70 74 75 73
31 68 80 87 66 76 67 67 72 80 73 68 69 73 76 75 87 85 91 92 80 79 82 88 86 70 53 49 53 54 50 50 50 48 46 46 50 58 58 61 68 73 90
19 35 74 75 81 85 82 81 75 71 70 71 66 60 67 78 86 86 82 100 92 86 83 87 87 76 65 52 54 55 52 50 50 49 47 49 51 61 64 64 64 64 72
22 30 64 76 78 82 83 85 82 74 68 65 64 70 76 82 85 91 77 83 94 90 85 82 86 80 70 54 51 55 53 50 50 50 49 57 54 62 64 66 66 66 69
21 23 61 76 78 78 82 81 70 71 71 67 74 74 85 93 89 85 76 77 68 63 87 84 88 83 69 67 66 59 53 51 51 56 57 61 61 62 63 66 66 68 70
20 30 66 80 76 77 76 86 89 82 69 70 77 76 90 89 82 81 80 59 61 63 94 86 88 80 74 69 65 56 52 50 52 58 59 59 62 64 65 65 68 69 70
22 29 64 78 74 80 85 97 98 91 78 72 74 75 78 80 88 94 96 92 82 79 78 86 80 82 74 74 63 60 59 62 63 62 60 60 64 64 62 65 67 70 67
39 53 75 81 78 81 81 80 91 99 99 85 80 70 74 78 80 89 83 90 84 79 84 69 65 75 71 66 61 73 81 68 64 63 60 59 63 65 63 64 66 66 62
98 96 92 93 89 86 70 69 80 98 97 93 96 90 78 77 92 86 88 93 91 86 80 72 76 75 71 64 61 67 93 88 79 65 60 66 66 65 62 69 64 64 61
99 100 99 99 97 91 88 98 99 99 99 91 81 84 85 78 84 91 95 93 90 74 77 76 75 68 70 75 72 64 71 71 85 84 74 69 70 69 68 68 68 69 66
98 93 92 95 93 91 96 98 99 98 99 97 93 90 94 90 82 86 99 100 95 79 74 73 74 71 72 75 73 78 88 84 82 89 93 86 77 71 69 68 68 70 67
98 93 89 93 94 93 99 99 100 100 100 100 100 100 95 94 93 87 86 98 96 82 84 81 78 85 88 86 81 79 80 88 97 96 96 94 86 73 70 70 76 73 66

GFSSE_925_rhum_102.txt.gz
RH
89 93 86 79 86 86 87 90 92 76 85 96 100 100 99 92 85 82 88 90 90 88 95 96 94 89 85 94 93 93 87 86 94 89 87 86 90 97 87 86 88 93 94
84 96 88 87 86 86 85 87 90 89 88 88 98 98 100 95 90 88 93 93 90 88 94 95 97 94 90 95 93 96 94 89 90 86 81 87 90 96 95 89 90 97 97
81 92 86 92 86 86 86 84 86 87 89 92 97 93 94 97 96 95 95 94 91 89 95 95 98 95 93 93 95 95 94 84 86 79 72 84 86 85 91 88 89 89 85
83 89 84 86 83 85 85 83 85 86 89 88 89 96 93 96 97 94 95 95 89 93 93 95 99 96 95 95 94 72 70 74 77 75 70 75 89 95 94 95 94 92 94
87 87 85 87 84 85 84 80 78 81 84 84 86 91 87 93 97 95 95 92 92 87 93 88 91 94 95 90 89 82 57 50 53 54 60 65 79 90 92 91 91 92 90
83 84 81 88 80 81 82 83 81 78 80 79 84 85 86 90 97 92 86 91 90 90 90 87 77 78 75 68 64 62 60 58 46 53 59 68 81 91 92 93 93 96 96
85 81 79 85 69 66 70 78 90 87 86 83 80 88 84 86 93 88 87 91 93 89 87 88 79 68 69 70 61 60 65 61 50 52 57 71 91 94 94 92 94 94 94
77 80 78 85 78 68 63 61 64 85 82 83 81 83 86 85 93 83 85 92 93 89 86 90 92 64 70 71 66 65 68 69 52 54 60 72 92 94 94 95 83 81 76
79 73 70 82 82 75 68 65 64 64 76 79 79 81 81 82 87 89 83 92 90 88 86 82 76 67 67 70 67 68 72 72 56 51 59 67 88 94 89 78 72 76 72
74 79 74 73 76 73 73 68 71 79 72 70 81 85 85 84 87 90 84 86 87 81 83 72 68 64 63 69 69 70 72 73 67 54 57 66 91 94 82 71 72 69 64
72 76 79 78 80 76 72 71 76 79 86 78 75 81 84 85 88 91 82 88 79 79 78 81 58 50 54 69 69 69 72 71 68 67 59 63 87 94 80 66 70 72 69
67 72 64 77 81 83 75 71 69 79 82 76 73 78 81 84 88 91 85 84 82 78 79 82 59 46 51 68 68 65 64 67 63 64 59 53 70 93 78 66 69 70 67
30 65 73 66 72 81 78 72 70 73 83 83 72 77 83 86 90 93 86 87 87 76 78 83 72 50 47 62 64 62 60 60 54 57 58 55 55 92 85 64 69 70 70
22 43 80 72 66 68 75 77 72 67 62 61 78 77 78 86 87 93 89 86 78 75 80 79 81 58 46 44 46 54 57 57 56 54 54 55 52 74 95 77 68 70 72
21 20 69 99 85 76 70 74 75 74 74 61 53 78 79 77 74 91 84 80 77 74 77 85 88 73 56 49 46 44 49 52 51 50 49 52 51 51 82 94 94 78 77
20 18 22 75 100 87 78 76 80 75 73 73 58 66 66 66 75 90 85 84 80 77 78 92 90 85 73 61 50 47 44 45 50 51 48 48 49 51 56 65 89 94 96
18 22 20 42 98 98 85 78 73 76 72 65 64 67 68 68 68 80 87 88 87 80 82 91 88 87 85 72 55 54 56 54 52 51 50 47 47 50 58 61 64 78 90
20 23 23 38 73 98 91 88 91 87 77 70 76 72 69 70 76 78 91 92 88 89 89 93 83 83 86 76 67 53 58 57 54 51 50 48 50 50 56 63 66 67 70
21 21 22 25 75 87 93 87 86 85 84 82 75 66 68 73 78 82 91 91 86 89 98 97 91 87 84 80 78 60 52 58 56 52 51 51 51 58 56 63 66 67 68
25 20 21 32 71 88 92 94 96 96 90 88 84 80 78 80 90 95 95 95 81 81 95 78 85 92 87 84 83 67 64 62 57 52 52 57 58 62 62 62 64 67 68
28 24 21 37 72 92 95 100 100 93 78 76 77 83 80 78 94 100 100 100 87 85 69 75 72 84 80 78 90 78 73 64 58 53 53 57 60 61 62 65 66 66 68
30 25 27 32 68 87 87 86 94 96 96 82 82 81 72 73 80 95 92 92 79 80 77 78 70 79 82 81 78 74 81 67 60 56 59 61 63 60 64 66 65 66 68
67 63 51 63 85 89 89 89 93 95 94 93 82 78 71 73 74 81 87 85 81 80 75 72 70 87 84 79 76 68 91 90 78 64 58 62 63 62 64 66 66 68 70
88 93 95 94 99 100 99 99 100 97 99 93 85 77 81 86 84 86 84 84 92 91 94 93 82 85 83 80 83 69 60 72 87 86 78 73 66 66 64 65 64 70 71
99 99 95 99 100 100 98 100 99 100 99 99 97 93 90 90 92 94 90 92 96 97 99 99 98 90 82 76 77 72 79 82 82 87 90 84 74 68 72 69 68 73 66
100 98 100 98 100 100 99 99 96 96 96 100 98 98 93 87 88 89 88 90 97 98 100 100 95 96 92 90 84 79 72 77 87 91 95 92 87 72 70 71 71 71 72

GFSSE_925_rhum_105.txt.gz
RH
91 96 81 86 86 85 76 82 85 87 84 95 98 98 99 86 85 90 92 88 77 95 96 91 87 92 94 93 91 86 89 95 93 84 87 91 93 95 88 87 94 95 96
86 93 79 89 84 84 83 82 88 87 87 98 96 95 98 100 90 89 92 91 90 97 96 93 88 86 84 90 90 86 95 91 85 83 84 91 94 97 97 93 94 96 96
89 96 91 78 80 86 87 82 88 88 87 90 96 92 92 98 94 96 92 93 90 96 97 97 95 89 95 92 96 94 98 87 78 79 81 93 93 93 89 84 84 86 87
97 98 97 78 83 86 87 82 86 88 86 88 94 93 89 98 96 96 96 94 87 93 89 93 92 93 94 96 96 95 80 80 74 64 79 87 84 95 94 93 94 94 94
96 96 87 84 81 84 87 82 80 84 86 87 88 92 89 96 98 95 94 89 88 91 89 94 88 80 89 90 73 64 63 62 57 56 61 80 82 90 92 92 91 89 86
98 95 88 83 80 84 86 83 83 82 84 85 84 85 88 92 97 93 84 89 90 88 92 90 87 75 75 79 79 65 51 43 47 54 65 69 82 89 91 94 96 96 95
96 95 93 85 83 84 84 83 81 84 83 80 85 86 86 85 92 92 82 87 88 92 91 87 88 59 57 63 64 67 58 47 47 52 60 82 89 94 94 96 96 96 95
84 79 83 85 85 80 83 83 85 85 83 82 80 84 85 83 88 92 80 86 90 90 88 88 70 60 59 60 61 61 59 54 49 53 62 84 93 94 95 95 92 93 95
86 80 72 76 86 80 73 69 72 82 83 82 79 78 79 83 84 91 80 85 91 88 86 84 73 65 65 65 63 63 67 59 47 53 60 83 88 94 93 76 82 89 90
84 89 82 74 72 70 69 68 66 63 66 77 84 82 83 84 85 89 81 83 85 86 86 80 86 66 69 66 65 66 69 68 51 54 62 81 88 95 82 70 76 75 68
46 79 90 86 79 74 70 69 67 65 62 60 69 84 87 90 87 91 89 83 87 84 85 83 76 67 69 69 68 69 70 68 65 58 55 64 82 95 84 70 73 73 70
23 26 67 79 82 80 77 74 74 72 77 80 74 74 81 83 84 91 89 82 88 82 78 79 77 70 67 84 71 74 73 67 64 64 58 56 68 95 88 69 71 70 68
23 23 27 77 78 79 82 81 78 74 76 84 80 73 78 81 84 95 96 93 94 83 85 81 74 69 61 66 70 67 67 67 63 58 59 56 58 96 94 79 72 72 72
23 22 21 56 78 81 76 83 79 72 76 83 81 73 78 82 86 90 97 98 97 91 82 83 85 59 53 61 69 66 63 61 60 55 57 58 56 72 92 94 79 76 75
20 20 20 25 77 99 100 80 81 77 69 62 63 78 80 81 78 79 82 94 92 89 85 78 82 78 56 53 60 59 61 59 58 56 54 54 55 53 75 95 97 93 88
18 18 18 18 34 92 97 99 82 82 84 81 67 54 69 74 69 73 76 93 97 88 82 78 84 81 75 57 52 53 51 50 56 52 52 50 50 52 53 66 94 95 96
26 17 16 17 23 67 96 100 96 74 65 80 76 65 60 66 64 67 75 87 86 83 84 84 85 89 92 76 66 60 50 50 48 49 52 52 49 49 51 55 60 87 95
26 24 16 18 22 61 98 100 99 89 57 58 60 67 73 74 73 71 76 84 88 88 88 87 88 99 95 87 81 69 59 58 59 59 56 54 51 48 48 53 60 63 72
25 23 22 22 22 33 97 100 100 96 92 80 86 86 78 74 74 78 80 81 92 95 92 90 88 96 97 90 86 80 68 62 56 58 58 54 52 49 51 51 56 64 66
28 26 26 24 23 39 88 100 100 100 99 98 95 86 78 79 76 82 86 98 100 100 100 100 100 97 99 92 93 86 80 74 59 54 60 56 52 52 51 57 57 61 66
30 32 30 27 23 61 100 100 99 97 100 93 97 89 81 77 77 95 94 98 99 99 100 100 100 100 90 79 94 87 76 62 61 65 63 57 53 53 58 60 63 60 64
32 32 30 32 34 62 85 100 99 97 83 71 73 77 79 75 72 90 97 99 100 100 99 94 94 92 98 91 89 88 79 59 61 59 63 59 54 52 56 61 62 64 66
42 37 34 31 29 40 95 100 96 93 90 89 83 80 79 79 82 90 98 99 98 92 96 84 85 82 80 84 72 80 89 69 60 55 59 57 53 54 54 62 62 66 67
81 74 68 67 75 64 95 98 98 99 98 99 91 87 85 86 86 90 92 94 98 96 95 90 86 86 90 85 88 80 75 76 69 63 70 66 69 70 55 62 63 63 66
92 87 85 91 99 99 88 99 97 97 99 96 99 97 84 84 87 88 89 91 97 98 96 88 94 91 94 95 89 79 88 80 80 80 72 80 73 68 72 66 63 66 72
100 99 99 100 98 99 98 100 99 98 93 93 90 95 100 96 92 94 97 98 100 100 100 100 99 100 100 100 98 92 81 77 78 80 87 80 83 69 70 70 73 73 77

GFSSE_925_rhum_111.txt.gz
RH
69 81 81 80 81 74 76 76 78 80 82 88 98 94 90 81 86 79 75 67 92 89 82 82 87 97 89 92 92 90 95 88 86 88 88 91 94 96 85 91 92 89 93
78 84 80 82 78 72 66 77 78 79 80 86 90 89 92 97 89 82 78 76 86 87 86 83 95 92 94 81 90 98 92 80 82 83 79 86 93 96 98 93 87 91 93
76 82 84 82 77 75 62 68 78 79 79 86 89 91 90 92 96 93 90 79 94 94 94 90 94 96 86 86 92 98 86 77 81 79 78 76 90 95 89 85 93 95 93
78 80 84 80 79 81 73 65 72 81 84 87 88 88 88 88 92 97 95 81 92 94 92 89 95 91 84 85 96 98 78 72 72 64 61 57 68 91 95 96 94 89 87
76 73 83 84 78 82 85 78 76 74 82 81 83 85 84 83 85 96 95 89 84 96 86 90 88 81 81 80 98 100 73 60 55 60 56 58 62 86 90 82 76 88 84
88 74 84 84 79 82 85 82 82 81 81 80 84 86 86 86 85 93 90 84 82 91 87 89 84 74 67 82 90 79 72 60 49 54 56 61 63 75 86 77 72 94 93
91 89 76 77 81 86 86 86 84 83 85 84 85 84 85 87 88 88 88 83 79 87 86 83 82 54 54 64 73 59 49 41 62 53 54 61 81 92 95 96 95 94 94
97 90 79 82 80 86 85 86 85 84 81 82 83 83 85 87 86 89 87 84 87 86 86 81 77 58 57 59 70 61 46 41 58 54 58 64 75 92 94 95 95 95 94
71 95 96 79 80 77 82 85 85 82 78 78 79 80 81 83 85 84 87 85 83 86 86 86 77 67 63 62 66 66 52 44 57 52 57 67 66 92 94 81 82 91 92
44 49 68 87 85 76 69 70 74 81 82 82 80 80 81 80 81 83 82 88 80 83 88 87 78 64 61 66 65 60 57 48 59 55 58 64 64 93 94 80 76 77 80
38 40 43 53 88 90 79 70 73 65 69 79 80 79 82 90 76 83 85 87 85 79 85 86 83 70 65 70 69 63 64 68 56 53 53 62 66 94 96 90 84 82 75
28 35 38 40 51 86 90 83 76 70 73 71 69 70 78 71 64 59 65 76 87 83 88 89 88 79 66 77 76 70 70 65 54 51 52 59 54 93 95 97 87 85 81
18 25 32 38 39 66 96 88 87 82 76 72 65 64 65 62 64 65 67 84 86 89 91 96 97 96 83 62 60 70 74 62 54 54 55 60 53 82 92 96 86 83 80
18 20 22 30 39 40 85 93 86 89 92 88 81 66 66 67 66 66 67 66 85 94 95 95 93 87 77 69 53 53 55 57 56 52 53 58 52 56 95 94 90 81 85
20 20 21 24 31 37 44 93 99 88 91 86 80 75 66 69 69 72 69 70 80 88 94 93 89 84 72 64 59 53 49 50 51 50 51 55 56 54 59 95 96 95 87
24 23 22 21 23 29 36 56 92 98 94 86 83 83 76 78 80 81 81 79 84 91 90 88 88 86 76 66 60 57 49 48 49 48 48 52 53 54 55 56 84 93 96
22 22 24 24 22 22 26 37 65 96 90 90 84 82 67 72 78 84 84 86 85 89 89 90 88 90 87 80 64 51 44 45 47 48 48 49 52 54 52 51 54 61 91
26 25 23 24 24 22 20 28 48 87 98 94 89 89 76 72 74 82 80 80 80 79 83 86 93 88 86 89 91 67 54 46 45 42 42 45 48 52 54 52 48 51 56
33 31 29 28 29 28 25 24 35 77 95 90 90 78 68 63 66 69 80 81 78 76 78 83 87 93 92 96 92 87 72 64 58 51 46 46 49 51 54 56 54 49 49
39 38 36 34 31 30 28 30 39 76 93 92 76 76 80 63 72 74 70 72 82 79 84 88 91 93 88 90 93 95 93 82 74 64 57 49 47 50 55 57 56 55 51
53 41 40 40 36 34 33 35 47 84 95 96 79 76 81 84 83 92 58 75 80 90 88 88 86 92 94 92 98 99 97 93 88 75 63 59 50 46 50 55 57 58 58
64 59 50 41 38 36 38 37 57 82 86 96 99 99 85 85 92 92 84 72 84 92 93 94 94 97 98 96 94 92 89 86 88 80 81 76 68 54 51 54 54 54 55
75 72 70 58 40 37 38 48 71 84 94 98 96 96 95 95 90 86 89 89 85 90 94 97 95 92 97 91 88 82 83 75 57 58 72 70 69 68 62 58 57 55 52
93 92 91 70 58 46 48 52 73 91 93 87 87 83 86 87 86 87 90 88 86 89 91 92 94 90 92 90 83 88 80 73 65 64 49 58 61 58 56 57 58 60 60
97 100 100 86 71 61 60 62 77 88 89 73 86 94 92 89 89 92 90 93 92 93 92 93 95 94 94 92 86 79 88 85 83 84 77 60 64 63 57 50 50 59 61
95 98 100 99 100 98 73 83 96 93 85 96 99 100 100 99 100 99 99 97 100 100 99 97 94 92 94 95 94 92 86 88 88 85 85 70 63 58 63 58 59 61 64

GFSSE_925_rhum_114.txt.gz
RH
75 83 78 78 75 81 86 81 81 80 85 92 96 94 81 81 82 74 61 66 81 91 85 87 93 94 94 95 93 93 88 87 84 83 83 86 94 95 92 93 88 91 91
74 81 79 76 77 71 81 80 77 79 81 87 92 91 89 92 88 76 69 64 89 88 83 86 92 90 89 86 92 90 79 77 78 75 79 87 94 93 97 88 83 93 92
80 82 80 80 76 70 63 76 80 79 80 85 88 87 90 91 91 84 76 70 86 91 91 86 93 90 81 82 92 98 76 77 78 81 85 71 84 89 86 81 87 94 91
85 82 83 83 80 77 68 64 76 82 79 85 87 89 88 89 89 92 86 72 97 96 93 89 89 92 85 80 97 99 78 74 69 71 70 74 76 94 95 92 90 90 92
84 81 79 84 78 78 80 74 71 74 80 83 82 84 86 84 87 83 96 74 81 95 90 89 92 85 83 73 96 99 69 67 60 57 58 63 70 75 87 86 90 93 93
86 90 84 84 81 78 80 83 80 78 78 83 83 82 86 84 87 82 86 76 68 93 89 87 86 82 71 68 97 90 65 52 55 58 58 62 68 52 75 83 68 94 94
85 90 88 82 80 77 82 85 86 82 81 82 78 81 85 85 84 85 90 83 70 80 84 80 82 78 54 61 74 65 52 38 58 54 55 66 67 80 93 94 94 94 95
75 87 91 92 80 76 81 83 85 85 82 82 83 83 82 83 84 84 86 85 82 74 84 84 79 67 47 54 59 49 39 38 55 55 58 69 70 93 95 96 94 94 94
46 62 75 83 88 84 74 75 81 84 82 79 78 79 78 79 78 79 83 87 83 83 85 86 84 70 47 54 59 59 48 36 56 56 59 65 70 90 96 88 86 94 93
41 41 50 67 81 80 84 83 71 71 76 80 80 79 79 79 78 78 78 78 83 79 79 85 88 82 58 56 63 62 56 44 54 59 56 62 65 78 94 79 83 90 89
25 36 38 41 53 78 75 81 83 75 66 74 80 79 81 79 76 78 70 67 74 82 75 84 88 87 60 56 63 67 60 52 51 57 56 59 67 79 94 70 72 80 83
17 23 29 36 38 46 82 84 86 86 76 64 61 65 74 74 80 75 74 74 72 75 79 81 88 89 73 60 64 65 59 59 58 56 52 58 62 75 95 77 69 72 73
16 17 19 23 30 37 46 78 80 80 80 77 72 69 68 70 69 65 64 71 80 81 84 86 91 93 87 65 72 60 55 55 60 57 54 55 57 60 92 97 77 77 77
22 21 20 20 22 30 36 56 65 84 75 78 75 71 73 66 64 67 66 70 68 77 83 88 96 94 90 79 67 65 59 58 57 58 54 55 57 51 90 95 96 82 83
25 25 24 23 23 22 32 36 63 77 88 78 83 82 67 69 67 67 65 69 74 82 86 89 94 94 89 84 71 59 56 57 58 57 54 54 56 54 49 91 96 96 90
24 24 23 24 24 23 23 28 35 73 83 89 86 84 79 74 72 71 72 72 79 80 87 91 88 90 83 82 72 63 57 51 51 52 51 51 51 53 52 50 72 95 96
30 30 28 26 23 23 23 22 28 34 73 84 90 80 76 72 76 76 75 74 77 78 81 83 89 90 84 82 69 64 61 55 49 49 50 49 50 52 52 52 51 54 88
49 39 34 33 30 28 26 26 21 28 47 77 84 86 81 75 64 72 81 81 80 80 82 81 87 89 94 88 79 70 57 54 47 46 48 48 49 50 51 52 51 49 53
53 54 44 39 37 34 31 31 28 24 36 65 81 86 90 86 73 69 79 80 84 86 85 83 83 81 77 83 86 86 85 60 54 47 45 44 45 46 49 53 54 52 48
61 61 63 53 41 40 36 34 32 30 30 69 75 84 89 90 79 75 72 77 76 72 75 81 82 71 79 84 83 86 90 84 70 60 50 47 46 47 48 51 55 56 55
74 74 78 75 68 44 40 38 36 34 40 72 75 86 88 81 70 71 74 69 63 56 59 50 68 85 88 88 89 89 86 82 86 82 76 69 58 50 48 49 52 54 55
87 90 90 86 81 75 42 39 38 38 62 72 66 76 76 83 80 78 70 75 71 75 82 86 83 89 91 90 92 97 96 90 90 83 86 81 73 64 56 50 51 55 55
90 95 97 96 87 83 70 40 40 41 59 69 79 78 82 88 81 77 71 78 77 78 84 85 83 88 99 92 90 88 97 90 79 71 84 83 79 75 68 56 52 56 56
93 96 97 98 99 86 68 52 47 52 74 73 74 68 82 86 80 84 86 89 87 78 87 85 83 85 77 99 93 94 86 80 83 81 62 66 73 80 72 72 66 56 53
93 98 98 98 98 84 76 63 62 72 78 72 81 86 89 89 98 100 91 91 94 94 92 88 88 90 94 87 94 80 91 99 94 94 88 72 59 65 66 65 65 64 61
92 91 90 93 99 97 98 97 90 94 98 76 86 97 98 100 99 100 100 98 99 100 99 96 96 98 100 97 91 90 93 94 93 92 94 84 80 70 65 62 61 60 58

GFSSE_925_rhum_117.txt.gz
RH
74 79 78 74 74 81 80 82 85 84 87 90 95 90 82 77 76 67 54 65 85 89 85 88 94 94 89 94 94 82 81 65 70 74 84 88 92 93 98 88 79 89 96
78 81 76 73 77 73 78 76 80 80 83 88 93 90 84 91 86 72 59 68 93 89 81 85 92 96 82 90 90 79 78 75 78 81 82 88 93 95 97 83 78 92 93
80 87 81 77 77 77 70 73 76 80 81 84 89 88 93 92 89 80 67 68 92 91 86 89 94 92 83 81 93 79 76 81 84 86 80 78 84 88 85 72 88 92 92
88 88 86 78 81 73 67 66 76 79 82 83 86 87 88 89 89 82 78 68 87 93 95 88 90 92 84 78 94 71 75 82 83 86 85 83 64 80 79 78 89 92 92
86 85 85 85 81 77 77 72 74 77 80 83 84 82 84 87 88 86 78 74 80 96 88 85 90 90 85 71 97 72 65 68 64 67 74 80 68 74 85 89 92 94 89
83 86 86 83 86 76 76 80 80 80 78 82 83 81 82 84 86 92 81 78 66 93 91 89 88 84 78 65 93 74 56 54 58 61 66 68 67 68 96 95 92 95 95
83 91 90 87 84 81 75 78 80 81 81 82 84 85 85 85 85 86 84 81 73 75 87 84 85 84 70 58 69 63 59 46 58 57 56 62 67 59 93 96 96 96 96
53 73 90 88 87 82 80 80 79 80 80 81 83 81 82 84 84 85 82 84 77 64 75 86 84 82 61 51 55 53 50 40 59 59 60 62 70 55 94 95 93 95 96
39 44 59 82 88 88 84 83 77 78 79 78 77 79 81 81 82 78 80 81 80 71 73 86 87 82 58 46 53 46 37 36 57 59 72 63 73 69 94 79 83 95 94
28 33 37 48 64 82 87 83 82 77 76 76 78 77 77 78 76 77 78 76 77 80 76 81 85 86 74 45 50 55 49 37 52 58 64 66 70 76 95 82 79 85 84
18 25 29 26 39 48 74 85 86 83 78 72 70 72 77 80 78 76 73 70 70 72 78 75 82 89 86 64 54 56 56 48 43 58 60 58 68 74 79 76 82 92 88
18 19 21 24 23 26 37 65 82 89 89 84 72 59 60 62 64 68 71 74 74 72 77 76 80 90 89 73 55 59 57 49 44 54 59 56 62 69 76 70 72 82 88
23 23 23 22 20 21 20 30 50 75 88 87 78 74 70 66 70 70 72 76 75 79 81 83 82 92 91 83 64 58 56 52 48 54 62 56 59 65 76 92 74 78 85
24 24 25 25 24 24 22 22 29 41 54 84 82 82 82 75 71 68 66 68 68 73 76 80 82 86 90 89 80 62 61 56 49 58 63 55 56 59 72 93 81 67 74
33 32 30 28 25 24 26 23 22 26 38 53 82 76 77 76 75 70 68 70 71 74 76 81 86 87 90 91 88 72 71 66 58 49 62 58 56 57 57 82 95 94 80
46 49 46 34 30 29 24 25 24 22 29 38 52 82 81 79 74 76 69 67 68 74 79 82 83 90 92 92 89 81 68 64 59 56 60 58 56 56 55 52 81 94 96
50 52 57 52 43 35 34 31 27 25 22 29 46 62 86 86 86 75 73 67 68 80 85 84 79 86 93 93 91 85 78 62 59 57 60 55 53 53 52 52 51 65 89
63 62 59 59 61 52 39 36 34 30 29 24 32 54 60 81 85 81 73 72 71 77 81 82 81 83 86 89 90 85 74 69 63 55 52 52 51 51 52 53 52 52 57
65 68 70 67 64 68 62 44 38 35 33 30 26 43 65 72 78 78 79 74 73 75 74 78 84 86 86 86 94 99 92 81 75 69 52 48 50 50 50 50 51 50 52
72 81 76 74 76 72 68 61 43 38 35 32 32 38 74 71 80 85 76 77 78 81 82 81 80 85 85 85 87 87 87 87 88 80 59 50 48 47 48 48 48 50 53
80 88 88 90 82 92 91 81 67 42 38 36 39 59 65 71 75 87 74 80 88 87 83 78 72 74 74 73 85 85 83 83 86 85 79 72 63 53 49 49 50 49 51
85 90 93 96 96 100 100 98 80 63 41 40 43 54 48 45 68 88 82 89 89 84 79 64 62 71 76 74 82 89 95 90 92 86 81 77 78 75 72 69 54 52 51
87 90 96 99 99 99 99 82 68 67 46 47 68 66 63 74 76 73 78 81 82 74 69 68 68 77 82 81 83 80 99 97 91 80 78 77 76 80 78 76 66 60 55
89 85 89 93 95 99 100 94 81 74 71 81 83 85 91 94 87 91 90 79 72 73 72 67 72 78 81 90 93 83 77 80 88 88 79 81 82 85 80 79 75 72 67
87 84 87 84 92 100 90 99 100 100 99 96 94 95 99 87 91 93 93 92 96 88 86 100 86 95 99 97 97 99 92 87 92 97 92 84 73 69 66 69 68 69 63
85 80 77 74 74 94 100 99 100 99 98 100 93 98 100 98 100 89 82 100 96 100 100 100 100 99 98 99 100 100 100 99 98 99 98 88 84 77 76 72 68 70 68

GFSSE_925_rhum_120.txt.gz
RH
78 75 84 79 73 79 78 85 84 84 83 82 93 86 78 77 73 60 56 69 84 90 86 97 96 90 92 95 91 84 73 72 82 82 64 73 90 96 98 75 73 91 97
83 74 83 80 75 74 79 78 83 82 86 89 92 89 82 88 77 66 62 78 94 89 88 96 94 97 95 84 71 74 68 76 81 85 86 84 90 95 90 74 70 88 96
84 78 86 78 78 76 76 78 81 81 82 86 91 87 90 89 85 74 60 74 94 91 86 91 94 97 84 86 84 69 78 82 88 85 90 91 90 96 89 66 88 94 93
85 80 90 83 83 75 68 64 79 82 83 84 88 87 88 92 90 81 69 61 87 95 91 85 92 94 79 85 78 78 81 84 88 87 85 82 76 84 91 88 93 92 93
84 82 80 83 84 78 76 68 66 78 84 84 87 86 87 87 90 90 80 61 74 92 90 84 91 91 83 70 74 71 81 82 74 71 73 78 69 67 86 93 95 95 88
77 80 84 78 85 83 80 80 77 74 76 81 84 83 80 84 88 88 89 80 60 82 90 89 88 91 80 66 71 60 71 73 66 71 74 72 66 66 94 64 76 95 95
71 87 91 84 78 82 79 79 80 80 80 80 82 86 84 82 84 86 85 84 76 64 88 89 86 88 81 63 63 54 54 58 62 65 71 70 66 68 79 72 95 95 95
41 50 80 90 88 81 79 79 79 79 80 81 80 81 80 83 84 86 86 83 81 68 70 90 89 88 84 60 54 57 53 48 59 61 60 65 69 78 93 95 95 96 96
32 31 36 52 86 92 90 86 82 74 78 80 80 79 80 83 84 84 83 82 82 80 63 76 87 87 84 59 48 50 53 42 58 61 62 68 68 82 94 96 96 96 96
20 26 32 26 31 42 75 89 90 83 80 74 76 76 75 75 77 78 78 79 79 81 76 74 85 85 82 69 47 48 43 37 52 61 66 71 72 87 93 82 82 93 95
18 19 20 21 19 19 23 35 71 89 86 82 78 73 72 76 75 76 75 73 74 74 77 81 79 84 85 84 57 47 50 48 38 56 62 65 74 89 91 68 76 96 92
25 25 26 26 25 23 19 18 22 48 87 92 89 83 72 67 73 72 70 68 69 71 73 78 82 79 88 91 81 60 56 54 50 42 61 62 67 86 93 79 69 87 95
30 29 27 27 26 26 26 25 23 20 30 54 81 87 80 74 69 67 69 73 71 78 82 79 82 84 90 91 89 70 55 56 53 45 57 59 66 83 93 82 64 73 88
34 34 34 33 30 29 27 25 26 24 22 22 34 66 93 88 78 74 72 72 71 75 75 79 78 78 82 91 91 80 65 55 53 49 47 61 61 74 89 91 71 73 83
48 49 49 50 48 40 34 32 29 28 27 24 23 30 51 84 86 84 77 73 68 68 70 74 79 79 80 87 93 89 81 64 54 52 48 62 61 63 66 84 95 91 91
59 58 57 55 56 56 50 36 34 33 30 28 25 25 32 46 72 80 79 77 73 70 72 74 77 83 84 87 91 92 90 80 65 63 59 52 63 61 64 63 76 94 95
64 62 61 62 56 54 56 58 42 35 34 31 28 27 26 30 55 79 80 73 78 78 73 75 79 80 80 91 94 93 94 90 78 67 64 62 61 61 62 60 58 65 88
64 64 68 66 66 68 69 64 65 50 39 34 33 33 31 28 45 69 75 84 74 77 76 75 76 77 82 96 96 92 98 96 89 76 66 65 66 62 61 60 57 54 56
68 72 73 73 74 79 84 79 67 61 46 40 36 33 32 31 31 70 76 83 78 75 76 77 80 80 86 98 95 94 95 100 94 79 66 59 62 61 61 56 56 54 54
71 76 78 78 82 86 91 95 76 63 56 44 39 37 38 44 69 78 78 78 86 84 77 77 79 78 80 81 93 89 87 88 85 96 93 90 87 71 58 56 55 55 55
77 84 85 95 96 100 97 98 98 87 71 59 42 42 45 54 61 57 59 71 85 92 82 72 72 79 85 86 88 82 81 86 91 87 82 90 96 86 71 58 51 51 53
84 85 88 99 98 97 100 100 100 93 71 67 60 60 64 62 56 53 69 87 99 100 98 94 95 93 88 81 88 93 94 93 100 93 89 81 82 86 87 74 61 53 52
85 86 88 87 96 99 100 100 100 82 77 80 81 86 95 95 100 96 89 85 94 99 100 100 97 93 87 80 79 77 98 96 94 91 88 65 68 83 85 82 78 78 74
84 84 77 72 87 99 98 98 100 100 99 100 100 97 100 99 99 100 99 88 90 90 100 99 92 84 92 89 97 86 88 90 91 90 78 82 72 86 81 82 80 77 76
84 84 70 66 66 80 90 94 98 98 100 100 99 99 99 100 99 98 100 100 91 98 88 100 94 97 89 83 92 96 99 96 98 98 96 90 84 76 79 77 73 74 69
83 78 72 61 63 71 78 84 87 92 100 95 95 99 99 91 89 92 96 100 100 96 77 89 97 100 99 99 100 100 100 99 99 99 98 94 92 86 84 86 80 74 71